[[{"header":{"parameterUnit":"m.s-1","parameterCategory":1,"la1":30.6,"la2":29.2853,"lo1":-89.7004,"lo2":-87.6739,"dy":0.0162,"dx":0.0183,"nx":112,"ny":82,"refTime":"2024-07-08T18:00:00:Z","depth":0,"parameterNumber":2,"parameterNumberName":"U-component_of_WINDS"},"data":[0.0,0.0,0.0,0.0,0.0,0.0,0.0,0.0,0.0,0.0,0.0,0.0,0.0,0.0,0.0,0.0,0.0,0.0,0.0,0.0,0.0,0.0,0.0,0.0,0.0,0.0,0.0,0.0,0.0,0.0,0.0,0.0,0.0,0.0,0.0,0.0,0.0,0.0,0.0,0.0,0.0,0.0,0.0,0.0,0.0,0.0,0.0,0.0,0.0,0.0,0.0,0.0,0.0,0.0,0.0,0.0,0.0,0.0,0.0,0.0,0.0,0.0,0.0,0.0,0.0,0.0,0.0,0.0,0.0,0.0,0.0,0.0,0.0,0.0,0.0,0.0,0.0,0.0,0.0,0.0,0.0,0.0,0.0,0.0,0.0,0.0,0.0,0.0,0.0,0.0,0.0,-3.5966,-3.8805,-4.0153,-3.9419,-3.9146,-3.6865,-3.1856,0.0,0.0,0.0,0.0,0.0,0.0,0.0,0.0,0.0,0.0,0.0,0.0,0.0,0.0,0.0,0.0,0.0,0.0,0.0,0.0,0.0,0.0,0.0,0.0,0.0,0.0,0.0,0.0,0.0,0.0,0.0,0.0,0.0,0.0,0.0,0.0,0.0,0.0,0.0,0.0,0.0,0.0,0.0,0.0,0.0,0.0,0.0,0.0,0.0,0.0,0.0,0.0,0.0,0.0,0.0,0.0,0.0,0.0,0.0,0.0,0.0,0.0,0.0,0.0,0.0,0.0,0.0,0.0,0.0,0.0,0.0,0.0,0.0,0.0,0.0,0.0,0.0,0.0,0.0,0.0,0.0,0.0,0.0,0.0,0.0,0.0,0.0,0.0,0.0,0.0,0.0,0.0,0.0,0.0,0.0,0.0,0.0,0.0,0.0,0.0,0.0,0.0,0.0,0.0,-3.2978,-3.7325,-3.9316,-4.0024,-3.9292,-3.8526,-3.6389,-3.2398,0.0,0.0,0.0,0.0,0.0,0.0,0.0,0.0,0.0,0.0,0.0,0.0,0.0,0.0,0.0,0.0,0.0,0.0,0.0,0.0,0.0,0.0,0.0,0.0,0.0,0.0,0.0,0.0,0.0,0.0,0.0,0.0,0.0,0.0,0.0,0.0,0.0,0.0,0.0,0.0,0.0,0.0,0.0,0.0,0.0,0.0,0.0,0.0,0.0,0.0,0.0,0.0,0.0,0.0,0.0,0.0,0.0,0.0,0.0,0.0,0.0,0.0,0.0,0.0,0.0,0.0,0.0,0.0,0.0,0.0,0.0,0.0,0.0,0.0,0.0,0.0,0.0,0.0,0.0,0.0,0.0,0.0,0.0,0.0,0.0,0.0,0.0,0.0,0.0,0.0,0.0,0.0,0.0,0.0,0.0,0.0,0.0,0.0,0.0,0.0,0.0,0.0,0.0,-3.193,-3.4299,-3.7644,-3.9306,-3.9883,-3.9154,-3.8352,-3.596,-3.1393,-3.1481,0.0,0.0,0.0,0.0,0.0,0.0,0.0,0.0,0.0,0.0,0.0,0.0,0.0,0.0,0.0,0.0,0.0,0.0,0.0,0.0,0.0,0.0,0.0,0.0,0.0,0.0,0.0,0.0,0.0,0.0,0.0,0.0,0.0,0.0,0.0,0.0,0.0,0.0,0.0,0.0,0.0,0.0,0.0,0.0,0.0,0.0,0.0,0.0,0.0,0.0,0.0,0.0,0.0,0.0,0.0,0.0,0.0,0.0,0.0,0.0,0.0,0.0,0.0,0.0,0.0,0.0,0.0,0.0,0.0,0.0,0.0,0.0,0.0,0.0,0.0,0.0,0.0,0.0,0.0,0.0,0.0,0.0,0.0,0.0,0.0,0.0,0.0,0.0,0.0,0.0,0.0,0.0,0.0,0.0,0.0,0.0,0.0,0.0,0.0,0.0,0.0,0.0,-3.3698,-3.5774,-3.7702,-3.8903,-3.9368,-3.8785,-3.7567,-3.4844,-3.0142,-3.0173,0.0,0.0,0.0,0.0,0.0,0.0,0.0,0.0,0.0,0.0,0.0,0.0,0.0,0.0,0.0,0.0,0.0,0.0,0.0,0.0,0.0,0.0,0.0,0.0,0.0,0.0,0.0,0.0,0.0,0.0,0.0,0.0,0.0,0.0,0.0,0.0,0.0,0.0,0.0,0.0,0.0,0.0,0.0,0.0,0.0,0.0,0.0,0.0,0.0,0.0,0.0,0.0,0.0,0.0,0.0,0.0,0.0,0.0,0.0,0.0,0.0,0.0,0.0,0.0,0.0,0.0,0.0,0.0,0.0,0.0,0.0,0.0,0.0,0.0,0.0,0.0,0.0,0.0,0.0,0.0,0.0,0.0,0.0,0.0,0.0,0.0,0.0,0.0,0.0,0.0,0.0,0.0,0.0,0.0,0.0,0.0,0.0,0.0,0.0,0.0,0.0,0.0,-3.3981,-3.6965,-3.7821,-3.799,-3.8041,-3.799,-3.5368,-3.2391,-2.9264,-2.8361,0.0,0.0,0.0,0.0,0.0,0.0,0.0,0.0,0.0,0.0,0.0,0.0,0.0,0.0,0.0,0.0,0.0,0.0,0.0,0.0,0.0,0.0,0.0,0.0,0.0,0.0,0.0,0.0,0.0,0.0,0.0,0.0,0.0,0.0,0.0,0.0,0.0,0.0,0.0,0.0,0.0,0.0,0.0,0.0,0.0,0.0,0.0,0.0,0.0,0.0,0.0,0.0,0.0,0.0,0.0,0.0,0.0,0.0,0.0,0.0,0.0,0.0,0.0,0.0,0.0,0.0,0.0,0.0,0.0,0.0,0.0,0.0,0.0,0.0,0.0,0.0,0.0,0.0,0.0,0.0,0.0,0.0,0.0,0.0,0.0,0.0,0.0,0.0,0.0,0.0,0.0,0.0,0.0,0.0,0.0,0.0,0.0,0.0,0.0,0.0,0.0,0.0,-3.2493,-3.5334,0.0,-3.7635,-3.7719,-3.7246,-3.5678,-3.3237,-2.9777,0.0,0.0,0.0,0.0,0.0,0.0,0.0,0.0,0.0,0.0,0.0,0.0,0.0,0.0,0.0,0.0,0.0,0.0,0.0,0.0,0.0,0.0,0.0,0.0,0.0,0.0,0.0,0.0,0.0,0.0,0.0,0.0,0.0,0.0,0.0,0.0,0.0,0.0,0.0,0.0,0.0,0.0,0.0,0.0,0.0,0.0,0.0,0.0,0.0,0.0,0.0,0.0,0.0,0.0,0.0,0.0,0.0,0.0,0.0,0.0,0.0,0.0,0.0,0.0,0.0,0.0,0.0,0.0,0.0,0.0,0.0,0.0,0.0,0.0,0.0,0.0,0.0,0.0,0.0,0.0,0.0,0.0,0.0,0.0,0.0,0.0,0.0,0.0,0.0,0.0,0.0,0.0,0.0,0.0,0.0,0.0,0.0,0.0,0.0,0.0,0.0,0.0,-2.8925,-3.1765,-3.4523,0.0,-3.6979,-3.6922,-3.6375,-3.4689,-3.2475,-2.9681,0.0,0.0,0.0,0.0,0.0,0.0,0.0,0.0,0.0,0.0,0.0,0.0,0.0,0.0,0.0,0.0,0.0,0.0,0.0,0.0,0.0,0.0,0.0,0.0,0.0,0.0,0.0,0.0,0.0,0.0,0.0,0.0,0.0,0.0,0.0,0.0,0.0,0.0,0.0,0.0,0.0,0.0,0.0,0.0,0.0,0.0,0.0,0.0,0.0,0.0,0.0,0.0,0.0,0.0,0.0,0.0,0.0,0.0,0.0,0.0,0.0,0.0,0.0,0.0,0.0,0.0,0.0,0.0,0.0,0.0,0.0,0.0,0.0,0.0,0.0,0.0,0.0,0.0,0.0,0.0,0.0,0.0,0.0,0.0,0.0,0.0,0.0,0.0,0.0,0.0,0.0,0.0,0.0,0.0,0.0,0.0,0.0,0.0,0.0,0.0,0.0,0.0,-2.8975,-3.2205,-3.5036,-3.6424,-3.5912,-3.5406,-3.5291,-3.1855,-2.9412,0.0,0.0,0.0,0.0,0.0,0.0,0.0,0.0,0.0,0.0,0.0,0.0,0.0,0.0,0.0,0.0,0.0,0.0,0.0,0.0,0.0,0.0,0.0,0.0,0.0,0.0,0.0,0.0,0.0,0.0,0.0,0.0,0.0,0.0,0.0,0.0,0.0,0.0,0.0,0.0,0.0,0.0,0.0,0.0,0.0,0.0,0.0,0.0,0.0,0.0,0.0,0.0,0.0,0.0,0.0,0.0,0.0,0.0,0.0,0.0,0.0,0.0,0.0,0.0,0.0,0.0,0.0,0.0,0.0,0.0,0.0,0.0,0.0,0.0,0.0,0.0,0.0,0.0,0.0,0.0,0.0,0.0,0.0,0.0,0.0,0.0,0.0,0.0,0.0,0.0,0.0,0.0,0.0,0.0,0.0,0.0,0.0,0.0,0.0,0.0,0.0,0.0,0.0,-2.8252,-3.1216,-3.3606,-3.4405,-3.4283,-3.4097,-3.3917,-3.189,-3.0034,-2.8648,0.0,0.0,0.0,0.0,0.0,0.0,0.0,0.0,0.0,0.0,0.0,0.0,0.0,0.0,0.0,0.0,0.0,0.0,0.0,0.0,0.0,0.0,0.0,0.0,0.0,0.0,0.0,0.0,0.0,0.0,0.0,0.0,0.0,0.0,0.0,0.0,0.0,0.0,0.0,0.0,0.0,0.0,0.0,0.0,0.0,0.0,0.0,0.0,0.0,0.0,0.0,0.0,0.0,0.0,0.0,0.0,0.0,0.0,0.0,0.0,0.0,0.0,0.0,0.0,0.0,0.0,0.0,0.0,0.0,0.0,0.0,0.0,0.0,0.0,0.0,0.0,0.0,0.0,0.0,0.0,0.0,0.0,0.0,0.0,0.0,0.0,0.0,0.0,0.0,0.0,0.0,0.0,0.0,0.0,0.0,0.0,0.0,0.0,0.0,0.0,0.0,0.0,-2.7453,-3.0295,-3.2505,-3.3061,-3.3115,-3.2928,-3.2442,-3.1258,-2.9669,-2.7624,0.0,0.0,0.0,0.0,0.0,0.0,0.0,0.0,0.0,0.0,0.0,0.0,0.0,0.0,0.0,0.0,0.0,0.0,0.0,0.0,0.0,0.0,0.0,0.0,0.0,0.0,0.0,0.0,0.0,0.0,0.0,0.0,0.0,0.0,0.0,0.0,0.0,0.0,0.0,0.0,0.0,0.0,0.0,0.0,0.0,0.0,0.0,0.0,0.0,0.0,0.0,0.0,0.0,0.0,0.0,0.0,0.0,0.0,0.0,0.0,0.0,0.0,0.0,0.0,0.0,0.0,0.0,0.0,0.0,0.0,0.0,0.0,0.0,0.0,0.0,0.0,0.0,0.0,0.0,0.0,0.0,0.0,0.0,0.0,0.0,0.0,0.0,0.0,0.0,0.0,0.0,0.0,0.0,0.0,0.0,0.0,0.0,0.0,0.0,0.0,0.0,0.0,-2.6586,-2.9444,-3.1563,-3.2162,-3.2216,-3.1896,-3.1085,-3.0176,-2.8629,-2.6191,0.0,0.0,0.0,0.0,0.0,0.0,0.0,0.0,0.0,0.0,0.0,0.0,0.0,0.0,0.0,0.0,0.0,0.0,0.0,0.0,0.0,0.0,0.0,0.0,0.0,0.0,0.0,0.0,0.0,0.0,0.0,0.0,0.0,0.0,0.0,0.0,0.0,0.0,0.0,0.0,0.0,0.0,0.0,0.0,0.0,0.0,0.0,0.0,0.0,0.0,0.0,0.0,0.0,0.0,0.0,0.0,0.0,0.0,0.0,0.0,-2.9661,0.0,0.0,0.0,0.0,0.0,0.0,0.0,0.0,0.0,0.0,0.0,0.0,0.0,0.0,0.0,0.0,0.0,0.0,0.0,0.0,0.0,0.0,0.0,0.0,0.0,0.0,0.0,0.0,0.0,0.0,0.0,0.0,0.0,0.0,0.0,0.0,0.0,0.0,0.0,0.0,0.0,-2.5613,-2.8282,-3.0354,-3.0843,-3.0919,-3.078,-3.05,-2.9301,-2.7926,-2.6475,-2.4321,0.0,0.0,0.0,0.0,0.0,0.0,0.0,0.0,0.0,0.0,0.0,0.0,0.0,0.0,0.0,0.0,0.0,0.0,0.0,0.0,0.0,0.0,0.0,0.0,0.0,0.0,0.0,0.0,0.0,0.0,0.0,0.0,0.0,0.0,0.0,0.0,0.0,0.0,0.0,0.0,0.0,0.0,0.0,0.0,0.0,0.0,0.0,0.0,0.0,0.0,0.0,0.0,0.0,0.0,0.0,0.0,0.0,0.0,0.0,0.0,-3.0112,0.0,0.0,0.0,0.0,0.0,0.0,0.0,0.0,0.0,0.0,0.0,0.0,0.0,0.0,0.0,0.0,0.0,0.0,0.0,0.0,0.0,0.0,0.0,0.0,0.0,0.0,0.0,0.0,0.0,0.0,0.0,0.0,0.0,0.0,0.0,0.0,0.0,0.0,0.0,0.0,-2.4791,-2.7403,-2.933,-2.9549,-2.9594,-2.9552,-2.9496,-2.8721,-2.7627,-2.6156,-2.476,0.0,0.0,0.0,0.0,0.0,0.0,0.0,0.0,0.0,0.0,0.0,0.0,0.0,0.0,0.0,0.0,0.0,0.0,0.0,0.0,0.0,0.0,0.0,0.0,0.0,0.0,0.0,0.0,0.0,0.0,0.0,0.0,0.0,0.0,0.0,0.0,0.0,0.0,0.0,0.0,0.0,0.0,0.0,0.0,0.0,0.0,0.0,0.0,0.0,0.0,0.0,0.0,0.0,-3.642,-3.6922,-3.7541,-3.735,-3.7467,-3.7635,-3.4272,-3.2386,-3.155,0.0,0.0,0.0,0.0,0.0,0.0,0.0,0.0,0.0,0.0,0.0,0.0,0.0,0.0,0.0,0.0,0.0,0.0,0.0,0.0,0.0,0.0,0.0,0.0,0.0,-2.8991,-2.8536,0.0,0.0,0.0,0.0,0.0,0.0,0.0,0.0,0.0,0.0,0.0,0.0,-2.4259,-2.6844,-2.8607,-2.8607,-2.8607,-2.8607,-2.8607,-2.8338,-2.7533,-2.5995,-2.5583,-2.4365,0.0,0.0,0.0,0.0,0.0,0.0,0.0,0.0,0.0,0.0,0.0,0.0,0.0,0.0,0.0,0.0,0.0,0.0,0.0,0.0,0.0,0.0,0.0,0.0,0.0,0.0,0.0,0.0,0.0,0.0,0.0,0.0,-2.6402,-2.5701,0.0,0.0,0.0,0.0,0.0,0.0,0.0,0.0,0.0,0.0,0.0,0.0,0.0,-3.4959,-3.6365,-3.7764,-3.8507,-3.8637,-4.0085,-4.0847,-4.0925,-4.0227,-3.991,-3.9824,-3.8558,0.0,-3.42,-3.1823,0.0,0.0,0.0,0.0,0.0,0.0,0.0,0.0,0.0,0.0,0.0,0.0,0.0,0.0,0.0,0.0,0.0,0.0,0.0,0.0,0.0,0.0,-3.1718,-3.1718,-3.1312,-3.0768,0.0,-2.818,-2.5963,-2.4372,-2.416,0.0,0.0,0.0,0.0,0.0,0.0,0.0,-2.4545,-2.6911,-2.8607,-2.8607,-2.8607,-2.8607,-2.8607,-2.804,-2.7478,-2.7031,-2.5989,-2.4912,-2.3802,-2.16,0.0,0.0,0.0,0.0,0.0,0.0,0.0,0.0,0.0,0.0,0.0,0.0,0.0,0.0,0.0,0.0,0.0,0.0,0.0,0.0,0.0,0.0,0.0,0.0,0.0,0.0,0.0,0.0,0.0,-2.6571,-2.7308,-2.6431,-2.7404,-2.7966,0.0,0.0,0.0,0.0,0.0,0.0,0.0,0.0,0.0,-3.8079,-3.7604,-3.8197,-4.0104,-4.0828,-4.1404,-4.1869,-4.2129,-4.2259,-4.2244,-4.1317,-4.1141,-4.1494,-4.0583,-3.9494,-3.814,-3.4806,-3.2848,-3.1748,0.0,0.0,0.0,0.0,-2.942,-2.9748,-3.0265,-3.0662,0.0,0.0,0.0,0.0,0.0,0.0,0.0,0.0,0.0,0.0,0.0,0.0,0.0,-3.3444,-3.3288,-3.2929,-3.2478,-3.0653,-2.8563,0.0,-2.6606,-2.6133,-2.3852,0.0,0.0,0.0,0.0,0.0,-2.5113,-2.6841,-2.8049,-2.8049,-2.8049,-2.8049,-2.8049,-2.7764,-2.753,-2.7329,-2.6454,-2.5405,-2.4149,-2.2735,-2.1435,0.0,0.0,0.0,0.0,0.0,0.0,0.0,0.0,0.0,0.0,0.0,0.0,0.0,0.0,0.0,0.0,0.0,0.0,0.0,0.0,0.0,0.0,0.0,0.0,0.0,0.0,0.0,0.0,-2.7418,-2.8194,-2.7581,-2.9086,-2.9839,0.0,0.0,0.0,0.0,0.0,0.0,-3.6661,-3.6739,-3.7947,-4.0654,-4.0497,-4.1254,-4.3095,-4.3113,-4.341,-4.3986,-4.3392,-4.3113,-4.3076,-4.1991,-4.1809,-4.2294,-4.1255,-4.0745,-4.0377,-3.7331,-3.5298,-3.3904,-3.2232,-3.1317,-3.0989,-3.1179,-3.1386,-3.1714,-3.2835,-3.3214,-3.304,-3.1979,0.0,-2.9537,-2.7521,0.0,0.0,0.0,0.0,-3.0178,-3.1647,-3.2865,-3.388,-3.4607,-3.4641,-3.4332,-3.37,-3.2362,-3.0676,0.0,-2.8394,-2.7854,-2.5655,0.0,0.0,0.0,0.0,-2.5098,-2.5779,-2.6881,-2.76,-2.76,-2.76,-2.76,-2.7549,-2.7549,-2.7414,-2.7098,-2.6589,-2.5634,-2.4159,-2.3523,-2.2296,-2.0351,0.0,0.0,0.0,0.0,0.0,0.0,0.0,0.0,0.0,0.0,0.0,0.0,0.0,0.0,0.0,0.0,0.0,0.0,0.0,0.0,0.0,0.0,0.0,0.0,0.0,0.0,0.0,0.0,0.0,-2.9195,-3.1321,0.0,0.0,0.0,0.0,-3.5173,-3.6757,-3.843,-4.0169,-4.0784,-4.1776,-4.3272,-4.3113,-4.3315,-4.3931,-4.3949,-4.3968,-4.4005,-4.3968,-4.3949,-4.3896,-4.2625,-4.2005,-4.1865,-4.0599,-3.9759,-3.9258,-3.8743,-3.804,-3.7047,-3.4803,-3.4318,-3.4731,-3.3317,-3.3266,-3.3941,-3.4007,-3.4044,-3.4128,-3.461,-3.3197,-3.113,-3.0241,-2.9439,0.0,0.0,-3.1021,-3.2479,-3.3947,-3.4387,-3.4624,-3.5363,-3.5013,-3.445,-3.4285,-3.3085,-3.1547,0.0,-2.8636,-2.759,-2.6753,0.0,-2.521,-2.5109,-2.5357,-2.5794,-2.6452,-2.7165,-2.76,-2.76,-2.76,-2.7549,-2.7427,-2.7427,-2.7083,-2.6297,-2.6123,-2.5448,-2.4136,-2.335,-2.2629,-2.1986,-2.0476,0.0,0.0,0.0,0.0,0.0,0.0,0.0,0.0,0.0,0.0,0.0,0.0,0.0,0.0,0.0,0.0,0.0,0.0,0.0,0.0,0.0,0.0,0.0,0.0,0.0,0.0,0.0,0.0,-3.1751,-3.4392,0.0,-3.5007,-3.6469,-3.7841,-3.8661,-3.9796,-4.1181,-4.2854,-4.2996,-4.3425,-4.4308,-4.4099,-4.3984,-4.4005,-4.4005,-4.4005,-4.3986,-4.3485,-4.3225,-4.3191,-4.2089,-4.1834,-4.2226,-4.117,-4.0709,-4.0714,-4.0057,-3.9162,-3.8099,-3.6805,-3.6753,-3.7318,-3.6766,-3.6439,-3.6305,-3.6305,-3.5935,-3.5383,-3.4955,-3.3849,-3.2639,-3.2347,-3.2056,-3.1985,-3.2713,-3.3305,-3.3947,-3.4962,-3.5216,-3.5261,-3.5476,-3.5341,-3.4959,-3.4253,-3.369,-3.2844,-3.1249,-3.0245,-2.9189,-2.7679,-2.7243,-2.6836,-2.6086,-2.6137,-2.6482,-2.7165,-2.745,-2.76,-2.76,-2.76,-2.7549,-2.7427,-2.6985,-2.6569,-2.6084,-2.5663,-2.4985,-2.4005,-2.3281,-2.2403,-2.1414,-2.045,-1.9483,0.0,0.0,0.0,0.0,0.0,0.0,0.0,0.0,0.0,0.0,0.0,0.0,0.0,0.0,0.0,0.0,0.0,0.0,0.0,0.0,0.0,0.0,0.0,0.0,0.0,0.0,-3.3756,-3.4302,-3.7045,-3.8638,-3.8046,-3.9796,-4.1208,-4.1747,-4.2585,-4.3566,-4.4682,-4.4401,-4.4395,-4.4781,-4.4457,-4.4177,-4.4005,-4.4005,-4.4005,-4.3986,-4.3466,-4.3191,-4.3141,-4.2075,-4.1923,-4.241,-4.1305,-4.0839,-4.0764,-3.9824,-3.9027,-3.8387,-3.7883,-3.7919,-3.8203,-3.7922,-3.7702,-3.7473,-3.7452,-3.6994,-3.6293,-3.5372,-3.4495,-3.3778,-3.3778,-3.3778,-3.388,-3.4353,-3.4675,-3.4979,-3.5464,-3.5577,-3.5549,-3.5514,-3.5469,-3.5159,-3.4224,-3.3812,-3.3234,-3.1851,-3.1158,-3.0225,-2.8521,-2.8196,-2.7874,-2.6933,-2.6874,-2.7106,-2.754,-2.76,-2.76,-2.76,-2.76,-2.7524,-2.735,-2.6728,-2.613,-2.5652,-2.5024,-2.4358,-2.3601,-2.2939,-2.22,-2.1351,-2.0524,-1.9744,-1.9053,0.0,0.0,0.0,0.0,0.0,0.0,0.0,0.0,0.0,0.0,0.0,0.0,0.0,0.0,0.0,0.0,0.0,0.0,0.0,0.0,0.0,0.0,0.0,-3.1997,-3.351,-3.5166,-3.6823,-3.9212,-4.0688,-4.0639,-4.2863,-4.4316,-4.4335,-4.5094,-4.5575,-4.5594,-4.5096,-4.48,-4.4788,-4.4294,-4.402,-4.4005,-4.4005,-4.4005,-4.4005,-4.4005,-4.3958,-4.386,-4.2749,-4.2318,-4.2364,-4.0953,-3.9975,-3.926,-3.8044,-3.7764,-3.8096,-3.8093,-3.7878,-3.7443,-3.6663,-3.6853,-3.7473,-3.7308,-3.7091,-3.6746,-3.6033,-3.522,-3.4523,-3.4523,-3.4523,-3.4523,-3.4523,-3.5064,-3.56,-3.56,-3.5532,-3.5458,-3.5458,-3.535,-3.5,-3.4151,-3.3412,-3.2635,-3.1769,-3.1231,-3.0538,-2.937,-2.8701,-2.8198,-2.774,-2.7625,0.0,-2.76,-2.76,-2.76,-2.76,-2.76,-2.7499,-2.7233,-2.6562,-2.5805,-2.4946,-2.4239,-2.3601,-2.2946,-2.2345,-2.2019,-2.1989,-2.0785,-2.0146,-2.0151,0.0,0.0,0.0,0.0,0.0,0.0,0.0,0.0,0.0,0.0,0.0,0.0,0.0,0.0,0.0,0.0,0.0,0.0,0.0,0.0,0.0,0.0,-3.4387,-3.466,-3.6614,-3.8432,-3.9541,-4.1854,-4.3343,-4.3335,-4.3918,-4.4566,-4.521,-4.4874,-4.494,-4.5575,-4.5282,-4.5007,-4.4819,-4.4484,-4.4192,-4.4005,-4.4005,-4.4005,-4.4005,-4.3961,-4.3913,-4.3897,-4.3476,-4.3282,-4.3194,-4.1983,-4.1132,-4.0487,-3.9,-3.8245,-3.8062,-3.7781,-3.7932,-3.8272,-3.8043,-3.7705,-3.7256,-3.6581,-3.6239,-3.6067,-3.5757,-3.5487,-3.5295,-3.5295,-3.5295,-3.5295,-3.5295,-3.543,-3.56,-3.56,-3.5144,-3.4684,-3.4578,-3.4047,-3.3467,-3.3117,-3.2896,-3.2525,-3.1747,-3.149,-3.1298,-3.0969,-2.9774,-2.9014,-2.942,-2.8412,0.0,-2.76,-2.76,-2.76,-2.76,-2.76,-2.7499,-2.7233,-2.6174,-2.5345,-2.4863,-2.3795,-2.3302,-2.3615,-2.2997,-2.2446,-2.2004,-2.1656,-2.1318,0.0,0.0,0.0,0.0,0.0,0.0,0.0,0.0,0.0,0.0,0.0,0.0,0.0,0.0,0.0,0.0,0.0,0.0,0.0,0.0,0.0,0.0,-3.5514,-3.7535,-3.8232,-3.9584,-4.0791,-4.1647,-4.3026,-4.3894,-4.3906,-4.4138,-4.4517,-4.5054,-4.4949,-4.5075,-4.5575,-4.5342,-4.5074,-4.48,-4.4533,-4.4279,-4.4005,-4.4005,-4.4005,-4.4005,-4.3958,-4.3931,-4.3888,-4.3789,-4.3671,0.0,-4.2152,-4.1385,-4.0967,-3.9173,-3.8302,0.0,0.0,0.0,0.0,0.0,-3.7884,-3.7124,-3.6652,-3.6343,-3.6152,-3.5723,-3.56,-3.56,-3.56,-3.56,-3.56,-3.56,-3.56,-3.5515,-3.5211,-3.4734,-3.4214,-3.3823,-3.3273,-3.2724,-3.2321,-3.2249,-3.2017,-3.1283,0.0,0.0,-3.1548,-3.0628,-2.9938,-3.0164,-2.9144,-2.8238,-2.7925,-2.766,-2.7514,-2.7514,-2.7488,-2.7361,-2.713,-2.6178,0.0,0.0,0.0,-2.3766,-2.3891,-2.3543,0.0,0.0,0.0,0.0,0.0,0.0,0.0,0.0,-2.2725,-2.3288,0.0,0.0,0.0,0.0,0.0,0.0,0.0,0.0,0.0,0.0,0.0,0.0,0.0,0.0,0.0,0.0,-3.8721,-4.0448,-4.1932,-4.2222,-4.2518,-4.3141,-4.3279,-4.3354,-4.3346,-4.3855,-4.4284,-4.4529,-4.5216,-4.5652,-4.5748,0.0,0.0,0.0,0.0,-4.4504,-4.4153,-4.4246,-4.4246,-4.4153,-4.4119,-4.4059,-4.3896,-4.3806,-4.3595,-4.324,-4.1754,-4.104,-4.0822,-3.8938,-3.8186,-3.8152,-3.8068,-3.7791,-3.7484,-3.7846,-3.7554,-3.6983,-3.6983,0.0,0.0,-3.5819,-3.56,-3.56,-3.56,-3.56,-3.56,-3.56,-3.5532,-3.5329,-3.4675,-3.4235,-3.379,-3.3131,-3.2707,-3.2266,-3.1615,-3.1482,-3.1283,-3.0621,-3.0506,-3.0737,-3.1466,-3.1209,-3.0797,-3.0458,-2.9875,-2.9252,-2.8585,-2.7905,-2.7463,-2.7463,0.0,0.0,-2.7003,-2.6389,-2.5944,-2.5818,-2.5255,-2.4665,-2.4147,-2.4181,-2.4181,-2.4132,-2.4094,-2.4399,-2.4994,-2.5556,-2.5546,-2.5052,-2.3339,-2.3746,0.0,0.0,0.0,0.0,0.0,0.0,0.0,0.0,0.0,0.0,0.0,0.0,0.0,0.0,0.0,-3.8649,-4.1003,-4.2686,-4.2995,-4.3653,-4.3898,-4.3349,-4.3856,-4.4259,-4.4252,-4.374,-4.3971,-4.5354,-4.5596,-4.5956,-4.6605,-4.7009,0.0,-4.5886,-4.6223,-4.5978,-4.5061,-4.5695,-4.5695,-4.5045,0.0,0.0,-4.3896,-4.3666,-4.3051,-4.2179,-4.1425,-4.0728,-4.0047,-3.8996,-3.8596,-3.8515,-3.7879,-3.7377,-3.7034,-3.7095,-3.6741,-3.6219,-3.6219,-3.6043,-3.5825,-3.565,-3.56,-3.56,-3.56,-3.56,0.0,-3.56,-3.5182,-3.4675,-3.4523,-3.3477,-3.2399,-3.2265,-3.1558,-3.0886,-3.0737,-3.0704,-3.0671,-3.0522,-3.0506,-3.0737,-3.1466,-3.1209,-3.1073,-3.1562,-3.0736,-2.9998,-2.9848,-2.8731,-2.7953,-2.7953,-2.7524,-2.7144,-2.7003,-2.6389,-2.5944,-2.5818,-2.5662,-2.5546,-2.5454,-2.5937,-2.5966,-2.5454,-2.544,-2.5513,-2.5643,-2.5745,-2.6036,-2.6428,-2.6039,-2.6152,0.0,0.0,0.0,0.0,0.0,0.0,0.0,0.0,0.0,0.0,0.0,-3.3151,-3.5253,0.0,-3.876,-4.0468,-4.2183,-4.315,-4.2705,-4.3401,-4.3634,-4.2744,-4.3,-4.3095,-4.2691,-4.2978,-4.3551,-4.4395,-4.5605,-4.6476,-4.6874,-4.7401,-4.7381,-4.6708,-4.6831,-4.6581,-4.59,-4.629,-4.6104,-4.5287,-4.4793,-4.4355,-4.3923,-4.3139,-4.2327,-4.1445,-4.0349,-3.9889,-3.9827,-3.9038,-3.8707,-3.8676,-3.8252,-3.7861,-3.7487,-3.7266,-3.6821,-3.6284,-3.6084,-3.5822,-3.56,-3.56,-3.56,-3.56,-3.56,-3.56,-3.5515,-3.5143,-3.4776,-3.432,-3.3596,-3.2702,-3.1913,-3.1545,-3.0958,-3.0506,-3.0506,-3.0506,-3.0506,-3.0506,-3.0506,-3.0621,-3.0986,-3.1177,-3.1499,-3.2243,-3.1332,-3.0494,-3.0377,-2.9146,-2.8247,-2.8155,-2.765,-2.7258,-2.7196,-2.6722,-2.6363,-2.6312,-2.6312,-2.6312,-2.6312,-2.6631,-2.6646,-2.6326,-2.6312,-2.6312,-2.6312,-2.6312,-2.646,-2.682,-2.7113,-2.7432,0.0,0.0,0.0,0.0,0.0,0.0,0.0,0.0,-3.1247,-3.2585,-3.4086,-3.5858,-3.8257,-3.9417,-4.0487,-4.2009,-4.2841,-4.2995,-4.2125,-4.2744,-4.2976,-4.2106,-4.2002,-4.1744,-4.11,-4.2368,-4.3272,-4.345,-4.5756,-4.7159,-4.7153,-4.7803,-4.799,-4.758,-4.7453,-4.7183,-4.6735,-4.6884,-4.6548,-4.5688,-4.4872,-4.4156,-4.3503,-4.244,-4.1486,-4.0581,-3.9271,-3.9067,-3.9625,-3.8964,-3.8707,-3.8707,-3.8707,-3.8499,-3.817,-3.7756,-3.7209,-3.6661,-3.6326,-3.6067,-3.5832,-3.5761,-3.5734,-3.5734,-3.5622,-3.5498,-3.5245,-3.4675,-3.4286,-3.3795,-3.2615,-3.2045,-3.1645,-3.1026,-3.0692,-3.0506,-3.0506,-3.0506,-3.0506,-3.0506,-3.0506,-3.0506,-3.0506,-3.0986,-3.1631,-3.2381,-3.1729,-3.1047,-3.0695,-2.9564,-2.8666,-2.8356,-2.7825,-2.7463,-2.7401,-2.7041,-2.6806,-2.6806,-2.6806,-2.6806,-2.6806,-2.6806,-2.6806,-2.6806,-2.6806,-2.6806,-2.6806,-2.6806,-2.6852,-2.6982,-2.7463,-2.8071,-2.6406,-2.7124,-2.773,-2.7694,-2.7836,-2.8777,0.0,0.0,-3.2624,-3.5711,-3.7121,-3.8334,-4.0172,-4.1177,-4.2048,-4.2995,-4.3247,-4.2995,-4.2125,-4.2744,-4.2976,-4.2106,-4.2009,-4.1964,-4.1874,-4.2737,-4.3587,-4.4298,-4.6711,-4.8116,-4.8053,-4.9241,-4.947,-4.8484,-4.8884,-4.8605,-4.7571,-4.8277,-4.8105,-4.7082,-4.6494,-4.4687,-4.1875,-4.1595,-4.0588,-3.904,-3.8802,-3.8747,-3.8836,-3.8744,-3.8707,-3.8707,-3.8707,-3.8658,-3.858,-3.8119,-3.7614,-3.7114,-3.6995,-3.6878,-3.6701,-3.6346,-3.6216,-3.6152,-3.5734,-3.5148,-3.4607,-3.4506,-3.3563,-3.2513,-3.2344,-3.1658,-3.0992,-3.0908,-3.0692,-3.0506,-3.0506,-3.0506,-3.0506,-3.0506,-3.0506,-3.0506,-3.0506,-3.0572,-3.087,-3.1615,-3.1956,-3.1929,-3.1285,-3.0344,-2.95,-2.8873,-2.8247,-2.7705,-2.7427,-2.7041,-2.6806,-2.6806,-2.6806,-2.6806,-2.6806,-2.6806,-2.6806,-2.6806,-2.6806,-2.6806,-2.6806,-2.6806,-2.7084,-2.7594,-2.7666,-2.8071,-2.7475,-2.7925,0.0,0.0,-2.9214,-3.0176,-3.2561,-3.3234,-3.4023,-3.6406,-3.7593,-3.8876,-4.1081,-4.1777,-4.2299,0.0,-4.3305,-4.2995,-4.2125,-4.2318,-4.2609,-4.2744,-4.2318,-4.2202,-4.2705,-4.3537,-4.3961,-4.3764,-4.5627,-4.6714,-4.6532,-4.7789,-4.8446,-4.832,-4.8821,-4.8876,-4.8407,-4.8723,-4.8348,-4.7276,-4.5135,-4.3237,-4.1563,-4.0451,-3.9503,-3.8728,-3.8726,-3.8707,-3.8707,-3.8707,-3.8707,-3.8707,-3.8707,-3.8658,-3.8528,-3.8136,-3.7809,-3.7506,-3.7188,-3.6995,-3.686,-3.6701,-3.6492,-3.6259,-3.6067,-3.53,-3.4404,-3.3981,-3.3123,-3.2209,-3.1769,-3.1271,-3.0892,-3.0892,-3.0692,-3.0506,-3.0506,-3.0506,-3.0506,-3.0506,-3.0506,-3.0506,-3.0506,-3.0506,-3.0605,-3.0903,-3.1495,-3.1687,-3.1147,-3.0725,-3.002,-2.8803,-2.8415,-2.8018,-2.7437,-2.7248,-2.7041,-2.6806,-2.6806,-2.6806,-2.6806,-2.6806,-2.6806,-2.6806,-2.6806,-2.6806,-2.6806,-2.7157,-2.7434,-2.7724,-2.8464,-2.8942,-2.7741,0.0,0.0,-2.924,-3.0001,-3.1043,-3.272,-3.3402,-3.4292,-3.6458,-3.7232,-3.8295,-4.0829,-4.1506,-4.1874,-4.2512,-4.2995,-4.2995,-4.2125,-4.2415,-4.286,-4.3247,-4.315,-4.3208,-4.3614,-4.4014,-4.3968,-4.3283,-4.4773,-4.574,-4.5774,-4.6542,-4.7254,-4.7857,-4.8119,-4.8314,-4.8464,-4.8757,-4.8289,-4.7022,-4.3283,-4.1428,-4.1282,-3.9608,-3.8807,-3.8707,-3.8707,-3.8707,-3.8707,-3.8707,-3.8707,-3.8707,-3.8707,-3.8624,-3.8478,-3.8219,-3.8034,-3.7879,-3.7523,-3.7338,-3.7245,-3.7113,-3.6781,-3.6416,-3.6084,-3.5164,-3.4032,-3.3305,-3.2581,-3.187,-3.1326,-3.1052,-3.0892,-3.0892,-3.0692,-3.0506,-3.0506,-3.0506,-3.0506,-3.0506,-3.0506,-3.0506,-3.0506,-3.0506,-3.0506,-3.0506,-3.1092,-3.1336,-3.0776,-3.0587,-3.0037,-2.8787,-2.8574,-2.8238,-2.76,-2.7463,-2.7222,-2.6832,-2.6806,-2.6806,-2.6806,-2.6806,-2.6806,-2.6806,-2.6806,-2.6806,-2.6806,-2.7391,-2.7797,-2.7985,-2.9087,-2.9697,0.0,0.0,-2.9365,-2.9396,-3.0001,-3.1043,-3.272,-3.2469,-3.2836,-3.6207,-3.6303,-3.656,-3.9114,-4.0274,-4.0855,-4.0874,-4.2241,-4.2995,-4.2125,-4.346,-4.4226,-4.3401,-4.4717,-4.5394,0.0,-4.3827,-4.3324,-4.3298,-4.4849,-4.6136,-4.6918,-4.6443,-4.6506,-4.7308,-4.6843,-4.6812,-4.7352,-4.8375,-4.8108,-4.6478,-4.1561,-3.9693,-4.0578,-3.9361,-3.878,-3.8707,-3.8707,-3.8707,-3.8707,-3.8707,-3.8707,-3.8707,-3.8707,-3.8624,-3.8494,-3.8415,-3.8336,-3.8274,-3.8191,-3.8157,-3.8089,-3.7632,-3.7208,-3.6681,-3.5567,-3.4377,-3.3288,-3.2547,-3.1802,-3.1224,-3.1207,-3.1052,-3.0892,-3.0892,-3.0692,-3.0506,-3.0506,-3.0506,-3.0506,-3.0506,-3.0506,-3.0506,-3.0506,-3.0506,-3.0506,-3.0506,-3.0963,-3.1063,-3.032,-2.9814,-2.9434,-2.9098,-2.8716,-2.8343,-2.7923,-2.7585,-2.7222,-2.6832,-2.6806,-2.6806,-2.6806,-2.6806,-2.6806,-2.6806,-2.6806,-2.6806,-2.6806,-2.7391,-2.8014,-2.8694,-2.9319,-2.9958,0.0,0.0,-2.9525,-3.0063,-3.0408,-3.0888,-3.1985,-3.2005,-3.2295,-3.4016,-3.4151,-3.4756,-3.7309,-3.8489,-3.963,-4.1313,-4.255,-4.3401,-4.3692,-4.4226,-4.4697,-4.4929,-4.4987,0.0,0.0,0.0,0.0,-4.3343,-4.3283,-4.3543,-4.4187,-4.4535,-4.5166,-4.6148,-4.6945,-4.7345,-4.7289,-4.8371,-4.8089,-4.644,-4.2159,-3.984,-3.9394,-3.9002,-3.8747,-3.8707,-3.8707,-3.8707,-3.8707,-3.8707,-3.8707,-3.8707,-3.8707,-3.8593,-3.843,-3.8399,-3.832,-3.8242,-3.8209,-3.8209,-3.8157,-3.802,-3.7468,-3.674,-3.5869,-3.4571,-3.3254,-3.2513,-3.1769,-3.119,-3.119,-3.1052,-3.0892,-3.0892,-3.0692,-3.0506,-3.0506,-3.0506,-3.0506,-3.0506,-3.0506,-3.0506,-3.0506,-3.0506,-3.0384,-3.007,-3.0196,-3.033,-3.0455,-2.9751,-2.919,-2.9098,-2.8982,-2.8756,-2.8343,-2.7953,-2.7585,-2.7222,-2.6937,-2.6806,-2.6806,-2.6806,-2.6806,-2.6806,-2.6806,-2.6997,-2.7391,-2.8057,-2.8695,-2.9319,-2.9958,-3.0364,-2.9801,-3.0058,-3.0058,-3.0834,-3.1255,-3.1637,-3.214,-3.2024,-3.2043,-3.2914,-3.2856,-3.3325,-3.5579,-3.6947,-3.8379,-4.0357,-4.217,-4.3518,-4.4053,-4.4401,-4.4788,-4.5316,-4.491,-4.4594,0.0,0.0,0.0,-4.3808,-4.3517,-4.3508,-4.3812,-4.4144,-4.4619,-4.53,-4.6044,-4.634,-4.612,-4.6797,-4.6254,-4.4423,-4.2029,-4.0169,-3.8837,-3.8777,-3.8735,-3.8707,-3.8707,-3.8707,-3.8707,-3.8707,-3.8707,-3.8707,-3.8707,-3.8593,-3.843,-3.8415,-3.832,-3.8224,-3.8209,-3.8209,-3.8209,-3.8209,-3.7721,-3.69,-3.5746,-3.4564,-3.3376,-3.2232,-3.1582,-3.119,-3.1151,-3.1012,-3.0892,-3.0851,-3.0651,-3.0506,-3.0506,-3.0506,-3.0506,-3.0506,-3.0506,-3.0506,-3.0506,-3.0506,-3.0363,-3.0,-2.9875,-2.9861,-3.0025,-2.9575,-2.9213,-2.9098,-2.9098,-2.8959,-2.8535,-2.8134,-2.7805,-2.7585,-2.7104,-2.6858,-2.7015,-2.6884,-2.6895,-2.7128,-2.7128,-2.7432,-2.8071,-2.871,-2.9232,-2.961,-3.0045,-3.0234,-2.9535,-3.0177,-3.099,-3.169,-3.2454,-3.303,-3.303,-3.2353,-3.1966,-3.2798,-3.2314,-3.2271,-3.3965,0.0,-3.7157,-3.8141,-4.1128,-4.3318,-4.3298,-4.4008,-4.4576,0.0,0.0,0.0,0.0,0.0,0.0,-4.4729,0.0,-4.5675,-4.5688,-4.5168,-4.4848,-4.4819,-4.4312,-4.4026,-4.4006,-4.3955,-4.286,-4.0778,-4.1151,-4.0495,-3.8896,-3.8765,-3.8707,-3.8707,-3.8707,-3.8707,-3.8707,-3.8707,-3.8707,-3.8707,-3.8707,-3.8624,-3.8476,-3.8415,-3.8352,-3.829,-3.8207,-3.8172,-3.8136,-3.8136,-3.779,-3.7041,-3.5224,-3.4325,-3.3552,-3.1737,-3.121,-3.1171,-3.1035,-3.0952,-3.0871,-3.0733,-3.0609,-3.0506,-3.0506,-3.0506,-3.0506,-3.0506,-3.0506,-3.0506,-3.0506,-3.0506,-3.0443,-3.021,-2.9979,-2.9633,-2.9167,-2.9312,-2.938,-2.9121,-2.9098,-2.8959,-2.8574,-2.8158,-2.7923,-2.7898,-2.7229,-2.7015,-2.7376,-2.7041,-2.7111,-2.7708,-2.7695,-2.8057,-2.8767,-2.9305,-2.9566,-2.9595,-2.9566,-2.9537,-3.1173,-3.1935,-3.2609,-3.28,-3.2473,-3.2121,-3.2121,-3.1502,-3.097,-3.1182,-3.1051,-3.1234,-3.2341,0.0,0.0,-3.8049,-4.0587,0.0,-4.3214,-4.3486,0.0,-4.5355,0.0,-4.5993,-4.7308,-4.7424,0.0,0.0,-4.4891,-4.445,-4.563,-4.4804,-4.4537,-4.5002,-4.4742,-4.4393,-4.3992,-4.3212,-4.2072,-4.0651,-4.051,-3.9874,-3.8822,-3.8735,-3.8707,-3.8707,-3.8707,-3.8707,-3.8707,-3.8707,-3.8707,-3.8707,-3.8707,-3.8624,-3.8476,-3.8415,-3.8352,-3.829,-3.8207,-3.781,-3.7303,-3.7303,-3.6584,-3.5526,-3.4495,-3.3722,-3.2953,-3.1876,-3.1389,-3.1171,-3.1035,-3.0952,-3.0871,-3.0733,-3.0609,-3.0506,-3.0506,-3.0506,-3.0506,-3.0506,-3.0506,-3.0506,-3.0506,-3.0506,-3.0363,-2.9962,-2.9853,-2.97,-2.9425,-2.9282,-2.9167,-2.9098,-2.9098,-2.9052,-2.8959,-2.8574,-2.8207,-2.7923,-2.7715,-2.7545,-2.7401,-2.7299,-2.7543,-2.8137,-2.7844,-2.8246,-2.9377,-2.9073,-2.916,-2.9581,-2.9145,-2.8927,-3.1415,-3.2483,-3.3591,-3.3565,-3.3156,-3.2701,-3.243,-3.1734,-3.0912,-3.0184,-3.0324,0.0,-3.0773,0.0,0.0,0.0,0.0,0.0,-4.3124,-4.2995,-4.3537,0.0,-4.5142,0.0,-4.7096,-4.725,-4.7212,0.0,-4.6095,-4.5556,-4.5688,-4.5276,-4.5006,-4.4964,-4.4631,-4.4296,-4.4005,-4.3042,-4.2065,-4.1026,-4.0396,-3.9671,-3.8851,-3.8735,-3.8707,-3.8707,0.0,-3.8707,-3.8707,-3.8707,-3.8707,-3.8707,-3.8707,-3.8658,-3.8575,-3.8478,-3.8401,-3.8283,-3.7856,-3.7174,-3.6526,-3.6886,-3.6269,-3.5228,-3.4306,-3.3617,-3.2957,-3.1975,-3.1449,-3.1151,-3.1012,-3.0932,-3.0851,-3.0651,-3.0568,-3.0506,-3.0506,-3.0506,-3.0506,-3.0506,-3.0506,-3.0506,-3.0506,-3.0506,-3.0384,-3.0044,-2.9875,-2.9722,-2.9515,-2.9282,-2.9098,-2.9098,-2.9098,-2.8972,-2.8672,-2.8568,-2.8363,-2.8022,-2.7941,-2.7889,-2.7885,-2.7564,-2.7683,-2.8281,-2.7898,-2.8333,-2.9595,-2.8985,-2.9,-2.9581,-2.8695,-2.826,-3.1245,-3.266,-3.4279,-3.4115,-3.4153,-3.4007,-3.3131,-3.214,-3.1028,-2.9603,0.0,-3.0094,-2.9509,-3.1963,-3.4449,-3.562,0.0,-4.1213,-4.2892,-4.2524,-4.2976,-4.5362,-4.4369,-4.4136,-4.5807,-4.6078,-4.6406,-4.7038,-4.7755,-4.7457,-4.5907,-4.5967,-4.5658,-4.4707,-4.4236,-4.3949,-4.3838,-4.3039,-4.224,-4.1423,-4.0407,-3.9575,-3.8896,-3.8765,-3.8707,-3.8707,0.0,0.0,-3.8707,-3.8707,-3.8707,-3.8707,-3.8707,-3.8707,-3.8673,-3.8544,-3.8373,-3.8127,-3.7358,-3.6445,-3.5765,-3.6451,-3.6127,-3.5286,-3.4225,-3.368,-3.3196,-3.2141,-3.1581,-3.1213,-3.1035,-3.0952,-3.0851,-3.0589,-3.051,-3.0506,-3.0506,-3.0506,-3.0506,-3.0506,-3.0506,-3.0506,-3.0506,-3.0506,-3.0426,-3.0231,-2.9979,-2.9722,-2.9515,-2.9282,-2.9098,-2.9098,-2.9098,-2.883,-2.8158,-2.8396,-2.842,-2.8036,-2.8029,-2.8183,-2.8487,-2.7885,-2.7812,-2.836,-2.7979,-2.8331,-2.9465,-2.8956,-2.8913,-2.932,-2.8217,-2.7666,-3.2887,-3.4151,-3.5338,-3.4591,-3.4902,-3.4827,-3.2604,-3.0708,0.0,0.0,0.0,-2.8717,-2.9281,-3.101,-3.3089,-3.5411,0.0,0.0,0.0,0.0,-4.2712,0.0,0.0,0.0,0.0,0.0,0.0,0.0,0.0,-4.7061,-4.6474,-4.5753,-4.4991,-4.4151,-4.4048,-4.367,-4.3002,-4.2203,-4.1386,-4.0587,-3.9575,-3.9039,-3.8896,-3.8765,-3.8707,-3.8707,-3.8707,0.0,-3.8707,-3.8707,-3.8707,-3.8707,-3.8707,-3.8707,-3.8692,-3.8496,-3.7997,-3.7366,-3.7096,-3.6053,-3.4842,-3.4969,-3.448,-3.3777,-3.3572,-3.3234,-3.2876,-3.2669,-3.2127,-3.1582,-3.1507,-3.1196,-3.0871,-3.0692,-3.0589,-3.0506,-3.0506,-3.0506,-3.0506,-3.0506,-3.0506,-3.0506,-3.0506,-3.0506,-3.0426,-3.0231,-2.9979,-2.9722,-2.9515,-2.9282,-2.9098,-2.9098,-2.9098,-2.883,-2.8158,-2.8658,-2.8599,-2.7665,-2.8412,-2.8764,-2.8511,-2.8383,-2.8446,-2.8802,-2.8401,-2.8412,-2.884,-2.8767,-2.8463,-2.8029,-2.7797,-2.742,-3.3524,-3.4734,-3.556,-3.4503,-3.4084,-3.3466,-3.1636,0.0,0.0,0.0,0.0,-2.8284,-2.756,0.0,0.0,0.0,0.0,0.0,0.0,0.0,0.0,0.0,0.0,0.0,0.0,0.0,0.0,0.0,0.0,-4.6278,-4.5937,-4.5201,-4.4347,-4.3407,-4.3373,-4.2983,-4.2184,-4.1367,-4.0773,-4.0383,-3.9415,-3.8921,-3.891,-3.8792,-3.8735,-3.8707,-3.8707,0.0,-3.8707,-3.8707,-3.8707,-3.8707,-3.8707,-3.8707,-3.8692,-3.8512,-3.7922,-3.7145,-3.6617,-3.5631,-3.4534,-3.4117,-3.3719,-3.3393,-3.3393,-3.3114,-3.2795,-3.2795,-3.2418,-3.195,-3.1658,-3.1374,-3.1081,-3.0757,-3.0609,-3.0506,-3.0506,-3.0506,-3.0506,-3.0506,-3.0191,-3.0042,-3.0423,-3.0174,-2.9997,-3.0182,-3.0103,-2.9892,-2.9538,-2.9396,-2.9259,-2.9098,-2.9098,-2.883,-2.8158,-2.8704,-2.873,-2.7863,-2.8612,-2.9006,-2.8826,-2.828,-2.8119,-2.8359,-2.7639,-2.7568,-2.8187,-2.8187,-2.8,-2.7695,-2.7695,-2.7389,-3.3355,-3.452,-3.5137,-3.3872,-3.2745,-3.1656,-3.0595,-2.9565,0.0,0.0,-2.7695,-2.7702,-2.6152,0.0,0.0,0.0,0.0,0.0,0.0,0.0,0.0,0.0,0.0,0.0,0.0,0.0,0.0,0.0,0.0,0.0,-4.4949,-4.4386,-4.3586,-4.2571,-4.2537,-4.2166,-4.1349,-4.0717,-4.0323,-4.0104,-3.9351,-3.895,-3.891,-3.8837,-3.8747,-3.8707,-3.8707,0.0,0.0,-3.8707,-3.8707,-3.8707,-3.8707,-3.8673,-3.8606,-3.8327,-3.7682,-3.6802,-3.5924,-3.5066,-3.4244,-3.361,-3.3393,-3.3393,-3.3393,-3.3178,-3.2923,-3.2923,-3.2684,-3.2299,-3.1824,-3.1548,-3.1264,-3.0777,-3.0589,-3.0506,-3.0506,-3.0506,-3.0506,-3.0506,-3.0026,-2.9761,-3.0191,-2.9777,-2.9534,-2.992,-2.9786,-2.9615,-2.9506,-2.9192,-2.8968,-2.8884,-2.9019,-2.883,-2.8158,-2.8704,-2.8751,-2.7936,-2.8498,-2.8814,-2.8672,-2.7849,-2.7543,-2.7808,-2.6909,-2.683,-2.7642,-2.7692,-2.7623,-2.7507,-2.7637,-2.7389,-3.2163,-3.3196,-3.3911,-3.2464,-3.1422,-3.0537,-2.971,0.0,0.0,-2.6912,-2.6337,-2.6059,-2.6585,-2.7589,0.0,0.0,0.0,0.0,0.0,0.0,0.0,0.0,0.0,0.0,0.0,0.0,0.0,0.0,0.0,0.0,-4.3806,-4.327,-4.2567,-4.1739,-4.1702,-4.1311,-4.0527,-4.0453,-3.9993,-3.9212,-3.9073,-3.895,-3.891,-3.8837,-3.8747,-3.8707,-3.8707,0.0,0.0,-3.8707,-3.8707,-3.8707,-3.8707,-3.8624,-3.8418,-3.7627,-3.6768,-3.5887,-3.5033,-3.419,-3.3502,-3.3429,-3.3393,-3.3393,-3.3393,-3.3364,-3.3349,-3.3349,-3.3068,-3.265,-3.2179,-3.1734,-3.1244,-3.0675,-3.0506,-3.0506,-3.0506,-3.0506,-3.0506,-3.0506,-3.0456,-3.0208,-2.9595,-2.943,-2.9353,-2.921,-2.8486,-2.8306,-2.9355,-2.8208,-2.7531,-2.8126,-2.8735,-2.883,-2.8158,-2.8704,-2.8546,-2.7273,-2.7826,-2.7921,-2.732,-2.7182,-2.7259,-2.7535,-2.7067,-2.7045,-2.7439,-2.7608,-2.7405,-2.6895,-2.7434,-2.7389,-3.1716,-3.2419,-3.2687,-3.2054,-3.1635,-3.0909,-2.9036,0.0,-2.7408,-2.6253,-2.5764,-2.5851,-2.6853,-2.7884,-2.8989,0.0,-3.2095,-3.4424,-3.7318,0.0,0.0,0.0,0.0,0.0,0.0,0.0,0.0,0.0,0.0,0.0,-4.2208,-4.2115,-4.1702,-4.0903,-4.0866,-4.0457,-3.9621,-3.9621,-3.9435,-3.9101,-3.9073,-3.9007,-3.891,-3.8862,-3.8792,-3.8707,-3.8707,0.0,0.0,-3.8707,-3.8707,-3.8707,-3.8707,-3.838,-3.7839,-3.7372,-3.638,-3.5169,-3.4743,-3.4081,-3.3393,-3.3393,-3.3393,-3.3393,-3.3393,-3.3393,-3.3393,-3.3393,-3.3286,-3.3037,-3.2519,-3.1841,-3.1157,-3.0613,-3.0506,-3.0506,-3.0506,-3.0506,-3.0506,-3.0506,-2.9831,-2.9268,-2.9383,-2.8704,-2.8403,-2.9164,-2.8862,-2.8818,-2.957,-2.9012,-2.843,-2.8132,-2.7984,-2.7794,-2.7525,-2.7747,-2.7662,-2.7146,-2.7352,-2.7383,-2.7115,-2.6672,-2.6769,-2.7488,-2.6957,-2.6896,-2.7401,-2.7841,-2.7615,-2.682,-2.7405,-2.7389,-3.1215,-3.1619,-3.1654,-3.1845,-3.1728,-3.0991,0.0,-2.8275,-2.7612,-2.5858,-2.5712,-2.6125,-2.6912,-2.8136,-2.9109,0.0,-3.0987,-3.3147,-3.5702,0.0,0.0,0.0,0.0,0.0,0.0,0.0,0.0,0.0,0.0,0.0,0.0,-4.0961,-4.0687,-4.0044,-4.0011,-3.9714,-3.9101,-3.9101,-3.9101,-3.9101,-3.9101,-3.9017,-3.891,-3.891,-3.884,-3.8707,0.0,0.0,0.0,-3.8707,-3.8707,-3.8707,-3.8707,-3.8178,-3.7396,-3.6988,-3.596,-3.4728,-3.4362,-3.3882,-3.3393,-3.3393,-3.3393,-3.3393,-3.3393,-3.3393,-3.3393,-3.3393,-3.3304,-3.307,-3.2571,-3.184,-3.1114,-3.063,-3.0506,-3.0506,-3.0506,-3.0506,-3.0439,-3.0208,-2.9367,-2.8704,-2.8771,-2.7961,-2.7611,-2.8524,-2.8369,-2.8449,-2.927,-2.8908,-2.8439,-2.8117,-2.7304,-2.6862,-2.7083,-2.7099,-2.702,-2.6799,-2.6767,-2.6688,-2.6483,-2.5977,-2.6215,-2.7353,-2.6693,-2.6732,-2.7549,-2.778,-2.7477,-2.682,-2.7244,-2.7215,-3.048,-3.0713,-3.0897,-3.1708,-3.1305,-3.0459,0.0,-2.8667,-2.7612,-2.5864,-2.6199,-2.6777,-2.6729,-2.8122,-2.9306,-2.9306,-3.1424,-3.3984,-3.6524,0.0,0.0,0.0,0.0,0.0,0.0,0.0,0.0,0.0,0.0,0.0,0.0,-3.9769,-3.9395,-3.9115,-3.9101,-3.9101,-3.9101,-3.9101,-3.9101,-3.9101,-3.9101,-3.9017,-3.891,-3.891,-3.884,0.0,0.0,0.0,0.0,-3.8707,-3.8707,-3.8707,-3.8707,-3.8132,-3.7199,-3.6334,-3.5457,-3.4585,-3.3712,-3.3411,-3.3393,-3.3393,-3.3393,-3.3393,-3.3393,-3.3393,-3.3393,-3.3393,-3.307,-3.2586,-3.2144,-3.164,-3.1159,-3.0634,-3.0506,-3.0506,-3.0506,-3.0506,-3.0274,-2.9546,-2.9397,-2.8953,-2.7564,-2.7298,-2.7224,-2.6959,-2.6354,-2.6528,-2.819,-2.7205,-2.6786,-2.7974,-2.6846,-2.6309,-2.7036,-2.7099,-2.6799,-2.6056,-2.6009,-2.5708,-2.5049,-2.5001,-2.5665,-2.7083,-2.6327,-2.6546,-2.7898,-2.7167,-2.682,-2.6806,-2.682,-2.682,-2.8842,-2.9369,-2.9735,-2.9391,-2.9566,-2.9437,-2.7993,-2.7898,-2.7764,-2.6636,-2.6568,-2.7082,-2.8257,-2.8934,-2.9863,-3.1599,0.0,0.0,0.0,0.0,0.0,0.0,0.0,0.0,0.0,0.0,0.0,0.0,0.0,0.0,0.0,-3.9891,-3.9602,-3.9389,-3.921,-3.9101,-3.9101,-3.9101,-3.9101,-3.9101,-3.9045,-3.8979,-3.891,-3.8848,0.0,0.0,0.0,0.0,0.0,-3.8707,-3.8707,-3.8652,-3.8083,-3.7353,-3.6501,-3.5542,-3.4648,-3.3894,-3.3528,-3.3393,-3.3393,-3.3393,-3.3393,-3.3393,-3.3393,-3.3393,-3.3393,-3.3393,-3.3196,-3.288,-3.2402,-3.1932,-3.1451,-3.0958,-3.0671,-3.0506,-3.0506,-3.0092,-2.9678,-2.9446,-2.8622,-2.7829,-2.7365,-2.6884,-2.6699,-2.7104,-2.6727,-2.6915,-2.8404,-2.7966,-2.767,-2.8069,-2.7288,-2.6641,-2.6372,-2.5914,-2.5571,-2.5333,-2.5318,-2.5428,-2.5661,-2.5677,-2.634,-2.7762,-2.7262,-2.7442,-2.8304,-2.7575,-2.7222,-2.7222,-2.7222,-2.7321,0.0,-2.8492,-2.8861,-2.8637,-2.8757,-2.8647,-2.7592,-2.7491,-2.7357,-2.6481,-2.6525,-2.7131,-2.8548,-2.9074,-2.9921,-3.185,-3.2691,0.0,0.0,0.0,0.0,0.0,0.0,0.0,0.0,0.0,0.0,0.0,0.0,0.0,0.0,-4.0091,-3.9848,-3.9621,-3.9279,-3.9101,-3.9101,-3.9101,-3.9101,-3.9101,-3.9036,-3.895,-3.891,-3.8837,0.0,0.0,0.0,0.0,0.0,-3.7918,-3.779,-3.7734,-3.7254,-3.6541,-3.5738,-3.5045,-3.4294,-3.3577,-3.3452,-3.3393,-3.3393,-3.3393,-3.3393,-3.3393,-3.3393,-3.3393,-3.3393,-3.3393,-3.3319,-3.307,-3.2435,-3.2039,-3.1589,-3.0684,-3.0492,-3.034,-2.9831,-2.9549,-2.9231,-2.8704,-2.7912,-2.7199,-2.6934,-2.6501,-2.6369,-2.6816,-2.6644,-2.6808,-2.7786,-2.7918,-2.7985,-2.8085,-2.7494,-2.6909,-2.6451,-2.5555,-2.5005,-2.5005,-2.5005,-2.5191,-2.5618,-2.5614,-2.6151,-2.7288,-2.6923,-2.7047,-2.7744,-2.7143,-2.6976,-2.7215,-2.7215,-2.747,0.0,-2.7964,-2.8191,-2.8934,-2.8553,-2.7997,-2.7937,-2.7341,0.0,-2.5763,-2.6177,-2.7015,-2.8088,-2.8823,-2.965,-3.0772,0.0,0.0,0.0,0.0,0.0,0.0,0.0,0.0,0.0,0.0,0.0,0.0,0.0,0.0,0.0,-4.0269,-4.0032,-3.9786,-3.9338,-3.9101,-3.9101,-3.9101,-3.9101,-3.9101,-3.9021,-3.895,-3.891,-3.8837,0.0,0.0,0.0,0.0,0.0,-3.6611,-3.6303,-3.6285,-3.6229,-3.5701,-3.4976,-3.4775,-3.4239,-3.3577,-3.3437,-3.3393,-3.3393,-3.3393,-3.3393,-3.3393,-3.3393,-3.3393,-3.3393,-3.3393,-3.3393,-3.3193,-3.2333,-3.2022,-3.1528,-2.9981,-2.9978,-2.9996,-2.8691,-2.8853,-2.887,-2.7547,-2.7249,-2.7,-2.6319,-2.6202,-2.6202,-2.6202,-2.6202,-2.6288,-2.6578,-2.7195,-2.7719,-2.8018,-2.7415,-2.7051,-2.7099,-2.5808,-2.5017,-2.5084,-2.5037,-2.5084,-2.5207,-2.5112,-2.5412,-2.6151,-2.5784,-2.5917,-2.6538,-2.6169,-2.6357,-2.6994,-2.6918,-2.7285,-2.6068,0.0,-2.7002,-2.6599,-2.6799,-2.6941,0.0,-2.6504,-2.6734,-2.654,0.0,-2.7557,-3.038,-3.0037,-3.0448,0.0,0.0,0.0,0.0,0.0,0.0,0.0,0.0,0.0,0.0,0.0,0.0,0.0,0.0,0.0,0.0,-3.9761,-3.964,-3.9561,-3.9253,-3.9101,-3.9101,-3.9101,-3.9101,-3.9101,-3.8979,-3.8925,-3.891,-3.878,0.0,0.0,0.0,0.0,-3.656,-3.6376,-3.6303,-3.6229,-3.5555,-3.5141,-3.4842,-3.414,-3.3741,-3.3506,-3.3422,-3.3393,-3.3393,-3.3393,-3.3393,-3.3393,-3.3393,-3.3393,-3.3393,-3.3393,-3.3393,-3.3226,-3.2519,-3.1741,-3.0924,-3.0036,-2.9349,-2.8807,-2.8475,-2.8078,-2.7696,-2.7348,-2.6851,-2.6402,-2.6219,-2.6202,-2.6202,-2.6202,-2.6078,-2.6178,-2.6749,-2.6699,-2.6862,-2.7498,-2.6793,-2.6498,-2.7051,-2.5808,-2.5223,-2.5724,-2.5286,-2.5713,-2.731,-2.6325,-2.634,-2.7573,-2.7501,-2.7268,-2.68,-2.7018,-2.7473,-2.8105,-2.708,-2.7395,-2.5498,-2.6144,-2.6698,-2.6253,-2.6475,-2.6698,-2.6243,0.0,0.0,0.0,0.0,0.0,0.0,0.0,0.0,0.0,0.0,0.0,0.0,0.0,0.0,0.0,0.0,0.0,0.0,0.0,0.0,0.0,0.0,0.0,0.0,-3.9705,-3.9597,-3.9495,-3.9363,-3.9219,-3.9101,-3.9101,-3.9101,-3.9101,-3.8964,-3.891,-3.8892,-3.8379,-3.7915,0.0,0.0,0.0,-3.5679,-3.5312,-3.5147,-3.511,-3.4619,-3.4408,-3.4284,-3.3779,-3.3549,-3.3495,-3.3422,-3.3393,-3.3393,-3.3393,-3.3393,-3.3393,-3.3393,-3.3393,-3.3393,-3.3393,-3.3393,-3.3256,-3.2654,-3.2035,-3.122,-2.9833,-2.9273,-2.8782,-2.7632,-2.7613,-2.7597,-2.6934,-2.675,-2.6601,-2.6252,-2.6202,-2.6202,-2.6202,-2.6114,-2.6136,-2.6403,-2.6519,-2.6659,-2.6878,-2.6436,-2.6413,-2.7051,-2.5808,-2.5286,-2.5961,-2.5661,-2.5839,-2.6646,-2.595,-2.5903,-2.6662,-2.6678,-2.6449,-2.6037,-2.6255,-2.6707,-2.7342,-2.6608,-2.6967,-2.5642,-2.632,-2.6919,-2.6671,-2.6687,-2.6741,-2.6629,0.0,0.0,0.0,0.0,0.0,0.0,0.0,0.0,0.0,0.0,0.0,0.0,0.0,0.0,0.0,0.0,0.0,0.0,0.0,0.0,0.0,0.0,0.0,0.0,-3.9731,-3.966,-3.9452,-3.9321,-3.915,-3.8915,-3.9045,-3.9101,-3.9101,-3.8835,-3.8726,-3.8689,-3.775,-3.7235,0.0,0.0,0.0,-3.4766,-3.4082,-3.3807,-3.3807,-3.3807,-3.3766,-3.3684,-3.3615,-3.3549,-3.3495,-3.3422,-3.3393,-3.3393,-3.3393,-3.3393,-3.3393,-3.3393,-3.3393,-3.3393,-3.3393,-3.3393,-3.3289,-3.2753,-3.2415,-3.1688,-2.9535,-2.9377,-2.9106,-2.6872,-2.7429,-2.8028,-2.6783,-2.6949,-2.71,-2.6485,-2.6268,-2.6202,-2.6202,-2.6202,-2.6132,-2.5934,-2.6365,-2.6568,-2.6174,-2.6114,-2.6336,-2.6878,-2.595,-2.5507,-2.5977,-2.5898,-2.5602,-2.5017,-2.5096,-2.5096,-2.5005,-2.5096,-2.5144,-2.5144,-2.5144,-2.5507,-2.6167,-2.5945,-2.6293,-2.6323,-2.714,-2.7485,-2.6047,-2.6203,-2.6544,-2.5847,0.0,0.0,0.0,0.0,0.0,0.0,0.0,0.0,0.0,0.0,0.0,0.0,0.0,0.0,0.0,0.0,0.0,0.0,0.0,0.0,0.0,0.0,0.0,0.0,-3.9421,-3.9421,-3.9183,-3.85,-3.8133,-3.8079,-3.8767,-3.9101,-3.9082,-3.828,-3.7876,-3.7843,-3.6908,-3.6083,0.0,0.0,-3.4619,-3.3972,-3.3844,-3.3807,-3.3807,-3.3807,-3.3766,-3.3684,-3.3615,-3.3549,-3.3495,-3.3422,-3.3393,-3.3393,-3.3393,-3.3393,-3.3393,-3.3393,-3.3393,-3.3393,-3.3393,-3.3393,-3.3304,-3.2816,-3.2091,-3.1072,-2.9453,-2.9028,-2.8637,-2.7406,-2.7796,-2.8326,-2.8111,-2.7647,-2.7249,-2.7149,-2.6617,-2.6202,-2.6202,-2.6202,-2.6132,-2.5934,-2.5849,-2.5707,-2.5474,-2.5298,-2.5448,-2.6103,-2.6546,-2.6562,-2.604,-2.5476,-2.5112,-2.5005,-2.5535,-2.5586,-2.5001,-2.555,-2.5851,-2.5851,-2.5851,-2.6214,-2.6909,-2.5713,-2.5855,-2.5952,-2.6667,-2.712,-2.6347,-2.7496,-2.8702,-2.8343,0.0,0.0,0.0,0.0,0.0,0.0,0.0,0.0,0.0,0.0,0.0,0.0,0.0,0.0,0.0,0.0,0.0,0.0,0.0,0.0,0.0,0.0,0.0,0.0,0.0,-3.8035,-3.8119,-3.7661,-3.7412,-3.7412,-3.7785,-3.7895,-3.7801,-3.7299,-3.705,-3.7013,-3.6029,-3.5371,-3.4986,0.0,-3.4137,-3.3807,-3.3807,-3.3807,-3.3807,-3.3807,-3.3766,-3.3684,-3.3591,-3.352,-3.3495,-3.3422,-3.3393,-3.3393,-3.3393,-3.3393,-3.3393,-3.3393,-3.3103,-3.2741,-3.2741,-3.3067,-3.3243,-3.2471,-3.1892,-3.1069,-2.9292,-2.8956,-2.8739,-2.7725,-2.8256,-2.882,-2.8475,-2.8426,-2.8191,-2.7431,-2.7017,-2.6651,-2.6252,-2.6202,-2.6168,-2.6078,-2.5989,-2.5824,-2.5508,-2.5394,-2.5667,-2.6519,-2.6198,-2.6135,-2.6577,-2.5602,-2.5005,-2.5005,-2.5302,-2.5318,-2.5021,-2.5302,-2.546,-2.546,-2.546,-2.5634,-2.595,-2.5302,-2.5349,-2.572,-2.6223,-2.6745,-2.6957,-2.835,-2.9776,-3.0139,-3.0226,0.0,0.0,0.0,0.0,0.0,0.0,0.0,0.0,0.0,0.0,0.0,0.0,0.0,0.0,0.0,0.0,0.0,0.0,0.0,0.0,0.0,0.0,0.0,0.0,-3.7028,-3.7301,-3.6963,-3.678,-3.678,-3.6592,-3.6567,-3.6699,-3.6374,-3.6214,-3.6182,-3.5184,-3.4729,-3.4674,-3.4082,-3.3807,-3.3788,-3.3605,-3.3532,-3.3532,-3.3532,-3.3601,-3.3684,-3.3591,-3.3411,-3.3241,-3.3383,-3.3299,-3.3158,-3.3339,-3.3266,-3.3121,-3.3121,-3.256,-3.1908,-3.1908,-3.2361,-3.2643,-3.1851,-3.1542,-3.0955,-2.9158,-2.9091,-2.9173,-2.8141,-2.8832,-2.9516,-2.8986,-2.9168,-2.9069,-2.7978,-2.7514,-2.7116,-2.6535,-2.6319,-2.6168,-2.6132,-2.6132,-2.5989,-2.5642,-2.5586,-2.5966,-2.6841,-2.5733,-2.5523,-2.6767,-2.5839,-2.5159,-2.5001,-2.5005,-2.5005,-2.5005,-2.5005,-2.5005,-2.5005,-2.5005,-2.5005,-2.5005,-2.5005,-2.5005,-2.6416,-2.6663,-2.6899,-2.7701,-2.7445,0.0,-2.8786,-2.9125,0.0,-2.982,0.0,0.0,0.0,0.0,0.0,0.0,0.0,0.0,0.0,0.0,0.0,0.0,0.0,0.0,0.0,0.0,0.0,0.0,0.0,0.0,0.0,0.0,0.0,-3.7293,-3.6563,-3.6166,-3.6166,-3.5428,-3.5609,-3.6686,-3.5814,-3.5396,-3.5359,-3.4333,-3.3899,-3.388,-3.3825,-3.3807,-3.3733,-3.2986,-3.2693,-3.2693,-3.2693,-3.3093,-3.3698,-3.3684,-3.3127,-3.2492,-3.3237,-3.2962,-3.2415,-3.3158,-3.2886,-3.2288,-3.2288,-3.1709,-3.1089,-3.1089,-3.1143,-3.112,-3.0926,-3.0732,-3.0279,-2.9084,-2.9523,-2.992,-2.8846,-2.9562,-3.0406,-3.0357,-2.9827,-2.9363,-2.9284,-2.8177,-2.7265,-2.7216,-2.6634,-2.6132,-2.5952,-2.5934,-2.5844,-2.5624,-2.56,-2.5809,-2.631,-2.5528,-2.5318,-2.604,-2.5993,-2.5645,-2.5037,-2.5005,-2.5005,-2.5005,-2.5005,-2.5005,-2.5005,-2.5005,-2.5005,-2.5005,-2.5005,-2.5005,-2.5874,-2.6253,-2.667,-2.7036,-2.7203,0.0,0.0,-3.1834,-3.3016,-3.315,-3.3627,0.0,0.0,0.0,0.0,0.0,0.0,0.0,0.0,0.0,0.0,0.0,0.0,0.0,0.0,0.0,0.0,0.0,0.0,0.0,0.0,0.0,0.0,-3.6179,-3.5762,-3.5529,-3.5529,-3.5207,-3.5182,-3.5506,-3.496,-3.4581,-3.4426,-3.3989,-3.3532,-3.3041,-3.3041,-3.2779,-3.2265,-3.1971,-3.1843,-3.1843,-3.1843,-3.2014,-3.2263,-3.219,-3.2238,-3.2315,-3.2046,-3.2063,-3.2162,-3.1962,-3.1691,-3.1437,-3.1437,-3.0889,-3.0255,-3.0255,-2.988,-2.9613,-3.0062,-2.9996,-2.9587,-2.8642,-2.8996,-2.9446,-2.9048,-2.9783,-3.0506,-3.0506,-3.0274,-2.9926,-2.9479,-2.8969,-2.8307,-2.7431,-2.7066,-2.6699,-2.6145,-2.6096,-2.6007,-2.5807,-2.5931,-2.589,-2.5517,-2.5579,-2.5555,-2.5397,-2.5381,-2.5254,-2.5001,-2.5005,-2.5005,-2.5005,-2.5005,-2.5005,-2.5005,-2.5005,-2.5005,-2.5005,-2.5005,-2.5005,-2.5447,-2.5736,-2.6135,-2.6433,0.0,0.0,-3.0915,-3.2996,-3.4595,-3.5218,0.0,0.0,0.0,0.0,0.0,0.0,0.0,0.0,0.0,0.0,0.0,0.0,0.0,0.0,0.0,0.0,0.0,0.0,0.0,0.0,0.0,0.0,0.0,0.0,-3.5361,-3.5155,-3.4887,-3.4837,-3.4571,-3.4074,-3.3833,-3.375,-3.3728,-3.3395,-3.2902,-3.2311,-3.2311,-3.1961,-3.1378,-3.114,-3.1029,-3.1029,-3.1029,-3.1164,-3.1365,-3.1263,-3.1399,-3.1564,-3.1161,-3.1211,-3.1397,-3.1107,-3.0835,-3.0618,-3.0618,-3.0056,-2.9409,-2.9409,-2.9029,-2.8726,-2.9282,-2.9238,-2.8979,-2.8578,-2.8911,-2.935,-2.9448,-3.0106,-3.063,-3.0526,-3.0506,-3.034,-2.9827,-2.9546,-2.9003,-2.7812,-2.7466,-2.7033,-2.6285,-2.6202,-2.615,-2.6007,-2.604,-2.5846,-2.5233,-2.5473,-2.5492,-2.5037,-2.5005,-2.5005,-2.5005,-2.5005,-2.5005,-2.5005,-2.5005,-2.5005,-2.5005,-2.5005,-2.5005,-2.5005,-2.5005,-2.5005,-2.5288,-2.5192,-2.5294,0.0,0.0,0.0,-3.0741,-3.1719,-3.2997,0.0,0.0,0.0,0.0,0.0,0.0,0.0,0.0,0.0,0.0,0.0,0.0,0.0,0.0,0.0,0.0,0.0,0.0,0.0,0.0,0.0,0.0,0.0,0.0,0.0,-3.5481,-3.5064,-3.4205,-3.4186,-3.3628,-3.2507,-3.2488,-3.2804,-3.3359,-3.2422,-3.1872,-3.1693,-3.1693,-3.1565,-3.1323,-3.0522,-3.0191,-3.0191,-3.0191,-3.0632,-3.1283,-3.1283,-3.0682,-3.002,-3.0797,-3.0521,-2.9929,-3.0726,-3.0437,-2.9784,-2.9784,-2.9228,-2.86,-2.86,-2.86,-2.86,-2.86,-2.8497,-2.851,-2.8982,-2.9455,-2.9882,-3.0222,-3.0671,-3.0915,-3.0568,-3.0506,-3.0506,-3.0506,-2.9877,-2.9185,-2.8508,-2.7779,-2.705,-2.6303,-2.6202,-2.6202,-2.6202,-2.5844,-2.5605,-2.5605,-2.5224,-2.5005,-2.5005,-2.5005,-2.5005,-2.5005,-2.5005,-2.5005,-2.5005,-2.5005,-2.5005,-2.5005,-2.5005,-2.5005,-2.5005,-2.5005,-2.5005,-2.4553,-2.5077,0.0,-2.61,0.0,0.0,0.0,-3.2572,0.0,0.0,0.0,0.0,0.0,0.0,0.0,0.0,0.0,0.0,0.0,0.0,0.0,0.0,0.0,0.0,0.0,0.0,0.0,0.0,0.0,0.0,0.0,0.0,0.0,0.0,-3.368,-3.3545,-3.3295,-3.3295,-3.31,-3.2706,-3.2091,-3.2001,-3.2393,-3.1982,-3.1444,-3.0858,-3.0718,-3.0287,-2.9684,-2.9445,-2.9354,-2.9354,-2.9354,-2.9489,-2.9685,-2.9631,-2.9771,-2.9921,-2.9537,-2.9582,-2.9748,-2.9427,-2.9143,-2.8962,-2.8962,-2.8781,-2.86,-2.86,-2.86,-2.86,-2.86,-2.8574,-2.8696,-2.9295,-2.9745,-3.0097,-3.0437,-3.0882,-3.1078,-3.0593,-3.0506,-3.0506,-3.0506,-3.0307,-2.9781,-2.8575,-2.821,-2.763,-2.6369,-2.6202,-2.615,-2.6007,-2.5749,-2.5543,-2.5394,-2.5143,-2.5005,-2.5005,-2.5005,-2.5005,-2.5005,-2.5005,-2.5005,-2.5005,-2.5005,-2.5005,-2.5005,-2.5005,-2.5005,-2.5005,-2.5005,-2.5005,-2.4796,-2.5424,0.0,-2.6846,-2.8599,-3.0565,-3.2029,0.0,0.0,0.0,0.0,0.0,0.0,0.0,0.0,0.0,0.0,0.0,0.0,0.0,0.0,0.0,0.0,0.0,0.0,0.0,0.0,0.0,0.0,0.0,0.0,0.0,0.0,0.0,-3.2891,-3.2756,-3.2429,-3.243,-3.2225,-3.1808,-3.1276,-3.1127,-3.1277,-3.1072,-3.063,-3.0015,-2.9807,-2.9445,-2.9005,-2.9005,-2.9005,-2.9005,-2.9005,-2.8975,-2.897,-2.8917,-2.915,-2.9435,-2.8882,-2.8996,-2.9285,-2.8775,-2.86,-2.86,-2.86,-2.86,-2.86,-2.86,-2.86,-2.86,-2.86,-2.86,-2.8833,-2.98,-3.018,-3.0488,-3.0994,-3.1292,-3.1278,-3.0695,-3.0547,-3.0506,-3.0506,-3.0257,-2.9678,-2.8575,-2.7912,-2.7197,-2.6301,-2.6202,-2.615,-2.6025,-2.5842,-2.5675,-2.5562,-2.5278,-2.5103,-2.5103,-2.5045,-2.5005,-2.5005,-2.5005,-2.5005,-2.5005,-2.5005,-2.5005,-2.5005,-2.5005,-2.5005,-2.5005,-2.5005,-2.5005,-2.5475,0.0,0.0,-2.8003,-2.973,0.0,-3.3963,0.0,0.0,0.0,0.0,0.0,0.0,0.0,0.0,0.0,0.0,0.0,0.0,0.0,0.0,0.0,0.0,0.0,0.0,0.0,0.0,0.0,0.0,0.0,0.0,0.0,0.0,0.0,-3.2679,-3.2314,-3.1583,-3.1583,-3.1142,0.0,-3.0311,-3.026,-3.0168,-2.9969,-2.9653,-2.9251,-2.9089,-2.9005,-2.9005,-2.9005,-2.9005,-2.9005,-2.9005,-2.8952,-2.8917,-2.8917,-2.887,-2.8798,-2.8718,-2.8724,-2.8682,-2.8625,-2.86,-2.86,-2.86,-2.86,-2.86,-2.86,-2.86,-2.86,-2.86,-2.86,-2.8941,-3.0304,-3.0618,-3.0841,-3.1585,-3.1669,-3.1359,-3.0677,-3.0451,-3.0352,-3.0328,-2.9744,-2.9085,-2.8409,-2.7098,-2.6202,-2.6202,-2.6202,-2.6202,-2.6202,-2.6007,-2.5897,-2.5897,-2.5562,-2.5314,-2.5294,-2.5139,-2.5025,-2.5005,-2.5005,-2.5005,-2.5005,-2.5005,-2.5005,-2.5005,-2.5005,-2.5005,-2.5005,-2.5005,-2.5005,-2.4074,-2.5046,0.0,0.0,-3.0124,-3.2161,-3.3381,0.0,0.0,0.0,0.0,0.0,0.0,0.0,0.0,0.0,0.0,0.0,0.0,0.0,0.0,0.0,0.0,0.0,0.0,0.0,0.0,0.0,0.0,0.0,0.0,0.0,0.0,-3.0942,-3.0942,-3.0846,-3.0673,-3.0673,-3.0546,0.0,-3.0311,-3.0174,-2.995,-2.9758,-2.9445,-2.9067,-2.9028,-2.9005,-2.9005,-2.9005,-2.9005,-2.9005,-2.9005,-2.8994,-2.8982,-2.8982,-2.8929,-2.887,-2.8798,-2.8731,-2.8682,-2.8625,-2.86,-2.86,-2.86,-2.86,-2.86,-2.86,-2.86,-2.86,-2.86,-2.86,-2.884,-2.9768,-2.9985,-3.0102,-3.0548,-3.0617,-3.0358,-2.9529,-2.9343,-2.9229,-2.8915,-2.8724,-2.8376,-2.7647,-2.6766,-2.6202,-2.6202,-2.6202,-2.6202,-2.6202,-2.6007,-2.5897,-2.5897,-2.5677,-2.547,-2.5314,-2.5256,-2.5162,-2.5005,-2.5005,-2.5005,-2.5005,-2.5005,-2.5005,-2.5005,-2.5005,-2.5005,-2.5005,-2.5005,-2.5005,-2.3971,0.0,0.0,-2.9008,0.0,0.0,0.0,0.0,0.0,0.0,0.0,0.0,0.0,0.0,0.0,0.0,0.0,0.0,0.0,0.0,0.0,0.0,0.0,0.0,0.0,0.0,0.0,0.0,0.0,0.0,0.0,-3.0299,-3.0404,-3.0404,-3.0404,-3.0404,-3.0404,-3.0404,-3.0379,-3.0342,-3.0311,-3.0155,-2.9896,-2.9697,-2.9435,-2.9149,-2.9149,-2.91,-2.9005,-2.9005,-2.9005,-2.9005,-2.9005,-2.9005,-2.9005,-2.9005,-2.8982,-2.894,-2.887,-2.881,-2.8749,-2.8675,-2.8625,-2.86,-2.86,-2.86,-2.86,-2.86,-2.86,-2.86,-2.86,-2.86,-2.8708,-2.9137,-2.9518,-2.9909,-3.0318,-3.0356,-3.009,-2.9386,-2.9124,-2.889,-2.859,-2.8173,-2.7613,-2.6866,-2.6452,-2.6202,-2.6202,-2.6202,-2.6202,-2.6202,-2.6114,-2.6007,-2.5915,-2.5715,-2.5511,-2.5314,-2.5217,-2.5103,-2.5005,-2.5005,-2.5005,-2.5005,-2.5005,-2.5005,-2.5005,-2.5005,-2.5005,-2.5005,-2.5005,-2.5005,-2.399,0.0,-2.7642,-2.9932,-3.0643,0.0,0.0,0.0,0.0,0.0,0.0,0.0,0.0,0.0,0.0,0.0,0.0,0.0,0.0,0.0,0.0,0.0,0.0,0.0,0.0,0.0,0.0,0.0,0.0,0.0,-3.0143,-3.0311,-3.0404,-3.0404,-3.0404,-3.0404,-3.0404,-3.0404,-3.0404,-3.0404,-3.0329,-3.0182,-2.9943,-2.9775,-2.9561,-2.9355,-2.9355,-2.9259,-2.9093,-2.9093,-2.9089,-2.9055,-2.9055,-2.9021,-2.9005,-2.9005,-2.9005,-2.8994,-2.8929,-2.8858,-2.8785,-2.8706,-2.8644,-2.86,-2.86,-2.86,-2.86,-2.86,-2.86,-2.86,-2.86,-2.86,-2.86,-2.86,-2.9119,-2.9705,-3.0095,-3.0024,-2.9763,-2.924,-2.8801,-2.8464,-2.83,-2.7629,-2.6868,-2.612,-2.6119,-2.6152,-2.602,-2.6119,-2.6202,-2.6202,-2.6202,-2.6132,-2.597,-2.5807,-2.5602,-2.5371,-2.5197,-2.5064,-2.5005,-2.5005,-2.5005,-2.5005,-2.5005,-2.5005,-2.5005,-2.5005,-2.5005,-2.5005,-2.5005,-2.5005,0.0,0.0,-2.7521,0.0,-3.0193,0.0,0.0,0.0,0.0,0.0,0.0,0.0,0.0,0.0,0.0,0.0,0.0,0.0,0.0,0.0,0.0,0.0,0.0,0.0,0.0,0.0,0.0,0.0,0.0,0.0,-3.0361,-3.0392,-3.0404,-3.0404,-3.0404,-3.0404,-3.0404,-3.0404,-3.0404,-3.0404,-3.0324,-3.0247,-3.0161,-3.013,-2.9921,-2.9561,-2.9561,-2.9551,-2.9523,-2.9523,-2.9415,-2.9251,-2.9251,-2.916,-2.9005,-2.9005,-2.9005,-2.8994,-2.8929,-2.8858,-2.8785,-2.8706,-2.8644,-2.86,-2.86,-2.86,-2.86,-2.86,-2.86,-2.86,-2.86,-2.86,-2.86,-2.86,-2.869,-2.8786,-2.8838,-2.8569,-2.8169,-2.7768,-2.708,-2.6557,-2.6539,-2.6437,-2.6104,-2.5359,-2.5788,-2.597,-2.5325,-2.5788,-2.6202,-2.6202,-2.6202,-2.6185,-2.615,-2.6132,-2.5968,-2.5578,-2.554,-2.5352,-2.5005,-2.5005,-2.5005,-2.5005,-2.5005,-2.5005,-2.5005,-2.5005,-2.5005,-2.5005,-2.5005,-2.5005,-2.3262,-2.452,-2.6143,0.0,0.0,0.0,0.0,0.0,0.0,0.0,0.0,0.0,0.0,0.0,0.0,0.0,0.0,0.0,0.0,0.0,0.0,0.0,0.0,0.0,0.0,0.0,0.0,0.0,0.0,-3.0404,-3.0404,-3.0404,-3.0404,-3.0404,-3.0404,-3.0173,-2.9679,-3.0154,-3.0404,-3.0404,-3.0323,-3.028,-3.0241,-3.0226,-3.0038,-2.9779,-2.9779,-2.9698,-2.9598,-2.9484,-2.9385,-2.9283,-2.9192,-2.9089,-2.9005,-2.9005,-2.9005,-2.8994,-2.8929,-2.8858,-2.8785,-2.8706,-2.8644,-2.86,-2.86,-2.86,-2.86,-2.86,-2.86,-2.86,-2.86,-2.86,-2.86,-2.86,-2.86,-2.86,-2.86,-2.8453,-2.8192,-2.7728,-2.7101,-2.6589,-2.645,-2.6292,-2.6086,-2.5773,-2.564,-2.5606,-2.5689,-2.564,-2.5739,-2.6152,-2.6202,-2.615,-2.6025,-2.6025,-2.5915,-2.5619,-2.5486,-2.5352,-2.5178,-2.5045,-2.5005,-2.5005,-2.5005,-2.5005,-2.5005,-2.5005,-2.5005,-2.5005,-2.5005,-2.5005,0.0,0.0,-2.471,0.0,0.0,0.0,0.0,0.0,0.0,0.0,0.0,0.0,0.0,0.0,0.0,0.0,0.0,0.0,0.0,0.0,0.0,0.0,0.0,0.0,0.0,0.0,0.0,0.0,0.0,-3.0404,-3.0404,-3.0192,-3.0077,-3.0077,-3.0077,-2.966,-2.88,-2.9448,-2.9865,-3.0077,-3.0015,-3.01,-3.0305,-3.0234,-3.0118,-2.9977,-2.9988,-2.9897,-2.9742,-2.9542,-2.9425,-2.9355,-2.916,-2.9044,-2.9005,-2.9005,-2.9005,-2.8994,-2.8929,-2.8858,-2.8785,-2.8706,-2.8644,-2.86,-2.86,-2.86,-2.86,-2.86,-2.86,-2.86,-2.86,-2.86,-2.86,-2.86,-2.86,-2.8574,-2.8466,-2.8453,-2.8291,-2.7742,-2.7322,-2.6973,-2.6725,-2.6468,-2.6159,-2.5811,-2.5376,-2.5176,-2.5342,-2.5044,-2.5027,-2.5573,-2.564,-2.567,-2.5693,-2.5691,-2.5701,-2.568,-2.5489,-2.5336,-2.5294,-2.5119,-2.5005,-2.5005,-2.5005,-2.5005,-2.5005,-2.5005,-2.5005,-2.5005,-2.5005,-2.5005,0.0,-2.2876,0.0,0.0,0.0,0.0,0.0,0.0,0.0,0.0,0.0,0.0,0.0,0.0,0.0,0.0,0.0,0.0,0.0,0.0,0.0,0.0,0.0,0.0,0.0,0.0,0.0,0.0,0.0,-3.0404,-3.0404,-2.9621,-2.9165,-2.9165,-2.9165,-2.878,-2.7972,-2.8011,-2.8415,-2.9165,-2.9169,-2.9555,-3.0304,-3.0228,-3.0188,-3.0174,-3.0185,-3.0171,-3.015,-2.9945,-2.977,-2.9551,-2.9365,-2.9181,-2.9005,-2.9005,-2.9005,-2.8994,-2.8929,-2.8858,-2.8785,-2.8706,-2.8644,-2.86,-2.86,-2.86,-2.86,-2.86,-2.86,-2.86,-2.86,-2.86,-2.86,-2.86,-2.86,-2.851,-2.8124,-2.8024,-2.7869,-2.7338,-2.7213,-2.7133,-2.7006,-2.6759,-2.6101,-2.4688,-2.4846,-2.4613,-2.3238,-2.3653,-2.4067,-2.4116,-2.4116,-2.4381,-2.5076,-2.5143,-2.5337,-2.5848,-2.5696,-2.5508,-2.5314,-2.5119,-2.5005,-2.5005,-2.5005,-2.5005,-2.5005,-2.5005,-2.5005,-2.5005,-2.5005,-2.5005,0.0,0.0,0.0,0.0,0.0,0.0,0.0,0.0,0.0,0.0,0.0,0.0,0.0,0.0,0.0,0.0,0.0,0.0,0.0,0.0,0.0,0.0,0.0,0.0,0.0,0.0,0.0,0.0,0.0,0.0,-2.9468,-2.9149,-2.8765,-2.8332,-2.8338,-2.8184,-2.7895,-2.7351,-2.7486,-2.8338,-2.8321,-2.8458,-2.8704,-2.9256,-2.9162,-2.8658,-2.9722,-3.0206,-3.0178,-2.9988,-2.9769,-2.9589,-2.9385,-2.9192,-2.9005,-2.9005,-2.9005,-2.8994,-2.8929,-2.8858,-2.8785,-2.8706,-2.8644,-2.86,-2.86,-2.86,-2.86,-2.86,-2.86,-2.86,-2.86,-2.86,-2.86,-2.86,-2.86,-2.8562,-2.8427,-2.8322,-2.8169,-2.7904,-2.7624,-2.7415,-2.7277,-2.7022,-2.6688,-2.6144,-2.5809,-2.5527,-2.5296,-2.5096,-2.508,-2.5376,-2.5407,-2.5507,-2.5772,-2.5805,-2.5833,-2.5899,-2.5715,-2.5508,-2.5314,-2.5119,-2.5005,-2.5005,-2.5005,-2.5005,-2.5005,-2.5005,-2.5005,-2.5005,-2.5005,-2.5005,-2.3156,0.0,0.0,0.0,0.0,0.0,0.0,0.0,0.0,0.0,0.0,0.0,0.0,0.0,0.0,0.0,0.0,0.0,0.0,0.0,0.0,0.0,0.0,0.0,0.0,0.0,0.0,0.0,0.0,0.0,-2.8949,-2.8689,-2.8222,-2.7486,-2.7178,-2.7178,-2.7467,-2.6601,-2.6601,-2.7467,-2.7462,-2.758,-2.7821,-2.838,-2.8292,-2.7765,-2.8881,-2.9518,-2.977,-2.9855,-2.9769,-2.9589,-2.9385,-2.9192,-2.9005,-2.9005,-2.9005,-2.8994,-2.8929,-2.8858,-2.8785,-2.8706,-2.8644,-2.86,-2.86,-2.86,-2.86,-2.86,-2.86,-2.86,-2.86,-2.86,-2.86,-2.86,-2.86,-2.86,-2.86,-2.8523,-2.8419,-2.83,-2.8063,-2.7803,-2.7615,-2.7386,-2.7095,-2.6808,-2.6187,-2.5791,-2.5849,-2.5363,-2.5113,-2.5426,-2.5457,-2.5574,-2.5805,-2.5821,-2.5867,-2.599,-2.5807,-2.564,-2.5505,-2.524,-2.51,-2.51,-2.5025,-2.5005,-2.5005,-2.5005,-2.5005,-2.5005,-2.5005,-2.5005,0.0,0.0,0.0,0.0,0.0,0.0,0.0,0.0,0.0,0.0,0.0,0.0,0.0,0.0,0.0,0.0,0.0,0.0,0.0,0.0,0.0,0.0,0.0,0.0,0.0,0.0,0.0,0.0,0.0,-2.9655,-2.8866,-2.8182,-2.7448,-2.6582,-2.5731,-2.5712,-2.6544,-2.5712,-2.5712,-2.6563,-2.6556,-2.6968,-2.7717,-2.7698,-2.7643,-2.7624,-2.7682,-2.8134,-2.8885,-2.9589,-2.9758,-2.9589,-2.9385,-2.9174,-2.9005,-2.9005,-2.9005,-2.8994,-2.8929,-2.8858,-2.8785,-2.8718,-2.8662,-2.86,-2.86,-2.86,-2.86,-2.86,-2.86,-2.86,-2.86,-2.86,-2.86,-2.86,-2.86,-2.86,-2.86,-2.86,-2.8562,-2.8406,-2.838,-2.83,-2.8042,-2.7777,-2.7322,-2.6477,-2.5914,-2.5308,-2.4566,-2.4245,-2.4083,-2.4067,-2.4067,-2.4348,-2.5077,-2.5143,-2.5441,-2.6152,-2.6007,-2.5897,-2.5881,-2.5524,-2.5314,-2.5294,-2.5119,-2.5005,-2.5005,-2.5005,-2.5005,-2.5005,-2.5005,-2.5005,-2.2369,0.0,0.0,0.0,0.0,0.0,0.0,0.0,0.0,0.0,0.0,0.0,0.0,0.0,0.0,0.0,0.0,0.0,0.0,0.0,0.0,0.0,0.0,0.0,0.0,0.0,0.0,0.0,-2.7848,-2.7611,-2.6916,-2.6328,-2.5904,-2.5673,-2.5423,-2.5423,-2.5654,-2.5423,-2.5423,-2.5654,-2.5668,-2.5787,-2.6002,-2.6625,-2.6535,-2.5958,-2.7171,-2.7478,-2.7198,-2.8602,-2.9336,-2.9598,-2.9542,-2.9312,-2.9005,-2.9005,-2.9005,-2.8994,-2.8982,-2.8929,-2.887,-2.8798,-2.8737,-2.8657,-2.8612,-2.86,-2.86,-2.86,-2.86,-2.86,-2.86,-2.86,-2.86,-2.86,-2.86,-2.86,-2.86,-2.86,-2.8536,-2.83,-2.8259,-2.8146,-2.785,-2.7716,-2.7587,-2.7347,-2.7193,-2.6893,-2.6359,-2.623,-2.6017,-2.5625,-2.559,-2.5672,-2.5871,-2.5887,-2.5917,-2.5972,-2.5934,-2.5842,-2.5675,-2.5581,-2.5451,-2.5294,-2.5256,-2.5158,-2.5005,-2.5005,-2.5005,-2.5005,-2.5005,-2.5005,0.0,0.0,0.0,0.0,0.0,0.0,0.0,-2.2571,0.0,0.0,0.0,0.0,0.0,0.0,0.0,0.0,0.0,0.0,0.0,0.0,0.0,0.0,0.0,0.0,0.0,0.0,0.0,-2.6907,-2.7105,-2.6964,-2.6346,-2.5672,-2.5308,-2.5308,-2.5308,-2.5308,-2.5308,-2.5308,-2.5308,-2.5308,-2.5298,-2.5302,-2.533,-2.5808,-2.5724,-2.525,-2.6234,-2.656,-2.6479,-2.7447,-2.8388,-2.9161,-2.9081,-2.9097,-2.9115,-2.9021,-2.9005,-2.9005,-2.9005,-2.897,-2.8893,-2.8822,-2.8761,-2.87,-2.8625,-2.86,-2.86,-2.86,-2.86,-2.86,-2.86,-2.86,-2.86,-2.86,-2.86,-2.86,-2.86,-2.86,-2.8536,-2.8327,-2.8286,-2.8191,-2.7879,-2.7836,-2.7806,-2.7716,-2.7627,-2.7478,-2.7198,-2.707,-2.6842,-2.6415,-2.6363,-2.631,-2.6203,-2.6202,-2.615,-2.6025,-2.6041,-2.597,-2.5858,-2.5694,-2.5527,-2.5429,-2.5256,-2.5103,-2.5005,-2.5005,-2.5005,-2.5005,-2.5005,-2.5005,-2.3859,-2.3294,0.0,0.0,0.0,0.0,-2.2794,-2.2386,0.0,0.0,0.0,0.0,0.0,0.0,0.0,0.0,0.0,0.0,0.0,0.0,0.0,0.0,0.0,0.0,0.0,-2.6628,-2.6628,-2.6628,-2.6941,-2.6923,-2.6455,-2.5707,-2.5308,-2.5308,-2.5308,-2.5308,-2.5308,-2.5308,-2.5308,-2.5308,-2.5302,-2.5292,-2.5306,-2.5245,-2.5217,-2.5193,-2.5208,-2.5612,-2.6275,-2.6275,-2.7132,-2.8452,-2.8372,-2.8662,-2.9161,-2.9056,-2.9028,-2.9005,-2.9005,-2.8952,-2.8905,-2.8834,-2.8773,-2.8694,-2.8637,-2.86,-2.86,-2.86,-2.86,-2.86,-2.86,-2.86,-2.86,-2.86,-2.86,-2.86,-2.86,-2.86,-2.8562,-2.8437,-2.838,-2.8304,-2.8039,-2.7968,-2.7911,-2.773,-2.7554,-2.7434,-2.7404,-2.7182,-2.694,-2.6674,-2.664,-2.6537,-2.631,-2.6257,-2.6239,-2.6239,-2.622,-2.6202,-2.6202,-2.584,-2.5635,-2.5597,-2.5201,-2.5005,-2.5005,-2.5005,-2.5005,-2.5005,-2.5005,-2.5005,-2.263,-2.2744,-2.2683,-2.1551,0.0,0.0,-2.1384,-2.1142,0.0,0.0,0.0,0.0,0.0,0.0,0.0,0.0,0.0,0.0,0.0,0.0,0.0,0.0,0.0,0.0,0.0,-2.4964,-2.4964,-2.4964,-2.5228,-2.5399,-2.5386,-2.532,-2.5308,-2.5308,-2.5308,-2.5308,-2.5308,-2.5308,-2.5308,-2.5308,-2.5303,-2.5307,-2.5311,-2.5301,-2.525,-2.5193,-2.5206,-2.5285,-2.544,-2.544,-2.6301,-2.7684,-2.8296,-2.8416,-2.8332,-2.8989,-2.9138,-2.9005,-2.9005,-2.8994,-2.8964,-2.8905,-2.8834,-2.8761,-2.8694,-2.865,-2.86,-2.86,-2.86,-2.86,-2.86,-2.86,-2.86,-2.86,-2.86,-2.86,-2.86,-2.86,-2.8562,-2.8437,-2.8313,-2.8191,-2.8025,-2.7864,-2.7745,-2.7716,-2.7672,-2.7567,-2.7419,-2.7357,-2.7231,-2.694,-2.6908,-2.6891,-2.6842,-2.6657,-2.652,-2.652,-2.631,-2.6202,-2.6202,-2.597,-2.5768,-2.5602,-2.5201,-2.5005,-2.5005,-2.5005,-2.5005,-2.5005,-2.5005,-2.5005,-2.3316,-2.3229,-2.3017,-2.22,0.0,0.0,0.0,0.0,-2.2219,0.0,0.0,0.0,0.0,0.0,0.0,0.0,0.0,0.0,0.0,0.0,0.0,0.0,0.0,0.0,0.0,-2.45,-2.4534,-2.4599,-2.4794,-2.4968,-2.5084,-2.5233,-2.5308,-2.5308,-2.5308,-2.5308,-2.5308,-2.5308,-2.5308,-2.5308,-2.5308,-2.5298,-2.5307,-2.5297,-2.5276,-2.525,-2.5204,-2.5206,-2.5189,-2.5197,-2.564,-2.6363,-2.7088,-2.7422,-2.7597,-2.792,-2.7951,-2.7849,-2.8264,-2.8143,-2.793,-2.8625,-2.856,-2.8257,-2.856,-2.8625,-2.86,-2.86,-2.86,-2.86,-2.86,-2.86,-2.86,-2.86,-2.86,-2.86,-2.86,-2.86,-2.8574,-2.851,-2.8393,-2.8232,-2.8025,-2.7925,-2.7821,-2.7716,-2.7701,-2.7672,-2.7569,-2.7554,-2.7417,-2.7038,-2.7006,-2.6891,-2.6623,-2.6486,-2.6398,-2.6398,-2.6274,-2.6202,-2.6202,-2.6007,-2.5807,-2.5605,-2.5298,-2.5158,-2.5158,-2.5045,-2.5005,-2.5005,-2.5005,-2.5005,0.0,0.0,0.0,0.0,0.0,-2.3378,0.0,0.0,0.0,-2.3915,0.0,0.0,0.0,0.0,0.0,0.0,0.0,0.0,0.0,0.0,0.0,0.0,0.0,0.0,0.0,-2.4351,-2.4364,-2.4653,-2.4672,-2.479,-2.5049,-2.5203,-2.5308,-2.5308,-2.5308,-2.5308,-2.5308,-2.5308,-2.5308,-2.5308,-2.5308,-2.5308,-2.5303,-2.5307,-2.5292,-2.5306,-2.522,-2.5198,-2.5193,-2.5203,-2.5191,-2.5256,-2.5911,-2.6469,-2.6894,-2.6879,-2.6754,-2.6738,-2.7328,-2.7134,-2.6771,-2.7939,-2.7996,-2.7705,-2.8384,-2.86,-2.86,-2.86,-2.86,-2.86,-2.86,-2.86,-2.86,-2.86,-2.86,-2.86,-2.86,-2.86,-2.86,-2.86,-2.851,-2.8353,-2.8109,-2.8025,-2.794,-2.7774,-2.773,-2.7701,-2.7701,-2.7701,-2.7552,-2.7119,-2.707,-2.6875,-2.6399,-2.631,-2.6291,-2.6291,-2.6238,-2.6202,-2.6202,-2.6007,-2.5807,-2.5605,-2.5432,-2.5355,-2.5355,-2.5158,-2.5025,-2.5005,-2.5005,-2.5005,0.0,0.0,0.0,0.0,-2.3776,0.0,0.0,0.0,-2.3036,-2.2404,0.0,0.0,0.0,0.0,0.0,0.0,0.0,0.0,0.0,0.0,0.0,0.0,0.0,0.0,0.0,0.0,-2.3665,-2.4451,-2.4094,-2.4151,-2.4872,-2.5154,-2.5308,-2.5308,-2.5308,-2.5308,-2.5308,-2.5308,-2.5308,-2.5308,-2.5308,-2.5308,-2.5308,-2.5303,-2.5293,-2.5306,-2.5241,-2.5195,-2.5193,-2.5203,-2.5191,-2.5287,-2.6059,-2.6299,-2.6273,-2.6864,-2.6944,-2.6773,-2.6678,-2.6592,-2.6527,-2.6637,-2.7043,-2.764,-2.8371,-2.86,-2.86,-2.86,-2.86,-2.86,-2.86,-2.86,-2.86,-2.86,-2.86,-2.86,-2.86,-2.86,-2.86,-2.86,-2.8587,-2.8523,-2.8367,-2.8168,-2.7982,-2.7968,-2.7821,-2.7701,-2.7701,-2.7701,-2.7612,-2.7388,-2.7357,-2.723,-2.6924,-2.6691,-2.6537,-2.6537,-2.6328,-2.6202,-2.6202,-2.6007,-2.5807,-2.5605,-2.5567,-2.5584,-2.5584,-2.5355,-2.5162,-2.5005,-2.5005,-2.5005,0.0,0.0,0.0,0.0,0.0,0.0,-2.2874,0.0,-2.324,0.0,0.0,0.0,0.0,0.0,0.0,0.0,0.0,0.0,0.0,0.0,0.0,0.0,0.0,0.0,0.0,0.0,0.0,0.0,0.0,-2.4011,-2.4845,-2.5086,-2.5228,-2.5303,-2.5308,-2.5308,-2.5308,-2.5308,-2.5308,-2.5308,-2.5308,-2.5308,-2.5308,-2.5308,-2.5303,-2.5307,-2.5228,-2.5206,-2.5185,-2.5069,-2.5032,-2.5044,-2.53,-2.5354,-2.5314,-2.5462,-2.543,-2.5354,-2.5723,-2.5533,-2.5163,-2.5524,-2.615,-2.6891,-2.7671,-2.7894,-2.8002,-2.8473,-2.86,-2.86,-2.86,-2.86,-2.86,-2.86,-2.86,-2.86,-2.86,-2.86,-2.86,-2.86,-2.86,-2.8574,-2.8541,-2.83,-2.8095,-2.7996,-2.7836,-2.7701,-2.7701,-2.7701,-2.7612,-2.7419,-2.7404,-2.7294,-2.7022,-2.6908,-2.6825,-2.6825,-2.6589,-2.6433,-2.6433,-2.6187,-2.6025,-2.5952,-2.5826,-2.577,-2.577,-2.5565,-2.5432,-2.5339,-2.5103,-2.5005,-2.4637,0.0,0.0,0.0,0.0,0.0,0.0,0.0,0.0,0.0,0.0,0.0,0.0,0.0,0.0,0.0,0.0,0.0,0.0,0.0,0.0,0.0,0.0,0.0,0.0,0.0,0.0,0.0,0.0,0.0,-2.4845,-2.5049,-2.5192,-2.5303,-2.5308,-2.5308,-2.5308,-2.5308,-2.5308,-2.5308,-2.5308,-2.5308,-2.5308,-2.5308,-2.5308,-2.5303,-2.5243,-2.5222,-2.5212,-2.5006,-2.4934,-2.4921,-2.4704,-2.4618,-2.4602,-2.4441,-2.4347,-2.4321,-2.486,-2.4618,-2.4192,-2.4891,-2.5463,-2.61,-2.7091,-2.7405,-2.7568,-2.8382,-2.86,-2.86,-2.86,-2.86,-2.86,-2.86,-2.86,-2.86,-2.86,-2.86,-2.86,-2.86,-2.86,-2.8587,-2.8549,-2.8349,-2.8178,-2.8067,-2.785,-2.7701,-2.7701,-2.7701,-2.7612,-2.7419,-2.7404,-2.7294,-2.7022,-2.7006,-2.7006,-2.7006,-2.6742,-2.6589,-2.6589,-2.6345,-2.6202,-2.6202,-2.6059,-2.5989,-2.5989,-2.5789,-2.568,-2.5661,-2.5336,-2.5146,0.0,0.0,0.0,-2.3649,0.0,0.0,0.0,0.0,-2.3191,0.0,0.0,0.0,0.0,0.0,0.0,0.0,0.0,0.0,0.0,0.0,0.0,0.0,0.0,0.0,0.0,0.0,0.0,0.0,0.0,0.0,-2.4814,-2.5143,-2.5303,-2.5308,-2.5308,-2.5308,-2.5308,-2.5308,-2.5308,-2.5308,-2.5308,-2.5308,-2.5308,-2.5308,-2.5308,-2.5303,-2.5302,-2.5306,-2.5276,-2.5075,-2.4993,-2.496,-2.4556,-2.4407,-2.4407,-2.4398,-2.4398,-2.4373,-2.4209,-2.4082,-2.4124,-2.4852,-2.5132,-2.5419,-2.694,-2.7405,-2.7568,-2.8382,-2.86,-2.86,-2.86,-2.86,-2.86,-2.86,-2.86,-2.86,-2.86,-2.86,-2.86,-2.86,-2.86,-2.8562,-2.8437,-2.8286,-2.8201,-2.8187,-2.7904,-2.7701,-2.7701,-2.7701,-2.7612,-2.7419,-2.7404,-2.7294,-2.7022,-2.7006,-2.7006,-2.7006,-2.6742,-2.6589,-2.6589,-2.6345,-2.6202,-2.6202,-2.6185,-2.6185,-2.6185,-2.5989,-2.5881,-2.5897,-2.5677,-2.5586,0.0,0.0,-2.4803,-2.3845,0.0,0.0,0.0,0.0,0.0,0.0,0.0,0.0,0.0,0.0,0.0,0.0,0.0,0.0,0.0,0.0,0.0,0.0,0.0,0.0,0.0,0.0,0.0,0.0,0.0,0.0,0.0,-2.508,-2.5217,-2.5303,-2.5308,-2.5308,-2.5308,-2.5308,-2.5308,-2.5308,-2.5308,-2.5308,-2.5308,-2.5308,-2.5308,-2.5303,-2.5302,-2.5311,-2.5271,-2.4935,-2.4804,-2.4768,-2.4409,-2.4275,-2.4275,-2.4275,-2.4275,-2.4238,-2.4142,-2.4084,-2.4101,-2.4314,-2.4346,-2.4605,-2.6189,-2.6644,-2.688,-2.8219,-2.86,-2.86,-2.86,-2.86,-2.86,-2.86,-2.86,-2.86,-2.86,-2.86,-2.86,-2.86,-2.86,-2.8587,-2.8536,-2.8419,-2.8273,-2.8095,-2.7864,-2.7701,-2.7701,-2.7701,-2.7672,-2.7615,-2.7615,-2.7552,-2.7476,-2.7459,-2.74,-2.7261,-2.7006,-2.6792,-2.6623,-2.6345,-2.6202,-2.6202,-2.6202,-2.6202,-2.6202,-2.6132,-2.6096,-2.6096,-2.6041,-2.5844,-2.5019,-2.5024,0.0,-2.3966,-2.3334,0.0,-2.2507,0.0,0.0,0.0,0.0,0.0,0.0,0.0,0.0,0.0,0.0,0.0,0.0,0.0,0.0,0.0,0.0,0.0,0.0,0.0,-2.0944,-2.2245,0.0,0.0,0.0,0.0,-2.5203,-2.5303,-2.5308,-2.5308,-2.5308,-2.5308,-2.5308,-2.5308,-2.5308,-2.5308,-2.5308,-2.5308,-2.5308,-2.5303,-2.5307,-2.5302,-2.5268,-2.4936,-2.4802,-2.4771,-2.4435,-2.4294,-2.4275,-2.4218,-2.419,-2.419,-2.4151,-2.4141,-2.4113,-2.4064,-2.4006,-2.4202,-2.5477,-2.6043,-2.6517,-2.7815,-2.8382,-2.86,-2.86,-2.86,-2.86,-2.86,-2.86,-2.86,-2.86,-2.86,-2.86,-2.86,-2.86,-2.8574,-2.8536,-2.8463,-2.8327,-2.8109,-2.7922,-2.7774,-2.7716,-2.7701,-2.7701,-2.7701,-2.7701,-2.7701,-2.7701,-2.7701,-2.7642,-2.7509,-2.7277,-2.7054,-2.6892,-2.664,-2.6434,-2.6345,-2.6345,-2.6292,-2.6202,-2.6202,-2.6202,-2.6202,-2.6202,-2.6059]},{"header":{"parameterUnit":"m.s-1","parameterCategory":1,"la1":30.6,"la2":29.2853,"lo1":-89.7004,"lo2":-87.6739,"dy":0.0162,"dx":0.0183,"nx":112,"ny":82,"refTime":"2024-07-08T18:00:00:Z","depth":0,"parameterNumber":3,"parameterNumberName":"V-component_of_WINDS"},"data":[0.0,0.0,0.0,0.0,0.0,0.0,0.0,0.0,0.0,0.0,0.0,0.0,0.0,0.0,0.0,0.0,0.0,0.0,0.0,0.0,0.0,0.0,0.0,0.0,0.0,0.0,0.0,0.0,0.0,0.0,0.0,0.0,0.0,0.0,0.0,0.0,0.0,0.0,0.0,0.0,0.0,0.0,0.0,0.0,0.0,0.0,0.0,0.0,0.0,0.0,0.0,0.0,0.0,0.0,0.0,0.0,0.0,0.0,0.0,0.0,0.0,0.0,0.0,0.0,0.0,0.0,0.0,0.0,0.0,0.0,0.0,0.0,0.0,0.0,0.0,0.0,0.0,0.0,0.0,0.0,0.0,0.0,0.0,0.0,0.0,0.0,0.0,0.0,0.0,0.0,0.0,-2.0039,-2.1565,-2.2315,-2.1907,-2.2035,-2.091,-1.8023,0.0,0.0,0.0,0.0,0.0,0.0,0.0,0.0,0.0,0.0,0.0,0.0,0.0,0.0,0.0,0.0,0.0,0.0,0.0,0.0,0.0,0.0,0.0,0.0,0.0,0.0,0.0,0.0,0.0,0.0,0.0,0.0,0.0,0.0,0.0,0.0,0.0,0.0,0.0,0.0,0.0,0.0,0.0,0.0,0.0,0.0,0.0,0.0,0.0,0.0,0.0,0.0,0.0,0.0,0.0,0.0,0.0,0.0,0.0,0.0,0.0,0.0,0.0,0.0,0.0,0.0,0.0,0.0,0.0,0.0,0.0,0.0,0.0,0.0,0.0,0.0,0.0,0.0,0.0,0.0,0.0,0.0,0.0,0.0,0.0,0.0,0.0,0.0,0.0,0.0,0.0,0.0,0.0,0.0,0.0,0.0,0.0,0.0,0.0,0.0,0.0,0.0,0.0,0.0,-1.8658,-2.101,-2.2131,-2.2587,-2.2174,-2.202,-2.0956,-1.8611,0.0,0.0,0.0,0.0,0.0,0.0,0.0,0.0,0.0,0.0,0.0,0.0,0.0,0.0,0.0,0.0,0.0,0.0,0.0,0.0,0.0,0.0,0.0,0.0,0.0,0.0,0.0,0.0,0.0,0.0,0.0,0.0,0.0,0.0,0.0,0.0,0.0,0.0,0.0,0.0,0.0,0.0,0.0,0.0,0.0,0.0,0.0,0.0,0.0,0.0,0.0,0.0,0.0,0.0,0.0,0.0,0.0,0.0,0.0,0.0,0.0,0.0,0.0,0.0,0.0,0.0,0.0,0.0,0.0,0.0,0.0,0.0,0.0,0.0,0.0,0.0,0.0,0.0,0.0,0.0,0.0,0.0,0.0,0.0,0.0,0.0,0.0,0.0,0.0,0.0,0.0,0.0,0.0,0.0,0.0,0.0,0.0,0.0,0.0,0.0,0.0,0.0,0.0,-1.8249,-1.9653,-2.1516,-2.2465,-2.2795,-2.2378,-2.2087,-2.0762,-1.8125,-1.813,0.0,0.0,0.0,0.0,0.0,0.0,0.0,0.0,0.0,0.0,0.0,0.0,0.0,0.0,0.0,0.0,0.0,0.0,0.0,0.0,0.0,0.0,0.0,0.0,0.0,0.0,0.0,0.0,0.0,0.0,0.0,0.0,0.0,0.0,0.0,0.0,0.0,0.0,0.0,0.0,0.0,0.0,0.0,0.0,0.0,0.0,0.0,0.0,0.0,0.0,0.0,0.0,0.0,0.0,0.0,0.0,0.0,0.0,0.0,0.0,0.0,0.0,0.0,0.0,0.0,0.0,0.0,0.0,0.0,0.0,0.0,0.0,0.0,0.0,0.0,0.0,0.0,0.0,0.0,0.0,0.0,0.0,0.0,0.0,0.0,0.0,0.0,0.0,0.0,0.0,0.0,0.0,0.0,0.0,0.0,0.0,0.0,0.0,0.0,0.0,0.0,0.0,-1.9407,-2.0654,-2.1768,-2.2461,-2.2672,-2.2393,-2.1689,-2.0117,-1.7402,-1.7465,0.0,0.0,0.0,0.0,0.0,0.0,0.0,0.0,0.0,0.0,0.0,0.0,0.0,0.0,0.0,0.0,0.0,0.0,0.0,0.0,0.0,0.0,0.0,0.0,0.0,0.0,0.0,0.0,0.0,0.0,0.0,0.0,0.0,0.0,0.0,0.0,0.0,0.0,0.0,0.0,0.0,0.0,0.0,0.0,0.0,0.0,0.0,0.0,0.0,0.0,0.0,0.0,0.0,0.0,0.0,0.0,0.0,0.0,0.0,0.0,0.0,0.0,0.0,0.0,0.0,0.0,0.0,0.0,0.0,0.0,0.0,0.0,0.0,0.0,0.0,0.0,0.0,0.0,0.0,0.0,0.0,0.0,0.0,0.0,0.0,0.0,0.0,0.0,0.0,0.0,0.0,0.0,0.0,0.0,0.0,0.0,0.0,0.0,0.0,0.0,0.0,0.0,-1.9619,-2.1288,-2.1836,-2.1934,-2.1963,-2.1934,-2.042,-1.8701,-1.6853,-1.654,0.0,0.0,0.0,0.0,0.0,0.0,0.0,0.0,0.0,0.0,0.0,0.0,0.0,0.0,0.0,0.0,0.0,0.0,0.0,0.0,0.0,0.0,0.0,0.0,0.0,0.0,0.0,0.0,0.0,0.0,0.0,0.0,0.0,0.0,0.0,0.0,0.0,0.0,0.0,0.0,0.0,0.0,0.0,0.0,0.0,0.0,0.0,0.0,0.0,0.0,0.0,0.0,0.0,0.0,0.0,0.0,0.0,0.0,0.0,0.0,0.0,0.0,0.0,0.0,0.0,0.0,0.0,0.0,0.0,0.0,0.0,0.0,0.0,0.0,0.0,0.0,0.0,0.0,0.0,0.0,0.0,0.0,0.0,0.0,0.0,0.0,0.0,0.0,0.0,0.0,0.0,0.0,0.0,0.0,0.0,0.0,0.0,0.0,0.0,0.0,0.0,0.0,-1.876,-2.04,0.0,-2.1728,-2.1777,-2.1504,-2.0703,-1.9383,-1.7409,0.0,0.0,0.0,0.0,0.0,0.0,0.0,0.0,0.0,0.0,0.0,0.0,0.0,0.0,0.0,0.0,0.0,0.0,0.0,0.0,0.0,0.0,0.0,0.0,0.0,0.0,0.0,0.0,0.0,0.0,0.0,0.0,0.0,0.0,0.0,0.0,0.0,0.0,0.0,0.0,0.0,0.0,0.0,0.0,0.0,0.0,0.0,0.0,0.0,0.0,0.0,0.0,0.0,0.0,0.0,0.0,0.0,0.0,0.0,0.0,0.0,0.0,0.0,0.0,0.0,0.0,0.0,0.0,0.0,0.0,0.0,0.0,0.0,0.0,0.0,0.0,0.0,0.0,0.0,0.0,0.0,0.0,0.0,0.0,0.0,0.0,0.0,0.0,0.0,0.0,0.0,0.0,0.0,0.0,0.0,0.0,0.0,0.0,0.0,0.0,0.0,0.0,-1.6658,-1.834,-1.9932,0.0,-2.1458,-2.1478,-2.1214,-2.0383,-1.9177,-1.7571,0.0,0.0,0.0,0.0,0.0,0.0,0.0,0.0,0.0,0.0,0.0,0.0,0.0,0.0,0.0,0.0,0.0,0.0,0.0,0.0,0.0,0.0,0.0,0.0,0.0,0.0,0.0,0.0,0.0,0.0,0.0,0.0,0.0,0.0,0.0,0.0,0.0,0.0,0.0,0.0,0.0,0.0,0.0,0.0,0.0,0.0,0.0,0.0,0.0,0.0,0.0,0.0,0.0,0.0,0.0,0.0,0.0,0.0,0.0,0.0,0.0,0.0,0.0,0.0,0.0,0.0,0.0,0.0,0.0,0.0,0.0,0.0,0.0,0.0,0.0,0.0,0.0,0.0,0.0,0.0,0.0,0.0,0.0,0.0,0.0,0.0,0.0,0.0,0.0,0.0,0.0,0.0,0.0,0.0,0.0,0.0,0.0,0.0,0.0,0.0,0.0,0.0,-1.6728,-1.8594,-2.033,-2.1402,-2.1154,-2.1012,-2.1205,-1.9188,-1.7716,0.0,0.0,0.0,0.0,0.0,0.0,0.0,0.0,0.0,0.0,0.0,0.0,0.0,0.0,0.0,0.0,0.0,0.0,0.0,0.0,0.0,0.0,0.0,0.0,0.0,0.0,0.0,0.0,0.0,0.0,0.0,0.0,0.0,0.0,0.0,0.0,0.0,0.0,0.0,0.0,0.0,0.0,0.0,0.0,0.0,0.0,0.0,0.0,0.0,0.0,0.0,0.0,0.0,0.0,0.0,0.0,0.0,0.0,0.0,0.0,0.0,0.0,0.0,0.0,0.0,0.0,0.0,0.0,0.0,0.0,0.0,0.0,0.0,0.0,0.0,0.0,0.0,0.0,0.0,0.0,0.0,0.0,0.0,0.0,0.0,0.0,0.0,0.0,0.0,0.0,0.0,0.0,0.0,0.0,0.0,0.0,0.0,0.0,0.0,0.0,0.0,0.0,0.0,-1.7739,-2.0031,-2.1981,-2.2826,-2.2799,-2.2408,-2.1607,-2.0463,-1.9088,-1.747,0.0,0.0,0.0,0.0,0.0,0.0,0.0,0.0,0.0,0.0,0.0,0.0,0.0,0.0,0.0,0.0,0.0,0.0,0.0,0.0,0.0,0.0,0.0,0.0,0.0,0.0,0.0,0.0,0.0,0.0,0.0,0.0,0.0,0.0,0.0,0.0,0.0,0.0,0.0,0.0,0.0,0.0,0.0,0.0,0.0,0.0,0.0,0.0,0.0,0.0,0.0,0.0,0.0,0.0,0.0,0.0,0.0,0.0,0.0,0.0,0.0,0.0,0.0,0.0,0.0,0.0,0.0,0.0,0.0,0.0,0.0,0.0,0.0,0.0,0.0,0.0,0.0,0.0,0.0,0.0,0.0,0.0,0.0,0.0,0.0,0.0,0.0,0.0,0.0,0.0,0.0,0.0,0.0,0.0,0.0,0.0,0.0,0.0,0.0,0.0,0.0,0.0,-1.7828,-2.0435,-2.2497,-2.3203,-2.3295,-2.295,-2.2141,-2.1034,-1.9684,-1.8068,0.0,0.0,0.0,0.0,0.0,0.0,0.0,0.0,0.0,0.0,0.0,0.0,0.0,0.0,0.0,0.0,0.0,0.0,0.0,0.0,0.0,0.0,0.0,0.0,0.0,0.0,0.0,0.0,0.0,0.0,0.0,0.0,0.0,0.0,0.0,0.0,0.0,0.0,0.0,0.0,0.0,0.0,0.0,0.0,0.0,0.0,0.0,0.0,0.0,0.0,0.0,0.0,0.0,0.0,0.0,0.0,0.0,0.0,0.0,0.0,0.0,0.0,0.0,0.0,0.0,0.0,0.0,0.0,0.0,0.0,0.0,0.0,0.0,0.0,0.0,0.0,0.0,0.0,0.0,0.0,0.0,0.0,0.0,0.0,0.0,0.0,0.0,0.0,0.0,0.0,0.0,0.0,0.0,0.0,0.0,0.0,0.0,0.0,0.0,0.0,0.0,0.0,-1.7513,-2.0331,-2.2514,-2.3153,-2.3245,-2.3121,-2.2741,-2.1228,-1.9861,-1.8811,0.0,0.0,0.0,0.0,0.0,0.0,0.0,0.0,0.0,0.0,0.0,0.0,0.0,0.0,0.0,0.0,0.0,0.0,0.0,0.0,0.0,0.0,0.0,0.0,0.0,0.0,0.0,0.0,0.0,0.0,0.0,0.0,0.0,0.0,0.0,0.0,0.0,0.0,0.0,0.0,0.0,0.0,0.0,0.0,0.0,0.0,0.0,0.0,0.0,0.0,0.0,0.0,0.0,0.0,0.0,0.0,0.0,0.0,0.0,0.0,-1.2897,0.0,0.0,0.0,0.0,0.0,0.0,0.0,0.0,0.0,0.0,0.0,0.0,0.0,0.0,0.0,0.0,0.0,0.0,0.0,0.0,0.0,0.0,0.0,0.0,0.0,0.0,0.0,0.0,0.0,0.0,0.0,0.0,0.0,0.0,0.0,0.0,0.0,0.0,0.0,0.0,0.0,-1.917,-2.2046,-2.4307,-2.4976,-2.5038,-2.4649,-2.3616,-2.2484,-2.0806,-1.8409,-1.7228,0.0,0.0,0.0,0.0,0.0,0.0,0.0,0.0,0.0,0.0,0.0,0.0,0.0,0.0,0.0,0.0,0.0,0.0,0.0,0.0,0.0,0.0,0.0,0.0,0.0,0.0,0.0,0.0,0.0,0.0,0.0,0.0,0.0,0.0,0.0,0.0,0.0,0.0,0.0,0.0,0.0,0.0,0.0,0.0,0.0,0.0,0.0,0.0,0.0,0.0,0.0,0.0,0.0,0.0,0.0,0.0,0.0,0.0,0.0,0.0,-1.4403,0.0,0.0,0.0,0.0,0.0,0.0,0.0,0.0,0.0,0.0,0.0,0.0,0.0,0.0,0.0,0.0,0.0,0.0,0.0,0.0,0.0,0.0,0.0,0.0,0.0,0.0,0.0,0.0,0.0,0.0,0.0,0.0,0.0,0.0,0.0,0.0,0.0,0.0,0.0,0.0,-1.9282,-2.224,-2.4448,-2.4795,-2.4833,-2.4578,-2.3939,-2.2846,-2.1488,-1.9844,-1.8743,0.0,0.0,0.0,0.0,0.0,0.0,0.0,0.0,0.0,0.0,0.0,0.0,0.0,0.0,0.0,0.0,0.0,0.0,0.0,0.0,0.0,0.0,0.0,0.0,0.0,0.0,0.0,0.0,0.0,0.0,0.0,0.0,0.0,0.0,0.0,0.0,0.0,0.0,0.0,0.0,0.0,0.0,0.0,0.0,0.0,0.0,0.0,0.0,0.0,0.0,0.0,0.0,0.0,-1.179,-1.1952,-1.2198,-1.277,-1.3498,-1.4447,-1.5125,-1.5578,-1.5773,0.0,0.0,0.0,0.0,0.0,0.0,0.0,0.0,0.0,0.0,0.0,0.0,0.0,0.0,0.0,0.0,0.0,0.0,0.0,0.0,0.0,0.0,0.0,0.0,0.0,-1.6738,-1.6434,0.0,0.0,0.0,0.0,0.0,0.0,0.0,0.0,0.0,0.0,0.0,0.0,-1.9168,-2.203,-2.4004,-2.4004,-2.4004,-2.4004,-2.4004,-2.2948,-2.2048,-2.1524,-2.0578,-1.9599,0.0,0.0,0.0,0.0,0.0,0.0,0.0,0.0,0.0,0.0,0.0,0.0,0.0,0.0,0.0,0.0,0.0,0.0,0.0,0.0,0.0,0.0,0.0,0.0,0.0,0.0,0.0,0.0,0.0,0.0,0.0,0.0,-0.1124,-0.1769,0.0,0.0,0.0,0.0,0.0,0.0,0.0,0.0,0.0,0.0,0.0,0.0,0.0,-1.0231,-1.1772,-1.227,-1.2512,-1.2554,-1.3025,-1.3272,-1.3347,-1.499,-1.5973,-1.6445,-1.8288,0.0,-1.6221,-1.535,0.0,0.0,0.0,0.0,0.0,0.0,0.0,0.0,0.0,0.0,0.0,0.0,0.0,0.0,0.0,0.0,0.0,0.0,0.0,0.0,0.0,0.0,-1.8266,-1.8266,-1.8032,-1.7764,0.0,-1.6269,-1.4952,-1.4036,-1.409,0.0,0.0,0.0,0.0,0.0,0.0,0.0,-2.0459,-2.2531,-2.4004,-2.4004,-2.4004,-2.4004,-2.4004,-2.3373,-2.2551,-2.155,-2.1471,-2.0719,-1.9146,-1.8165,0.0,0.0,0.0,0.0,0.0,0.0,0.0,0.0,0.0,0.0,0.0,0.0,0.0,0.0,0.0,0.0,0.0,0.0,0.0,0.0,0.0,0.0,0.0,0.0,0.0,0.0,0.0,0.0,0.0,-0.1276,-0.173,-0.1964,-0.2911,-0.3651,0.0,0.0,0.0,0.0,0.0,0.0,0.0,0.0,0.0,-0.9627,-1.0429,-1.1541,-1.3031,-1.3266,-1.3453,-1.3604,-1.3688,-1.3731,-1.3777,-1.4682,-1.528,-1.5617,-1.6654,-1.7224,-1.7381,-1.7165,-1.7054,-1.6881,0.0,0.0,0.0,0.0,-1.5602,-1.5817,-1.6092,-1.6303,0.0,0.0,0.0,0.0,0.0,0.0,0.0,0.0,0.0,0.0,0.0,0.0,0.0,-1.926,-1.9219,-1.9059,-1.8941,-1.7921,-1.6699,0.0,-1.5633,-1.5703,-1.5122,0.0,0.0,0.0,0.0,0.0,-2.1119,-2.2523,-2.3484,-2.3484,-2.3484,-2.3484,-2.3484,-2.3246,-2.2947,-2.2578,-2.2346,-2.165,-2.0444,-1.9633,-1.8389,0.0,0.0,0.0,0.0,0.0,0.0,0.0,0.0,0.0,0.0,0.0,0.0,0.0,0.0,0.0,0.0,0.0,0.0,0.0,0.0,0.0,0.0,0.0,0.0,0.0,0.0,0.0,0.0,-0.1527,-0.2219,-0.2292,-0.3507,-0.436,0.0,0.0,0.0,0.0,0.0,0.0,-0.6464,-0.7516,-0.8761,-1.0278,-1.1326,-1.2564,-1.4002,-1.4008,-1.4105,-1.4292,-1.4099,-1.4008,-1.3996,-1.4408,-1.4754,-1.5081,-1.5476,-1.6721,-1.8454,-1.8359,-1.8228,-1.8027,-1.7093,-1.6652,-1.6477,-1.6578,-1.6688,-1.6862,-1.7458,-1.766,-1.7614,-1.7318,0.0,-1.6288,-1.5373,0.0,0.0,0.0,0.0,-1.7379,-1.8271,-1.8975,-1.9561,-1.998,-2.0,-1.9871,-1.9752,-1.9062,-1.8114,0.0,-1.7061,-1.7195,-1.6581,0.0,0.0,0.0,0.0,-2.1106,-2.1631,-2.2506,-2.3108,-2.3108,-2.3108,-2.3108,-2.3168,-2.3168,-2.3207,-2.3246,-2.291,-2.2283,-2.1328,-2.072,-1.9424,-1.7343,0.0,0.0,0.0,0.0,0.0,0.0,0.0,0.0,0.0,0.0,0.0,0.0,0.0,0.0,0.0,0.0,0.0,0.0,0.0,0.0,0.0,0.0,0.0,0.0,0.0,0.0,0.0,0.0,0.0,-0.3068,-0.4054,0.0,0.0,0.0,0.0,-0.6242,-0.6481,-0.6776,-0.7038,-0.8205,-0.9453,-1.0839,-1.1906,-1.3036,-1.4274,-1.428,-1.4286,-1.4298,-1.4286,-1.428,-1.4316,-1.5199,-1.5757,-1.6071,-1.6972,-1.8067,-1.9042,-1.7707,-1.8195,-1.9646,-1.8457,-1.8247,-1.8467,-1.7715,-1.7688,-1.7999,-1.8082,-1.8054,-1.8146,-1.8694,-1.8307,-1.7523,-1.711,-1.6783,0.0,0.0,-1.791,-1.8705,-1.96,-1.9853,-1.999,-2.0468,-2.0215,-1.994,-2.0145,-1.9489,-1.8675,0.0,-1.8155,-1.8261,-1.7791,0.0,-1.9696,-1.9794,-2.0764,-2.1644,-2.2196,-2.2744,-2.3108,-2.3108,-2.3108,-2.3168,-2.3373,-2.3373,-2.3234,-2.286,-2.291,-2.2465,-2.1354,-2.0886,-2.0286,-1.9451,-1.7527,0.0,0.0,0.0,0.0,0.0,0.0,0.0,0.0,0.0,0.0,0.0,0.0,0.0,0.0,0.0,0.0,0.0,0.0,0.0,0.0,0.0,0.0,0.0,0.0,0.0,0.0,0.0,0.0,-0.4074,-0.5217,0.0,-0.6173,-0.643,-0.663,-0.6817,-0.7017,-0.7261,-0.7556,-0.8601,-0.9776,-1.1047,-1.2075,-1.3185,-1.4298,-1.4298,-1.4298,-1.4292,-1.4129,-1.4045,-1.4086,-1.4544,-1.4917,-1.5213,-1.5701,-1.6603,-1.765,-1.6952,-1.8106,-2.0204,-1.9518,-1.9491,-1.9842,-1.9549,-1.9375,-1.9253,-1.9253,-1.9157,-1.9112,-1.9326,-1.9102,-1.8702,-1.8582,-1.8461,-1.8467,-1.8887,-1.9228,-1.96,-2.0185,-2.0332,-2.041,-2.0741,-2.0662,-2.0541,-2.0581,-2.0343,-1.993,-1.9243,-1.8899,-1.8596,-1.8233,-1.9253,-2.0176,-2.0289,-2.126,-2.2221,-2.2744,-2.2982,-2.3108,-2.3108,-2.3108,-2.3168,-2.3373,-2.3048,-2.2843,-2.2925,-2.2605,-2.2105,-2.1472,-2.0963,-2.0216,-1.9154,-1.8093,-1.6974,0.0,0.0,0.0,0.0,0.0,0.0,0.0,0.0,0.0,0.0,0.0,0.0,0.0,0.0,0.0,0.0,0.0,0.0,0.0,0.0,0.0,0.0,0.0,0.0,0.0,0.0,-0.4557,-0.4745,-0.595,-0.6726,-0.6709,-0.7017,-0.722,-0.7314,-0.7509,-0.7682,-0.7879,-0.9235,-1.0351,-1.1165,-1.2538,-1.3559,-1.4298,-1.4298,-1.4298,-1.4292,-1.4123,-1.4086,-1.4174,-1.4283,-1.4486,-1.481,-1.483,-1.5473,-1.6521,-1.6496,-1.7837,-1.9823,-1.9564,-1.9792,-2.0259,-2.0163,-1.9994,-1.9925,-1.9966,-2.0034,-2.0014,-1.986,-1.9666,-1.9502,-1.9502,-1.9502,-1.9561,-1.9834,-2.0019,-2.0195,-2.0527,-2.0644,-2.0731,-2.0867,-2.0945,-2.0969,-2.0819,-2.0669,-2.0416,-1.9903,-1.9612,-1.9441,-1.9328,-2.0205,-2.1005,-2.1328,-2.2055,-2.2694,-2.3058,-2.3108,-2.3108,-2.3108,-2.3108,-2.3198,-2.3463,-2.2929,-2.2664,-2.2795,-2.2237,-2.1693,-2.125,-2.07,-2.0033,-1.9224,-1.8479,-1.7622,-1.6635,0.0,0.0,0.0,0.0,0.0,0.0,0.0,0.0,0.0,0.0,0.0,0.0,0.0,0.0,0.0,0.0,0.0,0.0,0.0,0.0,0.0,0.0,0.0,-0.2905,-0.367,-0.4474,-0.5052,-0.6123,-0.69,-0.7074,-0.751,-0.7814,-0.7818,-0.7901,-0.7985,-0.7988,-0.9998,-1.117,-1.1219,-1.3173,-1.425,-1.4298,-1.4298,-1.4298,-1.4298,-1.4298,-1.4442,-1.4675,-1.4667,-1.4778,-1.5002,-1.4653,-1.4996,-1.5812,-1.6394,-1.7359,-1.8529,-1.8579,-1.9144,-1.9857,-1.9494,-1.9595,-1.9925,-2.0151,-2.0507,-2.0843,-2.0438,-2.013,-1.9932,-1.9932,-1.9932,-1.9932,-1.9932,-2.0244,-2.0605,-2.0605,-2.0722,-2.0886,-2.0886,-2.1031,-2.1082,-2.0825,-2.0425,-2.0048,-1.9851,-2.033,-2.0842,-2.1047,-2.1628,-2.2279,-2.2969,-2.3078,0.0,-2.3108,-2.3108,-2.3108,-2.3108,-2.3108,-2.3228,-2.3569,-2.309,-2.268,-2.2412,-2.1825,-2.125,-2.0751,-2.0164,-1.9826,-1.9799,-1.8715,-1.814,-1.8105,0.0,0.0,0.0,0.0,0.0,0.0,0.0,0.0,0.0,0.0,0.0,0.0,0.0,0.0,0.0,0.0,0.0,0.0,0.0,0.0,0.0,0.0,-0.3918,-0.3758,-0.4698,-0.553,-0.5777,-0.6676,-0.7253,-0.73,-0.7596,-0.7858,-0.7921,-0.7913,-0.7874,-0.7985,-0.9316,-1.0391,-1.1175,-1.2441,-1.3511,-1.4298,-1.4298,-1.4298,-1.4298,-1.4496,-1.464,-1.4688,-1.5076,-1.5274,-1.5349,-1.5022,-1.5022,-1.5188,-1.4922,-1.5403,-1.65,-1.8683,-1.9851,-2.0296,-2.0228,-2.0154,-2.0123,-2.0017,-2.0191,-2.0458,-2.0489,-2.0488,-2.0429,-2.0429,-2.0429,-2.0429,-2.0429,-2.0507,-2.0605,-2.0605,-2.0495,-2.043,-2.0572,-2.0508,-2.0409,-2.0494,-2.0406,-2.0225,-1.9886,-1.9965,-2.0083,-2.016,-2.0848,-2.1568,-2.2069,-2.2701,0.0,-2.3108,-2.3108,-2.3108,-2.3108,-2.3108,-2.3228,-2.3569,-2.2703,-2.2227,-2.2387,-2.1472,-2.1027,-2.1263,-2.0752,-2.0255,-1.9812,-1.9499,-1.9027,0.0,0.0,0.0,0.0,0.0,0.0,0.0,0.0,0.0,0.0,0.0,0.0,0.0,0.0,0.0,0.0,0.0,0.0,0.0,0.0,0.0,0.0,-0.4518,-0.4733,-0.4821,-0.5475,-0.6005,-0.6224,-0.6767,-0.7149,-0.72,-0.7584,-0.78,-0.7792,-0.7825,-0.7897,-0.7985,-0.9019,-1.0096,-1.117,-1.2193,-1.3221,-1.4298,-1.4298,-1.4298,-1.4298,-1.4442,-1.4646,-1.4898,-1.5185,-1.5465,0.0,-1.5186,-1.5012,-1.4961,-1.4744,-1.4943,0.0,0.0,0.0,0.0,0.0,-1.9985,-2.0367,-2.0212,-2.0405,-2.0663,-2.0625,-2.0605,-2.0605,-2.0605,-2.0605,-2.0605,-2.0605,-2.0605,-2.0556,-2.038,-2.0307,-2.0305,-2.0273,-2.024,-2.0201,-2.0147,-2.0151,-2.0006,-1.9596,0.0,0.0,-1.9761,-2.0465,-2.1158,-2.1715,-2.2464,-2.2917,-2.2714,-2.3005,-2.3241,-2.3241,-2.3271,-2.342,-2.3688,-2.2907,0.0,0.0,0.0,-2.1446,-2.1511,-2.1198,0.0,0.0,0.0,0.0,0.0,0.0,0.0,0.0,-2.0149,-2.0603,0.0,0.0,0.0,0.0,0.0,0.0,0.0,0.0,0.0,0.0,0.0,0.0,0.0,0.0,0.0,0.0,-0.5442,-0.564,-0.5893,-0.5934,-0.607,-0.6399,-0.6661,-0.6818,-0.6865,-0.7388,-0.7659,-0.7501,-0.777,-0.7998,-0.8015,0.0,0.0,0.0,0.0,-1.3288,-1.4346,-1.4377,-1.4377,-1.4346,-1.4388,-1.4635,-1.5115,-1.5137,-1.5384,-1.5738,-1.5197,-1.4988,-1.4959,-1.5191,-1.5235,-1.5269,-1.5477,-1.609,-1.6984,-1.8103,-1.9393,-2.05,-2.05,0.0,0.0,-2.0732,-2.0605,-2.0605,-2.0605,-2.0605,-2.0605,-2.0605,-2.0566,-2.0449,-2.0019,-2.0115,-2.0253,-1.9907,-2.0043,-2.0162,-1.9803,-1.972,-1.9596,-1.9181,-1.9108,-1.9253,-1.971,-2.0364,-2.1018,-2.1675,-2.2309,-2.2548,-2.2133,-2.28,-2.33,-2.33,0.0,0.0,-2.3891,-2.3347,-2.3054,-2.3195,-2.274,-2.2257,-2.1694,-2.1773,-2.1773,-2.1681,-2.1694,-2.1969,-2.2505,-2.296,-2.3001,-2.2557,-2.1015,-2.1381,0.0,0.0,0.0,0.0,0.0,0.0,0.0,0.0,0.0,0.0,0.0,0.0,0.0,0.0,0.0,-0.5389,-0.5763,-0.5999,-0.6043,-0.6135,-0.6218,-0.6189,-0.6505,-0.6713,-0.6762,-0.6879,-0.7161,-0.7539,-0.763,-0.7845,-0.8218,-0.9351,0.0,-1.1334,-1.2602,-1.3674,-1.4587,-1.4847,-1.4847,-1.4636,0.0,0.0,-1.5115,-1.5302,-1.5457,-1.5456,-1.5129,-1.4874,-1.4576,-1.4435,-1.4334,-1.4496,-1.5884,-1.6984,-1.7764,-1.8042,-1.8923,-2.0025,-2.0025,-2.034,-2.0684,-2.0635,-2.0605,-2.0605,-2.0605,-2.0605,0.0,-2.0605,-2.0312,-2.0019,-1.9932,-1.967,-1.9419,-1.9339,-1.9339,-1.9347,-1.9253,-1.9233,-1.9212,-1.9119,-1.9108,-1.9253,-1.971,-2.0364,-2.0959,-2.149,-2.1823,-2.1945,-2.1885,-2.2296,-2.2586,-2.2586,-2.3198,-2.37,-2.3891,-2.3347,-2.3054,-2.3195,-2.3106,-2.3001,-2.2869,-2.3354,-2.338,-2.2869,-2.2856,-2.2921,-2.3039,-2.313,-2.3391,-2.3744,-2.3446,-2.3496,0.0,0.0,0.0,0.0,0.0,0.0,0.0,0.0,0.0,0.0,0.0,-0.4659,-0.4994,0.0,-0.5447,-0.5642,-0.5928,-0.6064,-0.6002,-0.61,-0.6132,-0.6007,-0.6283,-0.6441,-0.6237,-0.6567,-0.6946,-0.723,-0.758,-0.7934,-0.8265,-0.9482,-1.0613,-1.1592,-1.2822,-1.3909,-1.4914,-1.504,-1.498,-1.4714,-1.4716,-1.4734,-1.4856,-1.4854,-1.4989,-1.5187,-1.4886,-1.4666,-1.4496,-1.4208,-1.4088,-1.4173,-1.5068,-1.5925,-1.6739,-1.718,-1.8158,-1.9292,-1.9745,-2.0216,-2.0605,-2.0605,-2.0605,-2.0605,-2.0605,-2.0605,-2.0556,-2.0341,-2.0078,-1.9814,-1.9348,-1.9215,-1.9128,-1.8907,-1.8971,-1.9108,-1.9108,-1.9108,-1.9108,-1.9108,-1.9108,-1.9181,-1.9409,-1.991,-2.0456,-2.0889,-2.1134,-2.1352,-2.1518,-2.1913,-2.2218,-2.2396,-2.3047,-2.3539,-2.3641,-2.359,-2.3582,-2.3639,-2.3639,-2.3639,-2.3639,-2.3926,-2.3939,-2.3652,-2.3639,-2.3639,-2.3639,-2.3639,-2.3825,-2.4096,-2.4413,-2.47,0.0,0.0,0.0,0.0,0.0,0.0,0.0,0.0,-0.3526,-0.3857,-0.445,-0.504,-0.5377,-0.554,-0.5645,-0.5904,-0.6021,-0.6043,-0.592,-0.6007,-0.604,-0.5918,-0.609,-0.6099,-0.5776,-0.6285,-0.6709,-0.6833,-0.7503,-0.7997,-0.8261,-0.9563,-1.0749,-1.1808,-1.2993,-1.4144,-1.5185,-1.5234,-1.5068,-1.468,-1.4472,-1.4401,-1.445,-1.4303,-1.4437,-1.4821,-1.4536,-1.4412,-1.4422,-1.4182,-1.4088,-1.4088,-1.4088,-1.4538,-1.5276,-1.6173,-1.7302,-1.8479,-1.9213,-1.9736,-2.0118,-2.0284,-2.0372,-2.0372,-2.0566,-2.0546,-2.04,-2.0019,-1.9795,-1.9512,-1.8783,-1.8829,-1.8968,-1.8596,-1.8808,-1.9108,-1.9108,-1.9108,-1.9108,-1.9108,-1.9108,-1.9108,-1.9108,-1.9409,-1.9813,-2.0234,-2.0605,-2.0892,-2.1096,-2.1578,-2.1996,-2.2204,-2.2836,-2.33,-2.3403,-2.3819,-2.4083,-2.4083,-2.4083,-2.4083,-2.4083,-2.4083,-2.4083,-2.4083,-2.4083,-2.4083,-2.4083,-2.4083,-2.4178,-2.4295,-2.4783,-2.5275,-0.0058,-0.0503,-0.115,-0.1815,-0.2038,-0.2518,0.0,0.0,-0.3861,-0.482,-0.5176,-0.5388,-0.5646,-0.5787,-0.5909,-0.6043,-0.6078,-0.6043,-0.592,-0.6007,-0.604,-0.5918,-0.5904,-0.5944,-0.5885,-0.6054,-0.632,-0.6719,-0.7346,-0.7836,-0.8095,-0.9739,-1.1024,-1.1976,-1.3385,-1.4571,-1.5457,-1.5686,-1.5456,-1.4676,-1.4659,-1.4412,-1.396,-1.4119,-1.4224,-1.4258,-1.4171,-1.4151,-1.4135,-1.4102,-1.4088,-1.4088,-1.4088,-1.4166,-1.4377,-1.5401,-1.6501,-1.7504,-1.7844,-1.8086,-1.8399,-1.9173,-1.946,-1.9578,-2.0372,-2.0293,-1.998,-1.9922,-1.9329,-1.8724,-1.8627,-1.8602,-1.8576,-1.8526,-1.8808,-1.9108,-1.9108,-1.9108,-1.9108,-1.9108,-1.9108,-1.9108,-1.9108,-1.915,-1.9336,-1.9803,-2.0505,-2.0834,-2.0463,-2.1396,-2.1929,-2.1561,-2.2218,-2.2889,-2.3373,-2.3819,-2.4083,-2.4083,-2.4083,-2.4083,-2.4083,-2.4083,-2.4083,-2.4083,-2.4083,-2.4083,-2.4083,-2.4083,-2.4387,-2.49,-2.4966,-2.5275,-0.057,-0.1158,0.0,0.0,-0.3071,-0.3605,-0.4504,-0.4486,-0.4479,-0.5076,-0.5325,-0.5464,-0.5773,-0.5871,-0.5945,0.0,-0.6086,-0.6043,-0.592,-0.5947,-0.5988,-0.6007,-0.5947,-0.5931,-0.6002,-0.6119,-0.6325,-0.6589,-0.7074,-0.7817,-0.8729,-1.0485,-1.1967,-1.3004,-1.4461,-1.5352,-1.5728,-1.5831,-1.5593,-1.4906,-1.4611,-1.4257,-1.3907,-1.3781,-1.3892,-1.4144,-1.4095,-1.4088,-1.4088,-1.4088,-1.4088,-1.4088,-1.4088,-1.4166,-1.4405,-1.536,-1.6049,-1.665,-1.744,-1.7844,-1.8078,-1.8399,-1.8895,-1.9381,-1.9736,-1.987,-1.9863,-1.9619,-1.9075,-1.8549,-1.8295,-1.8374,-1.8516,-1.8516,-1.8808,-1.9108,-1.9108,-1.9108,-1.9108,-1.9108,-1.9108,-1.9108,-1.9108,-1.9108,-1.917,-1.9357,-1.992,-2.0382,-2.0567,-2.1018,-2.1413,-2.1655,-2.2002,-2.2537,-2.333,-2.3582,-2.3819,-2.4083,-2.4083,-2.4083,-2.4083,-2.4083,-2.4083,-2.4083,-2.4083,-2.4083,-2.4083,-2.4452,-2.4756,-2.5018,-2.5685,-2.6117,-0.0848,0.0,0.0,-0.3009,-0.375,-0.4363,-0.4635,-0.4694,-0.4819,-0.5124,-0.5233,-0.5382,-0.5738,-0.5833,-0.5885,-0.5975,-0.6043,-0.6043,-0.592,-0.5961,-0.6024,-0.6078,-0.6064,-0.6072,-0.613,-0.6235,-0.6277,-0.6372,-0.6841,-0.7603,-0.8742,-1.0692,-1.2221,-1.3216,-1.4826,-1.5698,-1.5805,-1.5725,-1.5458,-1.4995,-1.443,-1.4063,-1.3763,-1.359,-1.3695,-1.4088,-1.4088,-1.4088,-1.4088,-1.4088,-1.4088,-1.4088,-1.4088,-1.4201,-1.4482,-1.5151,-1.556,-1.5884,-1.6755,-1.7164,-1.7318,-1.7553,-1.8238,-1.8957,-1.9085,-1.9391,-1.9648,-1.9228,-1.8763,-1.8354,-1.8086,-1.8245,-1.8516,-1.8516,-1.8808,-1.9108,-1.9108,-1.9108,-1.9108,-1.9108,-1.9108,-1.9108,-1.9108,-1.9108,-1.9108,-1.9108,-1.957,-2.006,-2.0419,-2.0631,-2.0983,-2.1643,-2.1827,-2.2261,-2.3108,-2.33,-2.3611,-2.4054,-2.4083,-2.4083,-2.4083,-2.4083,-2.4083,-2.4083,-2.4083,-2.4083,-2.4083,-2.4717,-2.5083,-2.5254,-2.6248,-2.6798,0.0,0.0,-0.2279,-0.3025,-0.375,-0.4363,-0.4635,-0.4599,-0.4651,-0.5089,-0.5102,-0.5098,-0.5454,-0.5615,-0.5696,-0.5699,-0.5937,-0.6043,-0.592,-0.6108,-0.6265,-0.61,-0.6285,-0.638,0.0,-0.6159,-0.6089,-0.6133,-0.6603,-0.7101,-0.7536,-0.9872,-1.1434,-1.185,-1.3987,-1.5267,-1.55,-1.5253,-1.4995,-1.471,-1.4159,-1.3764,-1.3528,-1.3649,-1.3828,-1.4088,-1.4088,-1.4088,-1.4088,-1.4088,-1.4088,-1.4088,-1.4088,-1.4201,-1.444,-1.465,-1.4908,-1.5173,-1.5382,-1.5465,-1.5631,-1.646,-1.735,-1.8089,-1.8515,-1.8958,-1.9219,-1.8744,-1.8315,-1.8027,-1.8018,-1.8245,-1.8516,-1.8516,-1.8808,-1.9108,-1.9108,-1.9108,-1.9108,-1.9108,-1.9108,-1.9108,-1.9108,-1.9108,-1.9108,-1.9108,-1.9773,-2.0124,-1.969,-2.0205,-2.0754,-2.119,-2.1639,-2.2094,-2.2561,-2.3095,-2.3611,-2.4054,-2.4083,-2.4083,-2.4083,-2.4083,-2.4083,-2.4083,-2.4083,-2.4083,-2.4083,-2.4717,-2.528,-2.578,-2.6399,-2.6974,0.0,0.0,-0.2908,-0.3725,-0.4105,-0.4341,-0.4531,-0.4534,-0.4575,-0.4818,-0.4838,-0.4885,-0.5243,-0.5409,-0.557,-0.5806,-0.598,-0.61,-0.614,-0.6265,-0.6282,-0.6314,-0.6323,0.0,0.0,0.0,0.0,-0.6092,-0.6372,-0.6994,-0.809,-0.9263,-1.0739,-1.2581,-1.3572,-1.4418,-1.5251,-1.5135,-1.499,-1.4698,-1.4157,-1.3815,-1.3613,-1.3668,-1.3864,-1.4088,-1.4088,-1.4088,-1.4088,-1.4088,-1.4088,-1.4088,-1.4088,-1.4286,-1.4608,-1.4692,-1.495,-1.5305,-1.5389,-1.5389,-1.5465,-1.5748,-1.6829,-1.7969,-1.7835,-1.8478,-1.9199,-1.8724,-1.8295,-1.8008,-1.8008,-1.8245,-1.8516,-1.8516,-1.8808,-1.9108,-1.9108,-1.9108,-1.9108,-1.9108,-1.9108,-1.9108,-1.9108,-1.9108,-1.9264,-1.9715,-1.9986,-2.0314,-2.0687,-2.0881,-2.1063,-2.119,-2.1348,-2.162,-2.2094,-2.2586,-2.3095,-2.3611,-2.3936,-2.4083,-2.4083,-2.4083,-2.4083,-2.4083,-2.4083,-2.4308,-2.4717,-2.5262,-2.5837,-2.6399,-2.6974,-2.734,-0.1594,-0.2432,-0.3259,-0.4162,-0.4393,-0.4482,-0.4553,-0.4536,-0.4539,-0.4662,-0.4654,-0.4683,-0.4921,-0.5151,-0.5351,-0.5447,-0.5739,-0.5971,-0.6093,-0.6141,-0.6195,-0.6369,-0.6312,-0.6317,0.0,0.0,0.0,-0.6157,-0.6261,-0.6842,-0.7972,-0.9031,-1.0506,-1.235,-1.3312,-1.4167,-1.493,-1.4867,-1.4639,-1.4273,-1.4114,-1.388,-1.361,-1.3779,-1.3955,-1.4088,-1.4088,-1.4088,-1.4088,-1.4088,-1.4088,-1.4088,-1.4088,-1.4286,-1.4608,-1.465,-1.495,-1.5298,-1.5389,-1.5389,-1.5389,-1.5389,-1.6353,-1.7502,-1.7242,-1.7945,-1.8787,-1.8469,-1.8188,-1.8008,-1.8076,-1.8313,-1.8516,-1.8583,-1.8875,-1.9108,-1.9108,-1.9108,-1.9108,-1.9108,-1.9108,-1.9108,-1.9108,-1.9108,-1.9297,-1.9857,-2.0009,-2.0379,-2.1171,-2.1096,-2.1031,-2.119,-2.119,-2.138,-2.1846,-2.2329,-2.2768,-2.3095,-2.3717,-2.4024,-2.3848,-2.3995,-2.4217,-2.4426,-2.4426,-2.47,-2.5275,-2.585,-2.6321,-2.6719,-2.7053,-2.7223,-0.1451,-0.2408,-0.336,-0.4242,-0.4561,-0.4679,-0.4679,-0.4583,-0.4528,-0.4646,-0.4577,-0.4464,-0.4472,0.0,-0.5057,-0.4768,-0.5278,-0.5703,-0.57,-0.5843,-0.6017,0.0,0.0,0.0,0.0,0.0,0.0,-0.6336,0.0,-0.6623,-0.7185,-0.919,-1.056,-1.1175,-1.3178,-1.4358,-1.4671,-1.4388,-1.4029,-1.3545,-1.3969,-1.3894,-1.344,-1.387,-1.4088,-1.4088,-1.4088,-1.4088,-1.4088,-1.4088,-1.4088,-1.4088,-1.4088,-1.4201,-1.4433,-1.465,-1.4866,-1.5131,-1.534,-1.5374,-1.536,-1.536,-1.5944,-1.6637,-1.6613,-1.7254,-1.7981,-1.7956,-1.7974,-1.8042,-1.8236,-1.8414,-1.8549,-1.8741,-1.8942,-1.9108,-1.9108,-1.9108,-1.9108,-1.9108,-1.9108,-1.9108,-1.9108,-1.9108,-1.9208,-1.9572,-1.9889,-2.0366,-2.1094,-2.086,-2.0764,-2.1158,-2.119,-2.138,-2.1827,-2.2298,-2.2561,-2.2592,-2.3514,-2.3848,-2.3433,-2.3819,-2.4357,-2.4949,-2.4992,-2.5262,-2.5845,-2.6386,-2.668,-2.6706,-2.668,-2.6654,-0.1531,-0.2724,-0.3823,-0.3701,-0.4131,-0.455,-0.455,-0.4462,-0.4318,-0.4209,-0.4157,-0.4112,-0.4079,0.0,0.0,-0.4714,-0.5343,0.0,-0.5737,-0.5918,0.0,-0.6374,0.0,-0.6464,-0.6649,-0.6665,0.0,0.0,-0.6309,-0.6494,-0.7176,-0.8405,-0.9721,-1.1168,-1.2461,-1.3519,-1.44,-1.4145,-1.3924,-1.3799,-1.385,-1.3778,-1.3652,-1.3955,-1.4088,-1.4088,-1.4088,-1.4088,-1.4088,-1.4088,-1.4088,-1.4088,-1.4088,-1.4201,-1.4433,-1.465,-1.4866,-1.5131,-1.534,-1.5228,-1.5024,-1.5024,-1.5435,-1.591,-1.5584,-1.6493,-1.7568,-1.7262,-1.7579,-1.8042,-1.8236,-1.8414,-1.8549,-1.8741,-1.8942,-1.9108,-1.9108,-1.9108,-1.9108,-1.9108,-1.9108,-1.9108,-1.9108,-1.9108,-1.9297,-1.9879,-2.0042,-2.0269,-2.07,-2.0935,-2.1094,-2.119,-2.119,-2.1253,-2.138,-2.1827,-2.2237,-2.2561,-2.2847,-2.3113,-2.3403,-2.3522,-2.3837,-2.4405,-2.4797,-2.5489,-2.6452,-2.6177,-2.6255,-2.6693,-2.6242,-2.6046,-0.2093,-0.3164,-0.4162,-0.4047,-0.4328,-0.4632,-0.4594,-0.4495,-0.431,-0.4007,-0.3992,0.0,-0.371,0.0,0.0,0.0,0.0,0.0,-0.5677,-0.5756,-0.5974,0.0,-0.6344,0.0,-0.6619,-0.6641,-0.6635,0.0,-0.6581,-0.6758,-0.7185,-0.8749,-1.0132,-1.1159,-1.264,-1.3701,-1.4298,-1.4037,-1.382,-1.3727,-1.3762,-1.3708,-1.3568,-1.3955,-1.4088,-1.4088,0.0,-1.4088,-1.4088,-1.4088,-1.4088,-1.4088,-1.4088,-1.4166,-1.4279,-1.4482,-1.4741,-1.4936,-1.5007,-1.4925,-1.4757,-1.4856,-1.5023,-1.5181,-1.5095,-1.5945,-1.6929,-1.6912,-1.7432,-1.8076,-1.8313,-1.8448,-1.8583,-1.8875,-1.9008,-1.9108,-1.9108,-1.9108,-1.9108,-1.9108,-1.9108,-1.9108,-1.9108,-1.9108,-1.9264,-1.9791,-2.0009,-2.0237,-2.0571,-2.0935,-2.119,-2.119,-2.119,-2.1098,-2.0879,-2.1479,-2.1813,-2.1648,-2.2226,-2.2634,-2.2732,-2.318,-2.3644,-2.4208,-2.4736,-2.5568,-2.6706,-2.6099,-2.6112,-2.6693,-2.5837,-2.5445,-0.2768,-0.3541,-0.4323,-0.4529,-0.4686,-0.4742,-0.4656,-0.4553,-0.4326,-0.393,0.0,-0.3795,-0.3427,-0.396,-0.4382,-0.4137,0.0,-0.538,-0.5647,-0.5598,-0.5753,-0.6325,-0.6236,-0.6203,-0.6387,-0.6425,-0.647,-0.6611,-0.6977,-0.7251,-0.7425,-0.9666,-1.112,-1.1614,-1.3366,-1.428,-1.4244,-1.3984,-1.3725,-1.3459,-1.3667,-1.3627,-1.344,-1.387,-1.4088,-1.4088,0.0,0.0,-1.4088,-1.4088,-1.4088,-1.4088,-1.4088,-1.4088,-1.4124,-1.4363,-1.4538,-1.4636,-1.4621,-1.454,-1.445,-1.4681,-1.4596,-1.4436,-1.4793,-1.5393,-1.6056,-1.6465,-1.7192,-1.793,-1.8236,-1.8414,-1.8583,-1.8975,-1.9065,-1.9108,-1.9108,-1.9108,-1.9108,-1.9108,-1.9108,-1.9108,-1.9108,-1.9108,-1.9198,-1.9539,-1.9889,-2.0237,-2.0571,-2.0935,-2.119,-2.119,-2.119,-2.0994,-2.0458,-2.1253,-2.1416,-2.0557,-2.1703,-2.2267,-2.1908,-2.2732,-2.3493,-2.4115,-2.4645,-2.5454,-2.6588,-2.6073,-2.6033,-2.6457,-2.5463,-2.4966,-0.2588,-0.3364,-0.4026,-0.3674,-0.4054,-0.4508,-0.4329,-0.4213,0.0,0.0,0.0,-0.3304,-0.3175,-0.3533,-0.3916,-0.4074,0.0,0.0,0.0,0.0,-0.5955,0.0,0.0,0.0,0.0,0.0,0.0,0.0,0.0,-0.7506,-0.8613,-0.9829,-1.1531,-1.3709,-1.41,-1.4189,-1.3972,-1.3713,-1.3447,-1.3188,-1.3386,-1.3442,-1.344,-1.387,-1.4088,-1.4088,-1.4088,0.0,-1.4088,-1.4088,-1.4088,-1.4088,-1.4088,-1.4088,-1.413,-1.4489,-1.4538,-1.4437,-1.4753,-1.4521,-1.4077,-1.4128,-1.3931,-1.3689,-1.3777,-1.4279,-1.4896,-1.4974,-1.6018,-1.7148,-1.7285,-1.792,-1.8549,-1.8808,-1.8975,-1.9108,-1.9108,-1.9108,-1.9108,-1.9108,-1.9108,-1.9108,-1.9108,-1.9108,-1.9198,-1.9539,-1.9889,-2.0237,-2.0571,-2.0935,-2.119,-2.119,-2.119,-2.0994,-2.0458,-2.0965,-2.121,-2.099,-2.1264,-2.1577,-2.1877,-2.2075,-2.2627,-2.3585,-2.4097,-2.4862,-2.5968,-2.5845,-2.5628,-2.5293,-2.5083,-2.4743,-0.3154,-0.3612,-0.3973,-0.3931,-0.4147,-0.4369,-0.42,0.0,0.0,0.0,0.0,-0.3129,-0.2927,0.0,0.0,0.0,0.0,0.0,0.0,0.0,0.0,0.0,0.0,0.0,0.0,0.0,0.0,0.0,0.0,-0.733,-0.8825,-1.0591,-1.2351,-1.4052,-1.4093,-1.3966,-1.3707,-1.3441,-1.3248,-1.3121,-1.3188,-1.3307,-1.3398,-1.3737,-1.3955,-1.4088,-1.4088,0.0,-1.4088,-1.4088,-1.4088,-1.4088,-1.4088,-1.4088,-1.413,-1.4447,-1.4462,-1.4305,-1.4424,-1.426,-1.3953,-1.3784,-1.3623,-1.3492,-1.3492,-1.4013,-1.4601,-1.4601,-1.5419,-1.6411,-1.6966,-1.7526,-1.808,-1.8664,-1.8942,-1.9108,-1.9108,-1.9108,-1.9108,-1.9108,-1.8911,-1.8818,-1.9056,-1.8901,-1.8927,-1.9507,-1.9736,-2.002,-2.0539,-2.0775,-2.0967,-2.119,-2.119,-2.0994,-2.0458,-2.0902,-2.1065,-2.0759,-2.1027,-2.1316,-2.1526,-2.1504,-2.1969,-2.3016,-2.3243,-2.4017,-2.538,-2.538,-2.5267,-2.4992,-2.4992,-2.4661,-0.3653,-0.3781,-0.3887,-0.4272,-0.4311,-0.4203,-0.4028,-0.3925,0.0,0.0,-0.3125,-0.3064,-0.2864,0.0,0.0,0.0,0.0,0.0,0.0,0.0,0.0,0.0,0.0,0.0,0.0,0.0,0.0,0.0,0.0,0.0,-0.8992,-1.1531,-1.3222,-1.3781,-1.3821,-1.3701,-1.3435,-1.323,-1.3053,-1.3031,-1.3071,-1.3222,-1.3398,-1.361,-1.3864,-1.4088,-1.4088,0.0,0.0,-1.4088,-1.4088,-1.4088,-1.4088,-1.4124,-1.4195,-1.433,-1.4323,-1.4219,-1.4105,-1.399,-1.3836,-1.3579,-1.3492,-1.3492,-1.3492,-1.3912,-1.4358,-1.4358,-1.4895,-1.5666,-1.6611,-1.7129,-1.7643,-1.863,-1.8975,-1.9108,-1.9108,-1.9108,-1.9108,-1.9108,-1.8808,-1.8642,-1.8911,-1.8652,-1.8635,-1.9337,-1.9436,-1.9695,-2.0516,-2.0488,-2.0568,-2.0986,-2.1132,-2.0994,-2.0458,-2.0902,-2.0937,-2.0297,-2.0753,-2.0983,-2.0879,-2.0843,-2.1278,-2.2268,-2.238,-2.3169,-2.4671,-2.4879,-2.4926,-2.4822,-2.494,-2.4661,-0.3416,-0.3489,-0.3602,-0.3878,-0.4032,-0.402,-0.3714,0.0,0.0,-0.3096,-0.2972,-0.2998,-0.3205,-0.3357,0.0,0.0,0.0,0.0,0.0,0.0,0.0,0.0,0.0,0.0,0.0,0.0,0.0,0.0,0.0,0.0,-0.9862,-1.2356,-1.3728,-1.3562,-1.355,-1.3423,-1.3119,-1.3095,-1.2994,-1.2741,-1.2979,-1.3222,-1.3398,-1.361,-1.3864,-1.4088,-1.4088,0.0,0.0,-1.4088,-1.4088,-1.4088,-1.4088,-1.4201,-1.4364,-1.4303,-1.4252,-1.4091,-1.4021,-1.3814,-1.3536,-1.3506,-1.3492,-1.3492,-1.3492,-1.3564,-1.3601,-1.3601,-1.4122,-1.4922,-1.5869,-1.674,-1.7677,-1.8798,-1.9108,-1.9108,-1.9108,-1.9108,-1.9108,-1.9108,-1.9077,-1.8922,-1.8538,-1.8434,-1.852,-1.8924,-1.8854,-1.9228,-2.0459,-2.012,-1.9957,-2.0435,-2.0925,-2.0994,-2.0458,-2.0902,-2.0787,-1.9815,-2.0217,-2.0285,-1.9849,-1.984,-2.0263,-2.1224,-2.1724,-2.2493,-2.3539,-2.4533,-2.473,-2.4217,-2.4756,-2.4661,-0.3368,-0.3407,-0.3472,-0.3688,-0.3744,-0.3727,-0.3437,0.0,-0.3396,-0.302,-0.2992,-0.3088,-0.3267,-0.3362,-0.3495,0.0,-0.4154,-0.457,-0.5037,0.0,0.0,0.0,0.0,0.0,0.0,0.0,0.0,0.0,0.0,0.0,-0.9841,-1.2275,-1.355,-1.329,-1.3278,-1.3145,-1.2874,-1.2874,-1.2813,-1.2705,-1.279,-1.3052,-1.3398,-1.3476,-1.3737,-1.4088,-1.4088,0.0,0.0,-1.4088,-1.4088,-1.4088,-1.4088,-1.4017,-1.396,-1.4205,-1.401,-1.3676,-1.3905,-1.377,-1.3492,-1.3492,-1.3492,-1.3492,-1.3492,-1.3492,-1.3492,-1.3492,-1.3702,-1.4194,-1.5251,-1.662,-1.7988,-1.8898,-1.9108,-1.9108,-1.9108,-1.9108,-1.9108,-1.9108,-1.864,-1.8288,-1.8361,-1.7936,-1.7792,-1.849,-1.8743,-1.9165,-2.0181,-2.0268,-2.0279,-2.0393,-2.0331,-2.0194,-1.9998,-2.0159,-2.0143,-1.9723,-1.9872,-1.9895,-1.97,-1.9378,-1.9808,-2.1093,-2.1014,-2.178,-2.3403,-2.4149,-2.4378,-2.4096,-2.473,-2.4661,-0.3281,-0.3358,-0.3397,-0.3628,-0.3615,-0.3531,0.0,-0.3378,-0.3329,-0.3032,-0.31,-0.3266,-0.3424,-0.3548,-0.3639,0.0,-0.4045,-0.4401,-0.474,0.0,0.0,0.0,0.0,0.0,0.0,0.0,0.0,0.0,0.0,0.0,0.0,-1.1552,-1.2877,-1.2963,-1.3,-1.2904,-1.2705,-1.2705,-1.2705,-1.2705,-1.2705,-1.296,-1.3398,-1.3398,-1.3659,-1.4088,0.0,0.0,0.0,-1.4088,-1.4088,-1.4088,-1.4088,-1.3943,-1.375,-1.406,-1.3849,-1.3461,-1.3752,-1.3689,-1.3492,-1.3492,-1.3492,-1.3492,-1.3492,-1.3492,-1.3492,-1.3492,-1.371,-1.4165,-1.5232,-1.6707,-1.81,-1.8908,-1.9108,-1.9108,-1.9108,-1.9108,-1.9067,-1.8922,-1.835,-1.7936,-1.7978,-1.743,-1.7253,-1.8041,-1.8247,-1.8697,-1.9929,-2.0007,-2.0099,-2.0381,-1.9838,-1.9516,-1.9677,-1.9688,-1.9631,-1.947,-1.9447,-1.939,-1.9241,-1.8873,-1.9309,-2.0658,-2.0621,-2.1455,-2.3168,-2.3831,-2.415,-2.4096,-2.453,-2.4504,-0.317,-0.3194,-0.3316,-0.3788,-0.3705,-0.3538,0.0,-0.3552,-0.3329,-0.3147,-0.3304,-0.3555,-0.3757,-0.3952,-0.4086,-0.4086,-0.4312,-0.4625,-0.493,0.0,0.0,0.0,0.0,0.0,0.0,0.0,0.0,0.0,0.0,0.0,0.0,-1.0193,-1.1763,-1.2662,-1.2705,-1.2705,-1.2705,-1.2705,-1.2705,-1.2705,-1.2705,-1.296,-1.3398,-1.3398,-1.3659,0.0,0.0,0.0,0.0,-1.4088,-1.4088,-1.4088,-1.4088,-1.4068,-1.4001,-1.3856,-1.3744,-1.3667,-1.3535,-1.3499,-1.3492,-1.3492,-1.3492,-1.3492,-1.3492,-1.3492,-1.3492,-1.3492,-1.4165,-1.5108,-1.6026,-1.7001,-1.7944,-1.8865,-1.9108,-1.9108,-1.9108,-1.9108,-1.8963,-1.8507,-1.8414,-1.8092,-1.7182,-1.7017,-1.7136,-1.7549,-1.7155,-1.76,-1.9739,-1.9137,-1.9019,-2.0278,-1.9505,-1.9114,-1.9643,-1.9688,-1.947,-1.8931,-1.8896,-1.8678,-1.8157,-1.8123,-1.8604,-1.9677,-2.0615,-2.1592,-2.2592,-2.3616,-2.4096,-2.4083,-2.4096,-2.4096,-0.3063,-0.3087,-0.3158,-0.3251,-0.3271,-0.3191,-0.3097,-0.324,-0.3378,-0.327,-0.3498,-0.3776,-0.3971,-0.4066,-0.4197,-0.4476,0.0,0.0,0.0,0.0,0.0,0.0,0.0,0.0,0.0,0.0,0.0,0.0,0.0,0.0,0.0,-0.9623,-1.075,-1.1714,-1.2363,-1.2705,-1.2705,-1.2705,-1.2705,-1.2705,-1.2875,-1.3137,-1.3398,-1.3519,0.0,0.0,0.0,0.0,0.0,-1.4088,-1.4088,-1.4068,-1.3861,-1.3641,-1.3466,-1.3466,-1.3344,-1.3181,-1.3419,-1.3492,-1.3492,-1.3492,-1.3492,-1.3492,-1.3492,-1.3492,-1.3492,-1.3492,-1.392,-1.4553,-1.5498,-1.6446,-1.7389,-1.8327,-1.8841,-1.9108,-1.9108,-1.8849,-1.859,-1.8445,-1.7885,-1.7347,-1.7058,-1.6758,-1.6724,-1.7143,-1.744,-1.8112,-1.943,-1.9719,-1.9965,-2.0347,-1.9826,-1.9356,-1.916,-1.8827,-1.8536,-1.8364,-1.8352,-1.8432,-1.8644,-1.8655,-1.9137,-2.0171,-2.0778,-2.144,-2.2113,-2.3138,-2.3611,-2.3611,-2.3611,-2.3437,0.0,-0.3026,-0.3065,-0.3136,-0.3118,-0.3043,-0.2991,-0.3193,-0.3329,-0.3251,-0.3522,-0.3843,-0.4012,-0.4054,-0.4205,-0.4512,-0.4704,0.0,0.0,0.0,0.0,0.0,0.0,0.0,0.0,0.0,0.0,0.0,0.0,0.0,0.0,-0.8842,-0.9797,-1.0755,-1.2009,-1.2705,-1.2705,-1.2705,-1.2705,-1.2705,-1.2966,-1.3222,-1.3398,-1.361,0.0,0.0,0.0,0.0,0.0,-1.3801,-1.3754,-1.3734,-1.3513,-1.33,-1.3052,-1.3234,-1.3121,-1.2973,-1.3346,-1.3492,-1.3492,-1.3492,-1.3492,-1.3492,-1.3492,-1.3492,-1.3492,-1.3492,-1.3674,-1.4165,-1.5384,-1.6193,-1.6929,-1.7984,-1.8685,-1.9005,-1.864,-1.8464,-1.831,-1.7936,-1.7399,-1.6955,-1.6789,-1.656,-1.6477,-1.6757,-1.7138,-1.7744,-1.8742,-1.9413,-1.9962,-2.0358,-1.9975,-1.9551,-1.9218,-1.8524,-1.8084,-1.8084,-1.8084,-1.826,-1.857,-1.8609,-1.9,-1.9826,-2.0288,-2.0801,-2.1337,-2.2127,-2.2636,-2.2836,-2.2836,-2.2745,0.0,-0.3001,-0.3087,-0.3297,-0.319,-0.3066,-0.3245,-0.3297,0.0,-0.3163,-0.3475,-0.3827,-0.3916,-0.4019,-0.4167,-0.4325,0.0,0.0,0.0,0.0,0.0,0.0,0.0,0.0,0.0,0.0,0.0,0.0,0.0,0.0,0.0,-0.8193,-0.9104,-0.9966,-1.1746,-1.2705,-1.2705,-1.2705,-1.2705,-1.2705,-1.3009,-1.3222,-1.3398,-1.361,0.0,0.0,0.0,0.0,0.0,-1.328,-1.3213,-1.3206,-1.3186,-1.3038,-1.286,-1.3175,-1.31,-1.2973,-1.3382,-1.3492,-1.3492,-1.3492,-1.3492,-1.3492,-1.3492,-1.3492,-1.3492,-1.3492,-1.3492,-1.3876,-1.5552,-1.6097,-1.6544,-1.7793,-1.8551,-1.8744,-1.7884,-1.803,-1.804,-1.7172,-1.6986,-1.6831,-1.6446,-1.6413,-1.6413,-1.6413,-1.6413,-1.6788,-1.7843,-1.843,-1.9185,-2.0217,-1.9918,-1.9654,-1.9688,-1.8707,-1.8134,-1.8141,-1.8107,-1.8141,-1.8272,-1.8203,-1.8421,-1.9,-1.943,-1.9932,-2.0502,-2.0909,-2.1391,-2.1908,-2.1847,-2.2046,-0.3085,0.0,-0.3166,-0.2913,-0.3053,-0.3189,0.0,-0.3225,-0.3431,-0.3406,0.0,-0.3904,-0.4303,-0.4221,-0.4245,0.0,0.0,0.0,0.0,0.0,0.0,0.0,0.0,0.0,0.0,0.0,0.0,0.0,0.0,0.0,0.0,-1.0144,-1.0761,-1.0971,-1.2095,-1.2705,-1.2705,-1.2705,-1.2705,-1.2705,-1.3137,-1.3355,-1.3398,-1.3828,0.0,0.0,0.0,0.0,-1.3307,-1.324,-1.3213,-1.3186,-1.2985,-1.2921,-1.294,-1.2977,-1.3036,-1.3156,-1.3419,-1.3492,-1.3492,-1.3492,-1.3492,-1.3492,-1.3492,-1.3492,-1.3492,-1.3492,-1.3492,-1.3848,-1.5251,-1.5696,-1.6098,-1.7429,-1.7897,-1.7957,-1.775,-1.7502,-1.7265,-1.7048,-1.6738,-1.6498,-1.6423,-1.6413,-1.6413,-1.6413,-1.6573,-1.6959,-1.7621,-1.8221,-1.8809,-1.9434,-1.9244,-1.9252,-1.9654,-1.8707,-1.8283,-1.869,-1.8329,-1.8639,-1.9796,-1.9126,-1.9137,-2.0033,-2.0165,-2.0641,-2.1558,-2.1252,-2.1368,-2.186,-2.111,-2.1021,-0.3244,-0.3268,-0.3248,-0.302,-0.3134,-0.3248,-0.3106,0.0,0.0,0.0,0.0,0.0,0.0,0.0,0.0,0.0,0.0,0.0,0.0,0.0,0.0,0.0,0.0,0.0,0.0,0.0,0.0,0.0,0.0,0.0,0.0,-1.0361,-1.0842,-1.1278,-1.18,-1.2272,-1.2705,-1.2705,-1.2705,-1.2705,-1.3179,-1.3398,-1.3392,-1.3732,-1.3753,0.0,0.0,0.0,-1.2986,-1.2852,-1.2792,-1.2779,-1.2643,-1.2651,-1.2818,-1.2882,-1.3046,-1.3236,-1.3419,-1.3492,-1.3492,-1.3492,-1.3492,-1.3492,-1.3492,-1.3492,-1.3492,-1.3492,-1.3492,-1.3775,-1.5054,-1.5452,-1.5822,-1.6879,-1.7416,-1.7551,-1.7183,-1.7213,-1.7203,-1.6789,-1.6715,-1.6622,-1.6444,-1.6413,-1.6413,-1.6413,-1.6516,-1.6771,-1.7187,-1.772,-1.828,-1.882,-1.877,-1.8971,-1.9654,-1.8707,-1.8329,-1.8862,-1.8644,-1.873,-1.9315,-1.8811,-1.8776,-1.9326,-1.9338,-1.9616,-2.016,-1.9875,-1.9989,-2.051,-1.9959,-2.0,-0.349,-0.3436,-0.3365,-0.3304,-0.3336,-0.3372,-0.3329,0.0,0.0,0.0,0.0,0.0,0.0,0.0,0.0,0.0,0.0,0.0,0.0,0.0,0.0,0.0,0.0,0.0,0.0,0.0,0.0,0.0,0.0,0.0,0.0,-1.0183,-1.0534,-1.1499,-1.1461,-1.1829,-1.2644,-1.2687,-1.2705,-1.2705,-1.3135,-1.3334,-1.3322,-1.3461,-1.3507,0.0,0.0,0.0,-1.2697,-1.2405,-1.2305,-1.2305,-1.2305,-1.2415,-1.2636,-1.282,-1.3046,-1.3236,-1.3419,-1.3492,-1.3492,-1.3492,-1.3492,-1.3492,-1.3492,-1.3492,-1.3492,-1.3492,-1.3492,-1.3746,-1.4883,-1.5288,-1.5584,-1.6372,-1.7047,-1.7316,-1.6629,-1.714,-1.7471,-1.6736,-1.6839,-1.6893,-1.655,-1.6454,-1.6413,-1.6413,-1.6413,-1.6488,-1.6761,-1.7245,-1.7752,-1.8328,-1.8413,-1.8742,-1.9528,-1.8811,-1.849,-1.8873,-1.8816,-1.8558,-1.8134,-1.8192,-1.8192,-1.8084,-1.8192,-1.8226,-1.8226,-1.8226,-1.849,-1.9011,-1.885,-1.9103,-0.3699,-0.3784,-0.371,-0.3256,-0.3421,-0.3671,-0.3432,0.0,0.0,0.0,0.0,0.0,0.0,0.0,0.0,0.0,0.0,0.0,0.0,0.0,0.0,0.0,0.0,0.0,0.0,0.0,0.0,0.0,0.0,0.0,0.0,-1.1537,-1.1537,-1.2448,-1.2278,-1.2206,-1.2373,-1.2596,-1.2705,-1.2699,-1.2948,-1.3042,-1.3077,-1.3206,-1.3133,0.0,0.0,-1.2643,-1.2365,-1.2318,-1.2305,-1.2305,-1.2305,-1.2415,-1.2636,-1.282,-1.3046,-1.3236,-1.3419,-1.3492,-1.3492,-1.3492,-1.3492,-1.3492,-1.3492,-1.3492,-1.3492,-1.3492,-1.3492,-1.371,-1.4697,-1.4922,-1.5155,-1.6117,-1.6675,-1.6995,-1.6918,-1.7327,-1.7657,-1.7523,-1.7234,-1.6986,-1.6924,-1.6632,-1.6413,-1.6413,-1.6413,-1.6488,-1.6761,-1.7069,-1.7422,-1.7796,-1.8045,-1.8405,-1.8965,-1.9287,-1.9298,-1.8919,-1.8467,-1.8203,-1.8084,-1.8552,-1.8547,-1.8123,-1.8563,-1.8782,-1.8782,-1.8782,-1.9046,-1.9551,-1.8639,-1.8742,-0.3676,-0.3778,-0.3781,-0.3527,-0.3773,-0.4034,-0.392,0.0,0.0,0.0,0.0,0.0,0.0,0.0,0.0,0.0,0.0,0.0,0.0,0.0,0.0,0.0,0.0,0.0,0.0,0.0,0.0,0.0,0.0,0.0,0.0,0.0,-1.1402,-1.0976,-1.129,-1.1438,-1.1438,-1.1552,-1.1857,-1.2282,-1.2616,-1.2802,-1.279,-1.2936,-1.2918,-1.2777,0.0,-1.2425,-1.2305,-1.2305,-1.2305,-1.2305,-1.2305,-1.2415,-1.2636,-1.2936,-1.3119,-1.3236,-1.3419,-1.3492,-1.3492,-1.3492,-1.3492,-1.3492,-1.3492,-1.3375,-1.3228,-1.3228,-1.336,-1.36,-1.4077,-1.4324,-1.4571,-1.5087,-1.5886,-1.6551,-1.6618,-1.74,-1.8009,-1.775,-1.7719,-1.7616,-1.7099,-1.6841,-1.6653,-1.6444,-1.6413,-1.6431,-1.6573,-1.6676,-1.6931,-1.7368,-1.7534,-1.8098,-1.9223,-1.9034,-1.8988,-1.931,-1.8558,-1.8084,-1.8084,-1.8341,-1.8352,-1.8096,-1.8341,-1.8455,-1.8455,-1.8455,-1.8581,-1.8811,-1.8341,-1.8375,-0.3643,-0.3715,-0.3788,-0.3819,-0.4016,-0.4251,-0.4471,-0.4551,0.0,0.0,0.0,0.0,0.0,0.0,0.0,0.0,0.0,0.0,0.0,0.0,0.0,0.0,0.0,0.0,0.0,0.0,0.0,0.0,0.0,0.0,0.0,0.0,-1.053,-0.9517,-1.0034,-1.033,-1.033,-1.0277,-1.0788,-1.188,-1.2303,-1.2469,-1.2503,-1.2632,-1.2683,-1.2663,-1.2405,-1.2305,-1.2298,-1.2231,-1.2204,-1.2204,-1.2204,-1.2355,-1.2636,-1.2936,-1.3077,-1.3136,-1.3361,-1.3411,-1.3397,-1.347,-1.344,-1.3382,-1.3382,-1.3155,-1.2892,-1.2892,-1.3075,-1.3313,-1.3438,-1.3715,-1.4026,-1.4221,-1.5346,-1.638,-1.6453,-1.7582,-1.8444,-1.8112,-1.8226,-1.8164,-1.744,-1.7151,-1.6903,-1.6581,-1.6446,-1.6431,-1.6488,-1.6488,-1.6676,-1.7134,-1.7217,-1.7805,-1.9278,-1.8611,-1.8501,-1.9447,-1.873,-1.8237,-1.8123,-1.8084,-1.8084,-1.8084,-1.8084,-1.8084,-1.8084,-1.8084,-1.8084,-1.8084,-1.8084,-1.8084,-0.3742,-0.3807,-0.381,-0.3862,-0.3857,0.0,-0.5011,-0.5332,0.0,-0.6441,0.0,0.0,0.0,0.0,0.0,0.0,0.0,0.0,0.0,0.0,0.0,0.0,0.0,0.0,0.0,0.0,0.0,0.0,0.0,0.0,0.0,0.0,0.0,-0.9471,-0.9328,-0.9227,-0.9227,-0.8957,-0.9875,-1.192,-1.207,-1.2145,-1.2132,-1.2285,-1.2338,-1.2331,-1.2311,-1.2305,-1.2278,-1.2047,-1.194,-1.194,-1.194,-1.2209,-1.2599,-1.2636,-1.2675,-1.2799,-1.3092,-1.315,-1.3097,-1.3397,-1.3287,-1.3045,-1.3045,-1.2811,-1.2521,-1.2521,-1.2543,-1.2652,-1.2968,-1.3323,-1.3719,-1.4107,-1.5574,-1.6885,-1.6949,-1.8071,-1.9046,-1.9015,-1.8683,-1.8393,-1.8299,-1.7564,-1.6996,-1.6965,-1.6643,-1.6488,-1.6733,-1.6761,-1.6864,-1.7162,-1.7267,-1.7655,-1.8508,-1.8293,-1.8352,-1.8919,-1.8885,-1.8632,-1.8107,-1.8084,-1.8084,-1.8084,-1.8084,-1.8084,-1.8084,-1.8084,-1.8084,-1.8084,-1.8084,-1.8084,-0.3665,-0.4041,-0.4403,-0.4343,-0.4766,0.0,0.0,-0.5828,-0.6306,-0.7122,-0.7763,0.0,0.0,0.0,0.0,0.0,0.0,0.0,0.0,0.0,0.0,0.0,0.0,0.0,0.0,0.0,0.0,0.0,0.0,0.0,0.0,0.0,0.0,-0.7525,-0.7887,-0.8121,-0.8121,-0.8128,-0.8813,-1.0097,-1.0772,-1.1445,-1.2022,-1.2203,-1.2204,-1.2067,-1.2067,-1.1931,-1.1744,-1.1637,-1.159,-1.159,-1.159,-1.1692,-1.1863,-1.2115,-1.2375,-1.2607,-1.2704,-1.2873,-1.2994,-1.2914,-1.2804,-1.2701,-1.2701,-1.2441,-1.2186,-1.2186,-1.2072,-1.2002,-1.2299,-1.281,-1.3211,-1.3166,-1.4894,-1.6533,-1.6561,-1.7896,-1.9108,-1.9108,-1.8963,-1.8745,-1.8465,-1.8102,-1.7688,-1.7099,-1.6872,-1.6724,-1.6576,-1.6545,-1.6648,-1.692,-1.7614,-1.8086,-1.8243,-1.8457,-1.8524,-1.8409,-1.8398,-1.8306,-1.8123,-1.8084,-1.8084,-1.8084,-1.8084,-1.8084,-1.8084,-1.8084,-1.8084,-1.8084,-1.8084,-1.8084,-0.3888,-0.4422,-0.4962,-0.4959,0.0,0.0,-0.636,-0.6713,-0.7275,-0.8252,0.0,0.0,0.0,0.0,0.0,0.0,0.0,0.0,0.0,0.0,0.0,0.0,0.0,0.0,0.0,0.0,0.0,0.0,0.0,0.0,0.0,0.0,0.0,0.0,-0.6834,-0.7073,-0.7019,-0.7167,-0.7664,-0.8575,-0.9264,-1.0118,-1.1163,-1.1296,-1.1409,-1.1442,-1.1442,-1.1436,-1.1382,-1.1295,-1.1255,-1.1255,-1.1255,-1.1343,-1.1532,-1.1806,-1.2053,-1.2275,-1.2393,-1.2531,-1.2645,-1.2529,-1.2419,-1.2332,-1.2332,-1.2105,-1.1882,-1.1882,-1.1728,-1.1643,-1.1831,-1.2298,-1.2751,-1.2836,-1.4414,-1.6019,-1.6408,-1.7734,-1.8908,-1.9075,-1.9108,-1.9005,-1.8683,-1.8507,-1.8123,-1.7337,-1.708,-1.6851,-1.6464,-1.6413,-1.6459,-1.6648,-1.7523,-1.8014,-1.7833,-1.8338,-1.8478,-1.8107,-1.8084,-1.8084,-1.8084,-1.8084,-1.8084,-1.8084,-1.8084,-1.8084,-1.8084,-1.8084,-1.8084,-1.8084,-1.8084,-1.8084,-0.4487,-0.4897,-0.5376,0.0,0.0,0.0,-0.7736,-0.8166,-0.8687,0.0,0.0,0.0,0.0,0.0,0.0,0.0,0.0,0.0,0.0,0.0,0.0,0.0,0.0,0.0,0.0,0.0,0.0,0.0,0.0,0.0,0.0,0.0,0.0,0.0,-0.6296,-0.6183,-0.5993,-0.599,-0.6537,-0.758,-0.7575,-0.8179,-0.9291,-0.9373,-0.9782,-1.0412,-1.0412,-1.0792,-1.1362,-1.1109,-1.0989,-1.0989,-1.0989,-1.1263,-1.1696,-1.1696,-1.1739,-1.1825,-1.2092,-1.21,-1.2054,-1.2375,-1.2259,-1.1996,-1.1996,-1.1809,-1.1591,-1.1591,-1.1591,-1.1591,-1.1591,-1.184,-1.236,-1.3361,-1.4326,-1.5349,-1.6623,-1.7619,-1.8438,-1.9008,-1.9108,-1.9108,-1.9108,-1.8714,-1.8237,-1.7771,-1.7316,-1.6862,-1.6436,-1.6413,-1.6413,-1.6413,-1.6864,-1.719,-1.719,-1.7744,-1.8084,-1.8084,-1.8084,-1.8084,-1.8084,-1.8084,-1.8084,-1.8084,-1.8084,-1.8084,-1.8084,-1.8084,-1.8084,-1.8084,-1.8084,-1.8084,-0.4385,-0.5273,0.0,-0.6326,0.0,0.0,0.0,-0.8689,0.0,0.0,0.0,0.0,0.0,0.0,0.0,0.0,0.0,0.0,0.0,0.0,0.0,0.0,0.0,0.0,0.0,0.0,0.0,0.0,0.0,0.0,0.0,0.0,0.0,0.0,-0.5939,-0.5915,-0.5871,-0.5983,-0.6284,-0.6766,-0.6748,-0.7683,-0.9403,-0.9892,-1.0103,-1.0138,-1.0614,-1.0837,-1.0841,-1.0754,-1.072,-1.072,-1.072,-1.0806,-1.0951,-1.1042,-1.1279,-1.1598,-1.1561,-1.1765,-1.1981,-1.1889,-1.1811,-1.1738,-1.1738,-1.1665,-1.1591,-1.1591,-1.1591,-1.1591,-1.1591,-1.1654,-1.1923,-1.2662,-1.3713,-1.4924,-1.6184,-1.7206,-1.8124,-1.8931,-1.9108,-1.9108,-1.9108,-1.8984,-1.8609,-1.7812,-1.7585,-1.7223,-1.6477,-1.6413,-1.6459,-1.6648,-1.7043,-1.7351,-1.7534,-1.7893,-1.8084,-1.8084,-1.8084,-1.8084,-1.8084,-1.8084,-1.8084,-1.8084,-1.8084,-1.8084,-1.8084,-1.8084,-1.8084,-1.8084,-1.8084,-1.8084,-0.5186,-0.6045,0.0,-0.7193,-0.7965,-0.8764,-0.9184,0.0,0.0,0.0,0.0,0.0,0.0,0.0,0.0,0.0,0.0,0.0,0.0,0.0,0.0,0.0,0.0,0.0,0.0,0.0,0.0,0.0,0.0,0.0,0.0,0.0,0.0,0.0,-0.58,-0.5776,-0.5718,-0.5828,-0.5972,-0.6075,-0.615,-0.6865,-0.8162,-0.891,-0.9438,-0.9825,-1.0555,-1.0754,-1.0593,-1.0593,-1.0593,-1.0593,-1.0593,-1.0618,-1.0688,-1.0776,-1.1044,-1.1336,-1.1304,-1.1495,-1.172,-1.1626,-1.1591,-1.1591,-1.1591,-1.1591,-1.1591,-1.1591,-1.1591,-1.1591,-1.1591,-1.1591,-1.1796,-1.2573,-1.3319,-1.4338,-1.6048,-1.6946,-1.7696,-1.8764,-1.9042,-1.9108,-1.9108,-1.8953,-1.859,-1.7812,-1.7399,-1.6995,-1.6475,-1.6413,-1.6459,-1.662,-1.6902,-1.7155,-1.7323,-1.77,-1.7947,-1.7947,-1.803,-1.8084,-1.8084,-1.8084,-1.8084,-1.8084,-1.8084,-1.8084,-1.8084,-1.8084,-1.8084,-1.8084,-1.8084,-1.8084,-0.6411,0.0,0.0,-0.8063,-0.856,0.0,-0.9739,0.0,0.0,0.0,0.0,0.0,0.0,0.0,0.0,0.0,0.0,0.0,0.0,0.0,0.0,0.0,0.0,0.0,0.0,0.0,0.0,0.0,0.0,0.0,0.0,0.0,0.0,0.0,-0.5762,-0.5698,-0.5569,-0.5569,-0.5596,0.0,-0.5789,-0.6053,-0.6309,-0.7195,-0.8328,-0.9646,-1.0301,-1.0593,-1.0593,-1.0593,-1.0593,-1.0593,-1.0593,-1.0681,-1.0776,-1.0776,-1.0902,-1.109,-1.124,-1.1279,-1.1334,-1.1529,-1.1591,-1.1591,-1.1591,-1.1591,-1.1591,-1.1591,-1.1591,-1.1591,-1.1591,-1.1591,-1.184,-1.2785,-1.2996,-1.3611,-1.5877,-1.6486,-1.7027,-1.8342,-1.8752,-1.8874,-1.8951,-1.8631,-1.8175,-1.7709,-1.6933,-1.6413,-1.6413,-1.6413,-1.6413,-1.6413,-1.6648,-1.6818,-1.6818,-1.7323,-1.7684,-1.7711,-1.7931,-1.8057,-1.8084,-1.8084,-1.8084,-1.8084,-1.8084,-1.8084,-1.8084,-1.8084,-1.8084,-1.8084,-1.8084,-1.8084,-0.5975,-0.674,0.0,0.0,-0.8673,-0.9222,-0.9572,0.0,0.0,0.0,0.0,0.0,0.0,0.0,0.0,0.0,0.0,0.0,0.0,0.0,0.0,0.0,0.0,0.0,0.0,0.0,0.0,0.0,0.0,0.0,0.0,0.0,0.0,-0.5491,-0.5491,-0.5474,-0.5443,-0.5443,-0.5489,0.0,-0.5789,-0.6276,-0.7018,-0.7869,-0.9037,-1.0364,-1.053,-1.0593,-1.0593,-1.0593,-1.0593,-1.0593,-1.0593,-1.0624,-1.0656,-1.0656,-1.0744,-1.0902,-1.109,-1.1209,-1.1334,-1.1529,-1.1591,-1.1591,-1.1591,-1.1591,-1.1591,-1.1591,-1.1591,-1.1591,-1.1591,-1.1591,-1.1725,-1.214,-1.2229,-1.2661,-1.4164,-1.4522,-1.5012,-1.6664,-1.7027,-1.726,-1.7893,-1.7905,-1.7688,-1.7234,-1.6726,-1.6413,-1.6413,-1.6413,-1.6413,-1.6413,-1.6648,-1.6818,-1.6818,-1.7117,-1.7423,-1.7684,-1.7767,-1.7865,-1.8084,-1.8084,-1.8084,-1.8084,-1.8084,-1.8084,-1.8084,-1.8084,-1.8084,-1.8084,-1.8084,-1.8084,-0.6144,0.0,0.0,-0.8593,0.0,0.0,0.0,0.0,0.0,0.0,0.0,0.0,0.0,0.0,0.0,0.0,0.0,0.0,0.0,0.0,0.0,0.0,0.0,0.0,0.0,0.0,0.0,0.0,0.0,0.0,0.0,-0.5752,-0.5395,-0.5395,-0.5395,-0.5395,-0.5395,-0.5395,-0.5425,-0.5521,-0.5686,-0.6272,-0.7246,-0.8096,-0.9069,-1.0072,-1.0072,-1.0269,-1.0593,-1.0593,-1.0593,-1.0593,-1.0593,-1.0593,-1.0593,-1.0593,-1.0656,-1.0713,-1.0902,-1.1059,-1.1216,-1.1404,-1.1529,-1.1591,-1.1591,-1.1591,-1.1591,-1.1591,-1.1591,-1.1591,-1.1591,-1.1591,-1.1635,-1.1772,-1.1926,-1.2312,-1.3538,-1.3834,-1.4312,-1.5748,-1.6268,-1.668,-1.7264,-1.7349,-1.7213,-1.6788,-1.6529,-1.6413,-1.6413,-1.6413,-1.6413,-1.6413,-1.6516,-1.6648,-1.679,-1.706,-1.7329,-1.7684,-1.7822,-1.7947,-1.8084,-1.8084,-1.8084,-1.8084,-1.8084,-1.8084,-1.8084,-1.8084,-1.8084,-1.8084,-1.8084,-1.8084,-0.6456,0.0,-0.8319,-0.9115,-0.9259,0.0,0.0,0.0,0.0,0.0,0.0,0.0,0.0,0.0,0.0,0.0,0.0,0.0,0.0,0.0,0.0,0.0,0.0,0.0,0.0,0.0,0.0,0.0,0.0,0.0,-0.6235,-0.5686,-0.5395,-0.5395,-0.5395,-0.5395,-0.5395,-0.5395,-0.5395,-0.5395,-0.5587,-0.6141,-0.7051,-0.7804,-0.8581,-0.9326,-0.9326,-0.9684,-1.0231,-1.0231,-1.0301,-1.0396,-1.0396,-1.0491,-1.0593,-1.0593,-1.0593,-1.0624,-1.0744,-1.0933,-1.1122,-1.1272,-1.1428,-1.1591,-1.1591,-1.1591,-1.1591,-1.1591,-1.1591,-1.1591,-1.1591,-1.1591,-1.1591,-1.1591,-1.1765,-1.2191,-1.3125,-1.3525,-1.3998,-1.506,-1.5924,-1.6558,-1.6837,-1.689,-1.6748,-1.6322,-1.6361,-1.6381,-1.6299,-1.6361,-1.6413,-1.6413,-1.6413,-1.6488,-1.6705,-1.692,-1.7228,-1.7601,-1.7849,-1.8002,-1.8084,-1.8084,-1.8084,-1.8084,-1.8084,-1.8084,-1.8084,-1.8084,-1.8084,-1.8084,-1.8084,-1.8084,0.0,0.0,-0.8316,0.0,-0.9195,0.0,0.0,0.0,0.0,0.0,0.0,0.0,0.0,0.0,0.0,0.0,0.0,0.0,0.0,0.0,0.0,0.0,0.0,0.0,0.0,0.0,0.0,0.0,0.0,0.0,-0.5524,-0.5462,-0.5395,-0.5395,-0.5395,-0.5395,-0.5395,-0.5395,-0.5395,-0.5395,-0.5723,-0.6017,-0.6342,-0.6576,-0.7391,-0.8651,-0.8651,-0.8683,-0.878,-0.878,-0.9134,-0.9646,-0.9646,-1.004,-1.0593,-1.0593,-1.0593,-1.0624,-1.0744,-1.0933,-1.1122,-1.1272,-1.1428,-1.1591,-1.1591,-1.1591,-1.1591,-1.1591,-1.1591,-1.1591,-1.1591,-1.1591,-1.1591,-1.1591,-1.1628,-1.1703,-1.1835,-1.2422,-1.321,-1.4034,-1.5399,-1.6434,-1.6463,-1.6479,-1.6312,-1.5846,-1.6153,-1.6267,-1.5863,-1.6153,-1.6413,-1.6413,-1.6413,-1.6402,-1.6459,-1.6488,-1.6744,-1.7334,-1.739,-1.7629,-1.8084,-1.8084,-1.8084,-1.8084,-1.8084,-1.8084,-1.8084,-1.8084,-1.8084,-1.8084,-1.8084,-1.8084,-0.6946,-0.7643,-0.8212,0.0,0.0,0.0,0.0,0.0,0.0,0.0,0.0,0.0,0.0,0.0,0.0,0.0,0.0,0.0,0.0,0.0,0.0,0.0,0.0,0.0,0.0,0.0,0.0,0.0,0.0,-0.5395,-0.5395,-0.5395,-0.5395,-0.5395,-0.5395,-0.5354,-0.5233,-0.5351,-0.5395,-0.5395,-0.562,-0.5851,-0.605,-0.6218,-0.69,-0.7944,-0.7944,-0.8166,-0.8522,-0.8909,-0.923,-0.955,-0.9945,-1.0301,-1.0593,-1.0593,-1.0593,-1.0624,-1.0744,-1.0933,-1.1122,-1.1272,-1.1428,-1.1591,-1.1591,-1.1591,-1.1591,-1.1591,-1.1591,-1.1591,-1.1591,-1.1591,-1.1591,-1.1591,-1.1591,-1.1591,-1.1591,-1.1895,-1.2405,-1.3411,-1.4677,-1.5662,-1.5972,-1.623,-1.634,-1.6105,-1.6022,-1.6039,-1.6091,-1.6022,-1.6122,-1.6381,-1.6413,-1.6459,-1.662,-1.662,-1.679,-1.7239,-1.7434,-1.7629,-1.7877,-1.803,-1.8084,-1.8084,-1.8084,-1.8084,-1.8084,-1.8084,-1.8084,-1.8084,-1.8084,-1.8084,0.0,0.0,-0.7821,0.0,0.0,0.0,0.0,0.0,0.0,0.0,0.0,0.0,0.0,0.0,0.0,0.0,0.0,0.0,0.0,0.0,0.0,0.0,0.0,0.0,0.0,0.0,0.0,0.0,0.0,-0.5395,-0.5395,-0.5358,-0.5337,-0.5337,-0.5337,-0.523,-0.5046,-0.5192,-0.53,-0.5337,-0.5461,-0.5647,-0.5822,-0.6083,-0.6539,-0.7162,-0.7199,-0.7489,-0.8004,-0.8716,-0.9102,-0.9326,-1.004,-1.0428,-1.0593,-1.0593,-1.0593,-1.0624,-1.0744,-1.0933,-1.1122,-1.1272,-1.1428,-1.1591,-1.1591,-1.1591,-1.1591,-1.1591,-1.1591,-1.1591,-1.1591,-1.1591,-1.1591,-1.1591,-1.1591,-1.1654,-1.1864,-1.1895,-1.2228,-1.3381,-1.4261,-1.4951,-1.543,-1.5904,-1.6148,-1.5895,-1.578,-1.5732,-1.5835,-1.5649,-1.5676,-1.6019,-1.6022,-1.6158,-1.6486,-1.6525,-1.669,-1.7078,-1.7396,-1.7617,-1.7711,-1.7959,-1.8084,-1.8084,-1.8084,-1.8084,-1.8084,-1.8084,-1.8084,-1.8084,-1.8084,-1.8084,0.0,-0.6668,0.0,0.0,0.0,0.0,0.0,0.0,0.0,0.0,0.0,0.0,0.0,0.0,0.0,0.0,0.0,0.0,0.0,0.0,0.0,0.0,0.0,0.0,0.0,0.0,0.0,0.0,0.0,-0.5395,-0.5395,-0.5223,-0.511,-0.511,-0.511,-0.5042,-0.4901,-0.4908,-0.4978,-0.511,-0.5308,-0.5478,-0.5617,-0.6013,-0.621,-0.6276,-0.6416,-0.6482,-0.6581,-0.7293,-0.7977,-0.8613,-0.9294,-0.9977,-1.0593,-1.0593,-1.0593,-1.0624,-1.0744,-1.0933,-1.1122,-1.1272,-1.1428,-1.1591,-1.1591,-1.1591,-1.1591,-1.1591,-1.1591,-1.1591,-1.1591,-1.1591,-1.1591,-1.1591,-1.1591,-1.1809,-1.2558,-1.2734,-1.307,-1.4231,-1.4469,-1.4617,-1.4893,-1.5371,-1.5413,-1.4542,-1.5151,-1.538,-1.4521,-1.478,-1.5038,-1.507,-1.507,-1.5272,-1.5708,-1.5749,-1.6064,-1.6786,-1.7088,-1.7368,-1.7684,-1.7959,-1.8084,-1.8084,-1.8084,-1.8084,-1.8084,-1.8084,-1.8084,-1.8084,-1.8084,-1.8084,0.0,0.0,0.0,0.0,0.0,0.0,0.0,0.0,0.0,0.0,0.0,0.0,0.0,0.0,0.0,0.0,0.0,0.0,0.0,0.0,0.0,0.0,0.0,0.0,0.0,0.0,0.0,0.0,0.0,0.0,-0.5928,-0.5831,-0.5559,-0.4996,-0.4965,-0.4938,-0.4887,-0.4823,-0.4847,-0.4965,-0.5058,-0.5178,-0.5352,-0.5588,-0.5768,-0.5896,-0.6148,-0.6317,-0.6449,-0.7199,-0.7907,-0.8554,-0.923,-0.9945,-1.0593,-1.0593,-1.0593,-1.0624,-1.0744,-1.0933,-1.1122,-1.1272,-1.1428,-1.1591,-1.1591,-1.1591,-1.1591,-1.1591,-1.1591,-1.1591,-1.1591,-1.1591,-1.1591,-1.1591,-1.1591,-1.1685,-1.1957,-1.2205,-1.2505,-1.3086,-1.3623,-1.4082,-1.4389,-1.4863,-1.5061,-1.4754,-1.4751,-1.4887,-1.5162,-1.5079,-1.5219,-1.5818,-1.5915,-1.5977,-1.6143,-1.6164,-1.6339,-1.6779,-1.706,-1.7368,-1.7684,-1.7959,-1.8084,-1.8084,-1.8084,-1.8084,-1.8084,-1.8084,-1.8084,-1.8084,-1.8084,-1.8084,-0.6097,0.0,0.0,0.0,0.0,0.0,0.0,0.0,0.0,0.0,0.0,0.0,0.0,0.0,0.0,0.0,0.0,0.0,0.0,0.0,0.0,0.0,0.0,0.0,0.0,0.0,0.0,0.0,0.0,0.0,-0.6219,-0.5935,-0.5486,-0.4847,-0.4792,-0.4792,-0.4843,-0.4691,-0.4691,-0.4843,-0.4873,-0.4987,-0.5188,-0.5388,-0.5532,-0.568,-0.5974,-0.6173,-0.6396,-0.7167,-0.7907,-0.8554,-0.923,-0.9945,-1.0593,-1.0593,-1.0593,-1.0624,-1.0744,-1.0933,-1.1122,-1.1272,-1.1428,-1.1591,-1.1591,-1.1591,-1.1591,-1.1591,-1.1591,-1.1591,-1.1591,-1.1591,-1.1591,-1.1591,-1.1591,-1.1591,-1.1591,-1.1778,-1.2027,-1.2305,-1.2789,-1.3299,-1.3731,-1.4181,-1.4483,-1.448,-1.4516,-1.4703,-1.5188,-1.5089,-1.5239,-1.5849,-1.5946,-1.598,-1.6164,-1.6174,-1.6321,-1.6637,-1.692,-1.7172,-1.7407,-1.7755,-1.7986,-1.7986,-1.8057,-1.8084,-1.8084,-1.8084,-1.8084,-1.8084,-1.8084,-1.8084,0.0,0.0,0.0,0.0,0.0,0.0,0.0,0.0,0.0,0.0,0.0,0.0,0.0,0.0,0.0,0.0,0.0,0.0,0.0,0.0,0.0,0.0,0.0,0.0,0.0,0.0,0.0,0.0,0.0,-0.6371,-0.6234,-0.5382,-0.484,-0.4687,-0.4566,-0.4563,-0.468,-0.4563,-0.4563,-0.4684,-0.4832,-0.4968,-0.5106,-0.5415,-0.5593,-0.5589,-0.5789,-0.6012,-0.6238,-0.7104,-0.7869,-0.8554,-0.923,-0.9939,-1.0593,-1.0593,-1.0593,-1.0624,-1.0744,-1.0933,-1.1122,-1.124,-1.1435,-1.1591,-1.1591,-1.1591,-1.1591,-1.1591,-1.1591,-1.1591,-1.1591,-1.1591,-1.1591,-1.1591,-1.1591,-1.1591,-1.1591,-1.1591,-1.1685,-1.2058,-1.212,-1.2305,-1.2928,-1.3398,-1.366,-1.36,-1.4364,-1.4796,-1.4363,-1.4712,-1.5012,-1.5038,-1.5038,-1.5214,-1.567,-1.5711,-1.5936,-1.6381,-1.6648,-1.6818,-1.6807,-1.7379,-1.7684,-1.7711,-1.7959,-1.8084,-1.8084,-1.8084,-1.8084,-1.8084,-1.8084,-1.8084,-0.5941,0.0,0.0,0.0,0.0,0.0,0.0,0.0,0.0,0.0,0.0,0.0,0.0,0.0,0.0,0.0,0.0,0.0,0.0,0.0,0.0,0.0,0.0,0.0,0.0,0.0,0.0,0.0,-0.7821,-0.7205,-0.6524,-0.5297,-0.4597,-0.4556,-0.4511,-0.4511,-0.4552,-0.4511,-0.4511,-0.4552,-0.4584,-0.4692,-0.4819,-0.4995,-0.5158,-0.5252,-0.5559,-0.5715,-0.5812,-0.6341,-0.7314,-0.8522,-0.8716,-0.9524,-1.0593,-1.0593,-1.0593,-1.0624,-1.0656,-1.0744,-1.0902,-1.109,-1.1247,-1.1397,-1.156,-1.1591,-1.1591,-1.1591,-1.1591,-1.1591,-1.1591,-1.1591,-1.1591,-1.1591,-1.1591,-1.1591,-1.1591,-1.1591,-1.1747,-1.2305,-1.2398,-1.2605,-1.3246,-1.348,-1.3567,-1.3523,-1.3744,-1.4112,-1.4649,-1.484,-1.521,-1.5935,-1.6029,-1.6081,-1.6205,-1.6216,-1.6352,-1.6666,-1.6761,-1.6902,-1.7155,-1.7295,-1.7451,-1.7711,-1.7767,-1.7904,-1.8084,-1.8084,-1.8084,-1.8084,-1.8084,-1.8084,0.0,0.0,0.0,0.0,0.0,0.0,0.0,-0.7388,0.0,0.0,0.0,0.0,0.0,0.0,0.0,0.0,0.0,0.0,0.0,0.0,0.0,0.0,0.0,0.0,0.0,0.0,0.0,-0.871,-0.7933,-0.6973,-0.5871,-0.499,-0.4491,-0.4491,-0.4491,-0.4491,-0.4491,-0.4491,-0.4491,-0.4491,-0.4546,-0.4632,-0.4695,-0.49,-0.5029,-0.5109,-0.5367,-0.5525,-0.5628,-0.5865,-0.675,-0.7984,-0.827,-0.9105,-1.0168,-1.0491,-1.0593,-1.0593,-1.0593,-1.0688,-1.0839,-1.1028,-1.1185,-1.1341,-1.1529,-1.1591,-1.1591,-1.1591,-1.1591,-1.1591,-1.1591,-1.1591,-1.1591,-1.1591,-1.1591,-1.1591,-1.1591,-1.1591,-1.1747,-1.2243,-1.2336,-1.2552,-1.3186,-1.3277,-1.3338,-1.348,-1.3662,-1.4001,-1.4538,-1.4775,-1.5225,-1.6029,-1.6116,-1.6202,-1.6374,-1.6413,-1.6459,-1.662,-1.663,-1.6705,-1.6913,-1.7127,-1.734,-1.7518,-1.7767,-1.7947,-1.8084,-1.8084,-1.8084,-1.8084,-1.8084,-1.8084,-0.6785,-0.7177,0.0,0.0,0.0,0.0,-0.7461,-0.7328,0.0,0.0,0.0,0.0,0.0,0.0,0.0,0.0,0.0,0.0,0.0,0.0,0.0,0.0,0.0,0.0,0.0,-0.862,-0.862,-0.862,-0.744,-0.6154,-0.4843,-0.4591,-0.4491,-0.4491,-0.4491,-0.4491,-0.4491,-0.4491,-0.4491,-0.4491,-0.4632,-0.4688,-0.4719,-0.4936,-0.5073,-0.5097,-0.5215,-0.5386,-0.5555,-0.5555,-0.6202,-0.7226,-0.7835,-0.866,-0.9545,-1.0218,-1.053,-1.0593,-1.0593,-1.0681,-1.0807,-1.0996,-1.1153,-1.1303,-1.1498,-1.1591,-1.1591,-1.1591,-1.1591,-1.1591,-1.1591,-1.1591,-1.1591,-1.1591,-1.1591,-1.1591,-1.1591,-1.1591,-1.1685,-1.2034,-1.212,-1.2344,-1.2889,-1.3042,-1.3164,-1.345,-1.3851,-1.413,-1.4189,-1.4567,-1.501,-1.5556,-1.5614,-1.5788,-1.6202,-1.6288,-1.6316,-1.6316,-1.6384,-1.6413,-1.6413,-1.6941,-1.725,-1.7306,-1.781,-1.8084,-1.8084,-1.8084,-1.8084,-1.8084,-1.8084,-1.8084,-0.6946,-0.7363,-0.7425,-0.7054,0.0,0.0,-0.7,-0.6921,0.0,0.0,0.0,0.0,0.0,0.0,0.0,0.0,0.0,0.0,0.0,0.0,0.0,0.0,0.0,0.0,0.0,-0.8051,-0.8051,-0.8051,-0.6967,-0.5981,-0.5223,-0.475,-0.4491,-0.4491,-0.4491,-0.4491,-0.4491,-0.4491,-0.4491,-0.4491,-0.4519,-0.4605,-0.4691,-0.4746,-0.4908,-0.5097,-0.5128,-0.5231,-0.5349,-0.5349,-0.5981,-0.6999,-0.7285,-0.8182,-0.9377,-0.9629,-1.0104,-1.0593,-1.0593,-1.0624,-1.0649,-1.0807,-1.0996,-1.1185,-1.1303,-1.1466,-1.1591,-1.1591,-1.1591,-1.1591,-1.1591,-1.1591,-1.1591,-1.1591,-1.1591,-1.1591,-1.1591,-1.1591,-1.1685,-1.2034,-1.2274,-1.2552,-1.292,-1.3216,-1.342,-1.348,-1.3571,-1.3782,-1.416,-1.4279,-1.4517,-1.501,-1.5069,-1.5098,-1.5186,-1.5585,-1.5856,-1.5856,-1.6202,-1.6413,-1.6413,-1.6705,-1.7015,-1.7228,-1.781,-1.8084,-1.8084,-1.8084,-1.8084,-1.8084,-1.8084,-1.8084,-0.724,-0.7576,-0.7534,-0.7267,0.0,0.0,0.0,0.0,-0.7273,0.0,0.0,0.0,0.0,0.0,0.0,0.0,0.0,0.0,0.0,0.0,0.0,0.0,0.0,0.0,0.0,-0.7901,-0.7794,-0.7521,-0.6701,-0.5937,-0.5332,-0.4791,-0.4491,-0.4491,-0.4491,-0.4491,-0.4491,-0.4491,-0.4491,-0.4491,-0.4491,-0.4546,-0.4605,-0.466,-0.477,-0.4908,-0.5042,-0.5128,-0.5211,-0.527,-0.5626,-0.6147,-0.6723,-0.7605,-0.8602,-0.9004,-0.959,-1.0171,-1.0287,-1.0278,-1.0235,-1.0774,-1.0892,-1.0918,-1.1322,-1.1529,-1.1591,-1.1591,-1.1591,-1.1591,-1.1591,-1.1591,-1.1591,-1.1591,-1.1591,-1.1591,-1.1591,-1.1591,-1.1654,-1.1809,-1.2089,-1.2459,-1.292,-1.3133,-1.3307,-1.348,-1.3511,-1.3571,-1.3821,-1.3851,-1.4121,-1.4834,-1.4893,-1.5098,-1.5604,-1.5875,-1.6058,-1.6058,-1.6259,-1.6413,-1.6413,-1.6648,-1.692,-1.719,-1.7673,-1.7904,-1.7904,-1.803,-1.8084,-1.8084,-1.8084,-1.8084,0.0,0.0,0.0,0.0,0.0,-0.7624,0.0,0.0,0.0,-0.7742,0.0,0.0,0.0,0.0,0.0,0.0,0.0,0.0,0.0,0.0,0.0,0.0,0.0,0.0,0.0,-0.7853,-0.7682,-0.7273,-0.6553,-0.5923,-0.5496,-0.4842,-0.4491,-0.4491,-0.4491,-0.4491,-0.4491,-0.4491,-0.4491,-0.4491,-0.4491,-0.4491,-0.4519,-0.4605,-0.4688,-0.4719,-0.4959,-0.5069,-0.5097,-0.5242,-0.5297,-0.5368,-0.6191,-0.6938,-0.768,-0.8346,-0.8984,-0.9567,-0.9947,-0.9909,-0.9876,-1.0655,-1.0782,-1.0774,-1.1396,-1.1591,-1.1591,-1.1591,-1.1591,-1.1591,-1.1591,-1.1591,-1.1591,-1.1591,-1.1591,-1.1591,-1.1591,-1.1591,-1.1591,-1.1591,-1.1809,-1.2182,-1.2736,-1.292,-1.3103,-1.3359,-1.345,-1.3511,-1.3511,-1.3511,-1.3812,-1.4686,-1.4775,-1.5128,-1.6019,-1.6202,-1.6269,-1.6269,-1.6355,-1.6413,-1.6413,-1.6648,-1.692,-1.719,-1.7479,-1.759,-1.759,-1.7904,-1.8057,-1.8084,-1.8084,-1.8084,0.0,0.0,0.0,0.0,-0.7725,0.0,0.0,0.0,-0.754,-0.7334,0.0,0.0,0.0,0.0,0.0,0.0,0.0,0.0,0.0,0.0,0.0,0.0,0.0,0.0,0.0,0.0,-0.7689,-0.7797,-0.6597,-0.591,-0.6086,-0.5089,-0.4491,-0.4491,-0.4491,-0.4491,-0.4491,-0.4491,-0.4491,-0.4491,-0.4491,-0.4491,-0.4491,-0.4519,-0.4574,-0.4719,-0.4849,-0.4983,-0.5097,-0.5242,-0.5297,-0.5317,-0.5628,-0.6162,-0.6917,-0.764,-0.8334,-0.8991,-0.9677,-0.9909,-0.9918,-1.0125,-1.0483,-1.0888,-1.1427,-1.1591,-1.1591,-1.1591,-1.1591,-1.1591,-1.1591,-1.1591,-1.1591,-1.1591,-1.1591,-1.1591,-1.1591,-1.1591,-1.1591,-1.1591,-1.1622,-1.1778,-1.2151,-1.2652,-1.3011,-1.3042,-1.3307,-1.3511,-1.3511,-1.3511,-1.3692,-1.4219,-1.4279,-1.4478,-1.504,-1.5527,-1.5788,-1.5788,-1.6173,-1.6413,-1.6413,-1.6648,-1.692,-1.719,-1.7245,-1.7256,-1.7256,-1.759,-1.7865,-1.8084,-1.8084,-1.8084,0.0,0.0,0.0,0.0,0.0,0.0,-0.7405,0.0,-0.7607,0.0,0.0,0.0,0.0,0.0,0.0,0.0,0.0,0.0,0.0,0.0,0.0,0.0,0.0,0.0,0.0,0.0,0.0,0.0,0.0,-0.5987,-0.6195,-0.5418,-0.4818,-0.4519,-0.4491,-0.4491,-0.4491,-0.4491,-0.4491,-0.4491,-0.4491,-0.4491,-0.4491,-0.4491,-0.4519,-0.4605,-0.4818,-0.4928,-0.5038,-0.5586,-0.5837,-0.5868,-0.6308,-0.6646,-0.702,-0.7633,-0.8263,-0.8854,-0.9331,-0.9451,-0.9439,-0.9862,-1.0301,-1.0762,-1.118,-1.1305,-1.1349,-1.154,-1.1591,-1.1591,-1.1591,-1.1591,-1.1591,-1.1591,-1.1591,-1.1591,-1.1591,-1.1591,-1.1591,-1.1591,-1.1591,-1.1654,-1.1786,-1.2305,-1.2767,-1.2981,-1.3277,-1.3511,-1.3511,-1.3511,-1.3692,-1.416,-1.4189,-1.4398,-1.4863,-1.5108,-1.5254,-1.5254,-1.5701,-1.6,-1.6,-1.6363,-1.662,-1.6733,-1.6892,-1.6976,-1.6976,-1.7284,-1.7479,-1.7579,-1.7947,-1.8084,-0.7327,0.0,0.0,0.0,0.0,0.0,0.0,0.0,0.0,0.0,0.0,0.0,0.0,0.0,0.0,0.0,0.0,0.0,0.0,0.0,0.0,0.0,0.0,0.0,0.0,0.0,0.0,0.0,0.0,0.0,-0.6195,-0.5496,-0.4897,-0.4519,-0.4491,-0.4491,-0.4491,-0.4491,-0.4491,-0.4491,-0.4491,-0.4491,-0.4491,-0.4491,-0.4491,-0.4519,-0.4736,-0.4846,-0.4901,-0.5773,-0.6159,-0.6213,-0.7025,-0.7321,-0.7375,-0.7765,-0.8176,-0.8612,-0.9018,-0.9112,-0.9135,-0.9711,-1.0126,-1.0479,-1.0946,-1.1107,-1.1173,-1.1503,-1.1591,-1.1591,-1.1591,-1.1591,-1.1591,-1.1591,-1.1591,-1.1591,-1.1591,-1.1591,-1.1591,-1.1591,-1.1591,-1.1622,-1.1716,-1.2143,-1.2582,-1.2828,-1.3246,-1.3511,-1.3511,-1.3511,-1.3692,-1.416,-1.4189,-1.4398,-1.4863,-1.4893,-1.4893,-1.4893,-1.54,-1.5701,-1.5701,-1.6144,-1.6413,-1.6413,-1.6602,-1.6676,-1.6676,-1.6948,-1.7078,-1.7106,-1.7617,-1.7854,0.0,0.0,0.0,-0.6809,0.0,0.0,0.0,0.0,-0.7816,0.0,0.0,0.0,0.0,0.0,0.0,0.0,0.0,0.0,0.0,0.0,0.0,0.0,0.0,0.0,0.0,0.0,0.0,0.0,0.0,0.0,-0.6158,-0.5144,-0.4519,-0.4491,-0.4491,-0.4491,-0.4491,-0.4491,-0.4491,-0.4491,-0.4491,-0.4491,-0.4491,-0.4491,-0.4491,-0.4519,-0.4632,-0.4719,-0.477,-0.5645,-0.6,-0.6136,-0.7391,-0.7871,-0.7871,-0.7898,-0.7898,-0.8037,-0.8752,-0.9094,-0.926,-0.9758,-0.99,-1.0077,-1.085,-1.1107,-1.1173,-1.1503,-1.1591,-1.1591,-1.1591,-1.1591,-1.1591,-1.1591,-1.1591,-1.1591,-1.1591,-1.1591,-1.1591,-1.1591,-1.1591,-1.1685,-1.2034,-1.2336,-1.2482,-1.2513,-1.3086,-1.3511,-1.3511,-1.3511,-1.3692,-1.416,-1.4189,-1.4398,-1.4863,-1.4893,-1.4893,-1.4893,-1.54,-1.5701,-1.5701,-1.6144,-1.6413,-1.6413,-1.6402,-1.6402,-1.6402,-1.6676,-1.6807,-1.6818,-1.7117,-1.7217,0.0,0.0,-0.5698,-0.6084,0.0,0.0,0.0,0.0,0.0,0.0,0.0,0.0,0.0,0.0,0.0,0.0,0.0,0.0,0.0,0.0,0.0,0.0,0.0,0.0,0.0,0.0,0.0,0.0,0.0,0.0,0.0,-0.5445,-0.4873,-0.4519,-0.4491,-0.4491,-0.4491,-0.4491,-0.4491,-0.4491,-0.4491,-0.4491,-0.4491,-0.4491,-0.4491,-0.4519,-0.4632,-0.4691,-0.4798,-0.6073,-0.6588,-0.6723,-0.799,-0.8507,-0.8507,-0.8507,-0.8507,-0.8553,-0.8877,-0.9035,-0.9101,-0.9364,-0.9498,-0.9692,-1.0415,-1.0697,-1.0894,-1.1437,-1.1591,-1.1591,-1.1591,-1.1591,-1.1591,-1.1591,-1.1591,-1.1591,-1.1591,-1.1591,-1.1591,-1.1591,-1.1591,-1.1622,-1.1747,-1.2027,-1.2367,-1.2767,-1.3216,-1.3511,-1.3511,-1.3511,-1.3571,-1.3731,-1.3731,-1.3812,-1.3962,-1.3953,-1.4112,-1.4419,-1.4893,-1.5313,-1.5682,-1.6144,-1.6413,-1.6413,-1.6413,-1.6413,-1.6413,-1.6488,-1.6545,-1.6545,-1.663,-1.6864,-0.5719,-0.5605,0.0,-0.5505,-0.5548,0.0,-0.556,0.0,0.0,0.0,0.0,0.0,0.0,0.0,0.0,0.0,0.0,0.0,0.0,0.0,0.0,0.0,0.0,0.0,0.0,0.0,-0.6579,-0.7255,0.0,0.0,0.0,0.0,-0.4842,-0.4519,-0.4491,-0.4491,-0.4491,-0.4491,-0.4491,-0.4491,-0.4491,-0.4491,-0.4491,-0.4491,-0.4491,-0.4519,-0.4605,-0.4632,-0.4712,-0.59,-0.6443,-0.6637,-0.791,-0.8454,-0.8507,-0.8725,-0.8804,-0.8804,-0.891,-0.8936,-0.8956,-0.9087,-0.9185,-0.9381,-1.0036,-1.0357,-1.0646,-1.1238,-1.1503,-1.1591,-1.1591,-1.1591,-1.1591,-1.1591,-1.1591,-1.1591,-1.1591,-1.1591,-1.1591,-1.1591,-1.1591,-1.1654,-1.1747,-1.1972,-1.2243,-1.2736,-1.3094,-1.3359,-1.348,-1.3511,-1.3511,-1.3511,-1.3511,-1.3511,-1.3511,-1.3511,-1.3631,-1.3941,-1.4389,-1.4804,-1.5137,-1.5614,-1.5961,-1.6144,-1.6144,-1.623,-1.6413,-1.6413,-1.6413,-1.6413,-1.6413,-1.6602]}]]